<?xml version="1.0" encoding="UTF-8" standalone="no" ?>
<gpx xmlns="http://www.topografix.com/GPX/1/1" xmlns:xsi="http://www.w3.org/2001/XMLSchema-instance" xsi:schemaLocation="http://www.topografix.com/GPX/1/1 http://www.topografix.com/GPX/1/1/gpx.xsd" version="1.1" creator="VisuGPX - https://www.visugpx.com">
  <metadata>
    <name>Capian Targon</name>
    <desc><![CDATA[Randonnée VTT]]></desc>
  </metadata>
  <trk>
    <name><![CDATA[Capian Targon]]></name>
    <trkseg>
      <trkpt lat="44.71196" lon="-0.33074">
        <ele>94</ele>
        <time>2013-01-13T12:43:34Z</time>
      </trkpt>
      <trkpt lat="44.71196" lon="-0.33073">
        <ele>94</ele>
        <time>2013-01-13T12:43:45Z</time>
      </trkpt>
      <trkpt lat="44.71195" lon="-0.33072">
        <ele>94</ele>
        <time>2013-01-13T12:43:55Z</time>
      </trkpt>
      <trkpt lat="44.71195" lon="-0.33074">
        <ele>94</ele>
        <time>2013-01-13T12:44:00Z</time>
      </trkpt>
      <trkpt lat="44.71189" lon="-0.33086">
        <ele>93</ele>
        <time>2013-01-13T12:44:08Z</time>
      </trkpt>
      <trkpt lat="44.71188" lon="-0.33089">
        <ele>93</ele>
        <time>2013-01-13T12:44:10Z</time>
      </trkpt>
      <trkpt lat="44.71173" lon="-0.33103">
        <ele>93</ele>
        <time>2013-01-13T12:44:19Z</time>
      </trkpt>
      <trkpt lat="44.71168" lon="-0.33106">
        <ele>93</ele>
        <time>2013-01-13T12:44:22Z</time>
      </trkpt>
      <trkpt lat="44.71166" lon="-0.33116">
        <ele>93</ele>
        <time>2013-01-13T12:44:27Z</time>
      </trkpt>
      <trkpt lat="44.71158" lon="-0.3312">
        <ele>93</ele>
        <time>2013-01-13T12:44:31Z</time>
      </trkpt>
      <trkpt lat="44.71135" lon="-0.33122">
        <ele>93</ele>
        <time>2013-01-13T12:44:39Z</time>
      </trkpt>
      <trkpt lat="44.71116" lon="-0.3312">
        <ele>93</ele>
        <time>2013-01-13T12:44:46Z</time>
      </trkpt>
      <trkpt lat="44.711" lon="-0.33111">
        <ele>93</ele>
        <time>2013-01-13T12:44:52Z</time>
      </trkpt>
      <trkpt lat="44.71083" lon="-0.33092">
        <ele>93</ele>
        <time>2013-01-13T12:44:59Z</time>
      </trkpt>
      <trkpt lat="44.71059" lon="-0.33075">
        <ele>92</ele>
        <time>2013-01-13T12:45:06Z</time>
      </trkpt>
      <trkpt lat="44.71042" lon="-0.33068">
        <ele>91</ele>
        <time>2013-01-13T12:45:10Z</time>
      </trkpt>
      <trkpt lat="44.71037" lon="-0.33065">
        <ele>91</ele>
        <time>2013-01-13T12:45:11Z</time>
      </trkpt>
      <trkpt lat="44.71034" lon="-0.33062">
        <ele>90</ele>
        <time>2013-01-13T12:45:12Z</time>
      </trkpt>
      <trkpt lat="44.71031" lon="-0.33058">
        <ele>90</ele>
        <time>2013-01-13T12:45:13Z</time>
      </trkpt>
      <trkpt lat="44.71029" lon="-0.33055">
        <ele>90</ele>
        <time>2013-01-13T12:45:14Z</time>
      </trkpt>
      <trkpt lat="44.71027" lon="-0.33051">
        <ele>90</ele>
        <time>2013-01-13T12:45:15Z</time>
      </trkpt>
      <trkpt lat="44.71026" lon="-0.33048">
        <ele>90</ele>
        <time>2013-01-13T12:45:16Z</time>
      </trkpt>
      <trkpt lat="44.71026" lon="-0.33046">
        <ele>90</ele>
        <time>2013-01-13T12:45:20Z</time>
      </trkpt>
      <trkpt lat="44.71026" lon="-0.33045">
        <ele>90</ele>
        <time>2013-01-13T12:45:34Z</time>
      </trkpt>
      <trkpt lat="44.71026" lon="-0.33044">
        <ele>90</ele>
        <time>2013-01-13T12:45:45Z</time>
      </trkpt>
      <trkpt lat="44.71027" lon="-0.33044">
        <ele>90</ele>
        <time>2013-01-13T12:45:52Z</time>
      </trkpt>
      <trkpt lat="44.71028" lon="-0.33043">
        <ele>90</ele>
        <time>2013-01-13T12:45:55Z</time>
      </trkpt>
      <trkpt lat="44.71028" lon="-0.3304">
        <ele>90</ele>
        <time>2013-01-13T12:45:56Z</time>
      </trkpt>
      <trkpt lat="44.71029" lon="-0.33037">
        <ele>90</ele>
        <time>2013-01-13T12:45:57Z</time>
      </trkpt>
      <trkpt lat="44.71029" lon="-0.33034">
        <ele>90</ele>
        <time>2013-01-13T12:45:58Z</time>
      </trkpt>
      <trkpt lat="44.7103" lon="-0.3303">
        <ele>90</ele>
        <time>2013-01-13T12:45:59Z</time>
      </trkpt>
      <trkpt lat="44.71035" lon="-0.32996">
        <ele>90</ele>
        <time>2013-01-13T12:46:06Z</time>
      </trkpt>
      <trkpt lat="44.71043" lon="-0.3296">
        <ele>91</ele>
        <time>2013-01-13T12:46:12Z</time>
      </trkpt>
      <trkpt lat="44.71044" lon="-0.32953">
        <ele>91</ele>
        <time>2013-01-13T12:46:13Z</time>
      </trkpt>
      <trkpt lat="44.71055" lon="-0.329">
        <ele>92</ele>
        <time>2013-01-13T12:46:22Z</time>
      </trkpt>
      <trkpt lat="44.71068" lon="-0.32854">
        <ele>92</ele>
        <time>2013-01-13T12:46:31Z</time>
      </trkpt>
      <trkpt lat="44.71082" lon="-0.32812">
        <ele>92</ele>
        <time>2013-01-13T12:46:40Z</time>
      </trkpt>
      <trkpt lat="44.71094" lon="-0.3277">
        <ele>91</ele>
        <time>2013-01-13T12:46:48Z</time>
      </trkpt>
      <trkpt lat="44.71109" lon="-0.3272">
        <ele>92</ele>
        <time>2013-01-13T12:46:57Z</time>
      </trkpt>
      <trkpt lat="44.71125" lon="-0.32662">
        <ele>94</ele>
        <time>2013-01-13T12:47:08Z</time>
      </trkpt>
      <trkpt lat="44.71139" lon="-0.3262">
        <ele>96</ele>
        <time>2013-01-13T12:47:17Z</time>
      </trkpt>
      <trkpt lat="44.71153" lon="-0.32573">
        <ele>97</ele>
        <time>2013-01-13T12:47:27Z</time>
      </trkpt>
      <trkpt lat="44.71163" lon="-0.32537">
        <ele>98</ele>
        <time>2013-01-13T12:47:35Z</time>
      </trkpt>
      <trkpt lat="44.7117" lon="-0.32491">
        <ele>99</ele>
        <time>2013-01-13T12:47:44Z</time>
      </trkpt>
      <trkpt lat="44.71168" lon="-0.32431">
        <ele>100</ele>
        <time>2013-01-13T12:47:55Z</time>
      </trkpt>
      <trkpt lat="44.71168" lon="-0.32425">
        <ele>100</ele>
        <time>2013-01-13T12:47:56Z</time>
      </trkpt>
      <trkpt lat="44.71161" lon="-0.32353">
        <ele>100</ele>
        <time>2013-01-13T12:48:09Z</time>
      </trkpt>
      <trkpt lat="44.7116" lon="-0.32347">
        <ele>100</ele>
        <time>2013-01-13T12:48:10Z</time>
      </trkpt>
      <trkpt lat="44.71155" lon="-0.32285">
        <ele>100</ele>
        <time>2013-01-13T12:48:21Z</time>
      </trkpt>
      <trkpt lat="44.7115" lon="-0.32228">
        <ele>99</ele>
        <time>2013-01-13T12:48:31Z</time>
      </trkpt>
      <trkpt lat="44.71145" lon="-0.32155">
        <ele>99</ele>
        <time>2013-01-13T12:48:43Z</time>
      </trkpt>
      <trkpt lat="44.71139" lon="-0.32095">
        <ele>99</ele>
        <time>2013-01-13T12:48:53Z</time>
      </trkpt>
      <trkpt lat="44.71135" lon="-0.32036">
        <ele>99</ele>
        <time>2013-01-13T12:49:03Z</time>
      </trkpt>
      <trkpt lat="44.7113" lon="-0.31987">
        <ele>99</ele>
        <time>2013-01-13T12:49:11Z</time>
      </trkpt>
      <trkpt lat="44.7113" lon="-0.31981">
        <ele>99</ele>
        <time>2013-01-13T12:49:12Z</time>
      </trkpt>
      <trkpt lat="44.7113" lon="-0.31976">
        <ele>99</ele>
        <time>2013-01-13T12:49:13Z</time>
      </trkpt>
      <trkpt lat="44.7113" lon="-0.3197">
        <ele>99</ele>
        <time>2013-01-13T12:49:14Z</time>
      </trkpt>
      <trkpt lat="44.71131" lon="-0.31965">
        <ele>99</ele>
        <time>2013-01-13T12:49:15Z</time>
      </trkpt>
      <trkpt lat="44.71132" lon="-0.31959">
        <ele>100</ele>
        <time>2013-01-13T12:49:16Z</time>
      </trkpt>
      <trkpt lat="44.71133" lon="-0.31953">
        <ele>100</ele>
        <time>2013-01-13T12:49:17Z</time>
      </trkpt>
      <trkpt lat="44.71133" lon="-0.31947">
        <ele>100</ele>
        <time>2013-01-13T12:49:18Z</time>
      </trkpt>
      <trkpt lat="44.71142" lon="-0.31895">
        <ele>100</ele>
        <time>2013-01-13T12:49:26Z</time>
      </trkpt>
      <trkpt lat="44.71157" lon="-0.31825">
        <ele>99</ele>
        <time>2013-01-13T12:49:36Z</time>
      </trkpt>
      <trkpt lat="44.71173" lon="-0.31743">
        <ele>98</ele>
        <time>2013-01-13T12:49:47Z</time>
      </trkpt>
      <trkpt lat="44.71191" lon="-0.31659">
        <ele>97</ele>
        <time>2013-01-13T12:49:58Z</time>
      </trkpt>
      <trkpt lat="44.71202" lon="-0.31609">
        <ele>98</ele>
        <time>2013-01-13T12:50:06Z</time>
      </trkpt>
      <trkpt lat="44.71216" lon="-0.3155">
        <ele>100</ele>
        <time>2013-01-13T12:50:16Z</time>
      </trkpt>
      <trkpt lat="44.71225" lon="-0.31513">
        <ele>100</ele>
        <time>2013-01-13T12:50:24Z</time>
      </trkpt>
      <trkpt lat="44.71234" lon="-0.31484">
        <ele>101</ele>
        <time>2013-01-13T12:50:31Z</time>
      </trkpt>
      <trkpt lat="44.71245" lon="-0.31456">
        <ele>101</ele>
        <time>2013-01-13T12:50:37Z</time>
      </trkpt>
      <trkpt lat="44.71268" lon="-0.31396">
        <ele>98</ele>
        <time>2013-01-13T12:50:48Z</time>
      </trkpt>
      <trkpt lat="44.71289" lon="-0.31354">
        <ele>95</ele>
        <time>2013-01-13T12:50:55Z</time>
      </trkpt>
      <trkpt lat="44.71317" lon="-0.31304">
        <ele>91</ele>
        <time>2013-01-13T12:51:03Z</time>
      </trkpt>
      <trkpt lat="44.71343" lon="-0.3126">
        <ele>88</ele>
        <time>2013-01-13T12:51:11Z</time>
      </trkpt>
      <trkpt lat="44.71345" lon="-0.31256">
        <ele>87</ele>
        <time>2013-01-13T12:51:12Z</time>
      </trkpt>
      <trkpt lat="44.7135" lon="-0.31248">
        <ele>87</ele>
        <time>2013-01-13T12:51:14Z</time>
      </trkpt>
      <trkpt lat="44.71356" lon="-0.31238">
        <ele>86</ele>
        <time>2013-01-13T12:51:16Z</time>
      </trkpt>
      <trkpt lat="44.71381" lon="-0.31205">
        <ele>83</ele>
        <time>2013-01-13T12:51:22Z</time>
      </trkpt>
      <trkpt lat="44.71411" lon="-0.31163">
        <ele>78</ele>
        <time>2013-01-13T12:51:29Z</time>
      </trkpt>
      <trkpt lat="44.71426" lon="-0.31145">
        <ele>76</ele>
        <time>2013-01-13T12:51:33Z</time>
      </trkpt>
      <trkpt lat="44.71434" lon="-0.31134">
        <ele>74</ele>
        <time>2013-01-13T12:51:35Z</time>
      </trkpt>
      <trkpt lat="44.71437" lon="-0.31129">
        <ele>73</ele>
        <time>2013-01-13T12:51:36Z</time>
      </trkpt>
      <trkpt lat="44.7144" lon="-0.31124">
        <ele>72</ele>
        <time>2013-01-13T12:51:37Z</time>
      </trkpt>
      <trkpt lat="44.71456" lon="-0.311">
        <ele>69</ele>
        <time>2013-01-13T12:51:43Z</time>
      </trkpt>
      <trkpt lat="44.71464" lon="-0.31068">
        <ele>66</ele>
        <time>2013-01-13T12:51:49Z</time>
      </trkpt>
      <trkpt lat="44.71467" lon="-0.31056">
        <ele>65</ele>
        <time>2013-01-13T12:51:51Z</time>
      </trkpt>
      <trkpt lat="44.71473" lon="-0.31031">
        <ele>64</ele>
        <time>2013-01-13T12:51:56Z</time>
      </trkpt>
      <trkpt lat="44.71474" lon="-0.31025">
        <ele>64</ele>
        <time>2013-01-13T12:51:58Z</time>
      </trkpt>
      <trkpt lat="44.71475" lon="-0.31021">
        <ele>64</ele>
        <time>2013-01-13T12:52:03Z</time>
      </trkpt>
      <trkpt lat="44.71475" lon="-0.31021">
        <ele>64</ele>
        <time>2013-01-13T12:52:12Z</time>
      </trkpt>
      <trkpt lat="44.71476" lon="-0.3102">
        <ele>64</ele>
        <time>2013-01-13T12:52:25Z</time>
      </trkpt>
      <trkpt lat="44.71479" lon="-0.3102">
        <ele>64</ele>
        <time>2013-01-13T12:52:33Z</time>
      </trkpt>
      <trkpt lat="44.7148" lon="-0.31022">
        <ele>65</ele>
        <time>2013-01-13T12:52:34Z</time>
      </trkpt>
      <trkpt lat="44.71489" lon="-0.31033">
        <ele>65</ele>
        <time>2013-01-13T12:52:40Z</time>
      </trkpt>
      <trkpt lat="44.71502" lon="-0.31055">
        <ele>66</ele>
        <time>2013-01-13T12:52:46Z</time>
      </trkpt>
      <trkpt lat="44.71519" lon="-0.31088">
        <ele>65</ele>
        <time>2013-01-13T12:52:54Z</time>
      </trkpt>
      <trkpt lat="44.71536" lon="-0.31117">
        <ele>66</ele>
        <time>2013-01-13T12:53:03Z</time>
      </trkpt>
      <trkpt lat="44.71548" lon="-0.31141">
        <ele>66</ele>
        <time>2013-01-13T12:53:11Z</time>
      </trkpt>
      <trkpt lat="44.71559" lon="-0.31162">
        <ele>65</ele>
        <time>2013-01-13T12:53:19Z</time>
      </trkpt>
      <trkpt lat="44.71575" lon="-0.31186">
        <ele>65</ele>
        <time>2013-01-13T12:53:27Z</time>
      </trkpt>
      <trkpt lat="44.71589" lon="-0.31202">
        <ele>65</ele>
        <time>2013-01-13T12:53:33Z</time>
      </trkpt>
      <trkpt lat="44.71609" lon="-0.3122">
        <ele>64</ele>
        <time>2013-01-13T12:53:41Z</time>
      </trkpt>
      <trkpt lat="44.7163" lon="-0.31229">
        <ele>64</ele>
        <time>2013-01-13T12:53:48Z</time>
      </trkpt>
      <trkpt lat="44.71664" lon="-0.31238">
        <ele>63</ele>
        <time>2013-01-13T12:53:59Z</time>
      </trkpt>
      <trkpt lat="44.71685" lon="-0.31242">
        <ele>62</ele>
        <time>2013-01-13T12:54:06Z</time>
      </trkpt>
      <trkpt lat="44.71715" lon="-0.31248">
        <ele>61</ele>
        <time>2013-01-13T12:54:16Z</time>
      </trkpt>
      <trkpt lat="44.71741" lon="-0.31251">
        <ele>60</ele>
        <time>2013-01-13T12:54:24Z</time>
      </trkpt>
      <trkpt lat="44.71767" lon="-0.31252">
        <ele>60</ele>
        <time>2013-01-13T12:54:32Z</time>
      </trkpt>
      <trkpt lat="44.71795" lon="-0.3125">
        <ele>60</ele>
        <time>2013-01-13T12:54:41Z</time>
      </trkpt>
      <trkpt lat="44.7182" lon="-0.31244">
        <ele>60</ele>
        <time>2013-01-13T12:54:50Z</time>
      </trkpt>
      <trkpt lat="44.71837" lon="-0.31239">
        <ele>60</ele>
        <time>2013-01-13T12:54:56Z</time>
      </trkpt>
      <trkpt lat="44.71852" lon="-0.31235">
        <ele>59</ele>
        <time>2013-01-13T12:55:03Z</time>
      </trkpt>
      <trkpt lat="44.71873" lon="-0.31236">
        <ele>58</ele>
        <time>2013-01-13T12:55:11Z</time>
      </trkpt>
      <trkpt lat="44.71888" lon="-0.31236">
        <ele>57</ele>
        <time>2013-01-13T12:55:17Z</time>
      </trkpt>
      <trkpt lat="44.71913" lon="-0.31238">
        <ele>56</ele>
        <time>2013-01-13T12:55:27Z</time>
      </trkpt>
      <trkpt lat="44.71933" lon="-0.31238">
        <ele>57</ele>
        <time>2013-01-13T12:55:36Z</time>
      </trkpt>
      <trkpt lat="44.71946" lon="-0.31234">
        <ele>58</ele>
        <time>2013-01-13T12:55:43Z</time>
      </trkpt>
      <trkpt lat="44.71948" lon="-0.31221">
        <ele>59</ele>
        <time>2013-01-13T12:55:49Z</time>
      </trkpt>
      <trkpt lat="44.7195" lon="-0.31207">
        <ele>60</ele>
        <time>2013-01-13T12:55:57Z</time>
      </trkpt>
      <trkpt lat="44.71951" lon="-0.31194">
        <ele>60</ele>
        <time>2013-01-13T12:56:04Z</time>
      </trkpt>
      <trkpt lat="44.71952" lon="-0.31187">
        <ele>61</ele>
        <time>2013-01-13T12:56:09Z</time>
      </trkpt>
      <trkpt lat="44.71952" lon="-0.31183">
        <ele>61</ele>
        <time>2013-01-13T12:56:15Z</time>
      </trkpt>
      <trkpt lat="44.7195" lon="-0.31175">
        <ele>61</ele>
        <time>2013-01-13T12:56:20Z</time>
      </trkpt>
      <trkpt lat="44.71951" lon="-0.31164">
        <ele>62</ele>
        <time>2013-01-13T12:56:29Z</time>
      </trkpt>
      <trkpt lat="44.7195" lon="-0.31154">
        <ele>63</ele>
        <time>2013-01-13T12:56:37Z</time>
      </trkpt>
      <trkpt lat="44.71951" lon="-0.31147">
        <ele>63</ele>
        <time>2013-01-13T12:56:44Z</time>
      </trkpt>
      <trkpt lat="44.7195" lon="-0.31141">
        <ele>63</ele>
        <time>2013-01-13T12:56:48Z</time>
      </trkpt>
      <trkpt lat="44.71949" lon="-0.31136">
        <ele>63</ele>
        <time>2013-01-13T12:56:52Z</time>
      </trkpt>
      <trkpt lat="44.71947" lon="-0.31128">
        <ele>64</ele>
        <time>2013-01-13T12:57:00Z</time>
      </trkpt>
      <trkpt lat="44.71947" lon="-0.31126">
        <ele>64</ele>
        <time>2013-01-13T12:57:05Z</time>
      </trkpt>
      <trkpt lat="44.71946" lon="-0.31124">
        <ele>64</ele>
        <time>2013-01-13T12:57:07Z</time>
      </trkpt>
      <trkpt lat="44.71946" lon="-0.31115">
        <ele>64</ele>
        <time>2013-01-13T12:57:12Z</time>
      </trkpt>
      <trkpt lat="44.71945" lon="-0.31092">
        <ele>66</ele>
        <time>2013-01-13T12:57:22Z</time>
      </trkpt>
      <trkpt lat="44.71945" lon="-0.3107">
        <ele>67</ele>
        <time>2013-01-13T12:57:32Z</time>
      </trkpt>
      <trkpt lat="44.71945" lon="-0.3105">
        <ele>68</ele>
        <time>2013-01-13T12:57:41Z</time>
      </trkpt>
      <trkpt lat="44.71945" lon="-0.31037">
        <ele>69</ele>
        <time>2013-01-13T12:57:47Z</time>
      </trkpt>
      <trkpt lat="44.71945" lon="-0.31018">
        <ele>69</ele>
        <time>2013-01-13T12:57:57Z</time>
      </trkpt>
      <trkpt lat="44.71943" lon="-0.31006">
        <ele>70</ele>
        <time>2013-01-13T12:58:03Z</time>
      </trkpt>
      <trkpt lat="44.71944" lon="-0.30994">
        <ele>70</ele>
        <time>2013-01-13T12:58:10Z</time>
      </trkpt>
      <trkpt lat="44.71946" lon="-0.30974">
        <ele>71</ele>
        <time>2013-01-13T12:58:19Z</time>
      </trkpt>
      <trkpt lat="44.71948" lon="-0.30957">
        <ele>73</ele>
        <time>2013-01-13T12:58:28Z</time>
      </trkpt>
      <trkpt lat="44.71949" lon="-0.30948">
        <ele>73</ele>
        <time>2013-01-13T12:58:33Z</time>
      </trkpt>
      <trkpt lat="44.71949" lon="-0.30934">
        <ele>74</ele>
        <time>2013-01-13T12:58:42Z</time>
      </trkpt>
      <trkpt lat="44.71949" lon="-0.30923">
        <ele>74</ele>
        <time>2013-01-13T12:58:50Z</time>
      </trkpt>
      <trkpt lat="44.7195" lon="-0.30915">
        <ele>75</ele>
        <time>2013-01-13T12:58:55Z</time>
      </trkpt>
      <trkpt lat="44.71949" lon="-0.30902">
        <ele>75</ele>
        <time>2013-01-13T12:59:04Z</time>
      </trkpt>
      <trkpt lat="44.71949" lon="-0.30892">
        <ele>76</ele>
        <time>2013-01-13T12:59:12Z</time>
      </trkpt>
      <trkpt lat="44.71948" lon="-0.30886">
        <ele>76</ele>
        <time>2013-01-13T12:59:16Z</time>
      </trkpt>
      <trkpt lat="44.71948" lon="-0.30874">
        <ele>76</ele>
        <time>2013-01-13T12:59:24Z</time>
      </trkpt>
      <trkpt lat="44.71948" lon="-0.3087">
        <ele>77</ele>
        <time>2013-01-13T12:59:27Z</time>
      </trkpt>
      <trkpt lat="44.71948" lon="-0.30856">
        <ele>77</ele>
        <time>2013-01-13T12:59:37Z</time>
      </trkpt>
      <trkpt lat="44.71948" lon="-0.30846">
        <ele>77</ele>
        <time>2013-01-13T12:59:44Z</time>
      </trkpt>
      <trkpt lat="44.71949" lon="-0.30831">
        <ele>78</ele>
        <time>2013-01-13T12:59:54Z</time>
      </trkpt>
      <trkpt lat="44.71947" lon="-0.30814">
        <ele>78</ele>
        <time>2013-01-13T13:00:04Z</time>
      </trkpt>
      <trkpt lat="44.71947" lon="-0.30795">
        <ele>79</ele>
        <time>2013-01-13T13:00:13Z</time>
      </trkpt>
      <trkpt lat="44.71948" lon="-0.30776">
        <ele>78</ele>
        <time>2013-01-13T13:00:21Z</time>
      </trkpt>
      <trkpt lat="44.71947" lon="-0.30756">
        <ele>78</ele>
        <time>2013-01-13T13:00:29Z</time>
      </trkpt>
      <trkpt lat="44.71948" lon="-0.30737">
        <ele>78</ele>
        <time>2013-01-13T13:00:37Z</time>
      </trkpt>
      <trkpt lat="44.71948" lon="-0.30717">
        <ele>78</ele>
        <time>2013-01-13T13:00:44Z</time>
      </trkpt>
      <trkpt lat="44.71946" lon="-0.30693">
        <ele>77</ele>
        <time>2013-01-13T13:00:51Z</time>
      </trkpt>
      <trkpt lat="44.71947" lon="-0.30668">
        <ele>76</ele>
        <time>2013-01-13T13:00:59Z</time>
      </trkpt>
      <trkpt lat="44.71948" lon="-0.30651">
        <ele>76</ele>
        <time>2013-01-13T13:01:05Z</time>
      </trkpt>
      <trkpt lat="44.71953" lon="-0.30647">
        <ele>75</ele>
        <time>2013-01-13T13:01:09Z</time>
      </trkpt>
      <trkpt lat="44.71968" lon="-0.30652">
        <ele>74</ele>
        <time>2013-01-13T13:01:17Z</time>
      </trkpt>
      <trkpt lat="44.71983" lon="-0.30659">
        <ele>72</ele>
        <time>2013-01-13T13:01:24Z</time>
      </trkpt>
      <trkpt lat="44.71995" lon="-0.30669">
        <ele>71</ele>
        <time>2013-01-13T13:01:31Z</time>
      </trkpt>
      <trkpt lat="44.72011" lon="-0.30676">
        <ele>70</ele>
        <time>2013-01-13T13:01:39Z</time>
      </trkpt>
      <trkpt lat="44.72018" lon="-0.3067">
        <ele>70</ele>
        <time>2013-01-13T13:01:44Z</time>
      </trkpt>
      <trkpt lat="44.72019" lon="-0.30662">
        <ele>70</ele>
        <time>2013-01-13T13:01:48Z</time>
      </trkpt>
      <trkpt lat="44.72013" lon="-0.30639">
        <ele>70</ele>
        <time>2013-01-13T13:01:58Z</time>
      </trkpt>
      <trkpt lat="44.72008" lon="-0.30613">
        <ele>71</ele>
        <time>2013-01-13T13:02:08Z</time>
      </trkpt>
      <trkpt lat="44.72002" lon="-0.30586">
        <ele>72</ele>
        <time>2013-01-13T13:02:19Z</time>
      </trkpt>
      <trkpt lat="44.71998" lon="-0.30564">
        <ele>72</ele>
        <time>2013-01-13T13:02:28Z</time>
      </trkpt>
      <trkpt lat="44.71994" lon="-0.30544">
        <ele>73</ele>
        <time>2013-01-13T13:02:36Z</time>
      </trkpt>
      <trkpt lat="44.71991" lon="-0.30523">
        <ele>73</ele>
        <time>2013-01-13T13:02:45Z</time>
      </trkpt>
      <trkpt lat="44.71987" lon="-0.30508">
        <ele>74</ele>
        <time>2013-01-13T13:02:52Z</time>
      </trkpt>
      <trkpt lat="44.71978" lon="-0.30493">
        <ele>74</ele>
        <time>2013-01-13T13:03:00Z</time>
      </trkpt>
      <trkpt lat="44.7197" lon="-0.30481">
        <ele>75</ele>
        <time>2013-01-13T13:03:07Z</time>
      </trkpt>
      <trkpt lat="44.71963" lon="-0.30471">
        <ele>76</ele>
        <time>2013-01-13T13:03:14Z</time>
      </trkpt>
      <trkpt lat="44.71955" lon="-0.30458">
        <ele>77</ele>
        <time>2013-01-13T13:03:22Z</time>
      </trkpt>
      <trkpt lat="44.71952" lon="-0.30455">
        <ele>77</ele>
        <time>2013-01-13T13:03:25Z</time>
      </trkpt>
      <trkpt lat="44.71949" lon="-0.3045">
        <ele>77</ele>
        <time>2013-01-13T13:03:29Z</time>
      </trkpt>
      <trkpt lat="44.71938" lon="-0.30433">
        <ele>78</ele>
        <time>2013-01-13T13:03:40Z</time>
      </trkpt>
      <trkpt lat="44.71933" lon="-0.30426">
        <ele>79</ele>
        <time>2013-01-13T13:03:46Z</time>
      </trkpt>
      <trkpt lat="44.71931" lon="-0.30424">
        <ele>79</ele>
        <time>2013-01-13T13:03:48Z</time>
      </trkpt>
      <trkpt lat="44.71927" lon="-0.30418">
        <ele>80</ele>
        <time>2013-01-13T13:03:53Z</time>
      </trkpt>
      <trkpt lat="44.71926" lon="-0.30413">
        <ele>80</ele>
        <time>2013-01-13T13:03:56Z</time>
      </trkpt>
      <trkpt lat="44.71917" lon="-0.30402">
        <ele>81</ele>
        <time>2013-01-13T13:04:05Z</time>
      </trkpt>
      <trkpt lat="44.71909" lon="-0.30389">
        <ele>82</ele>
        <time>2013-01-13T13:04:14Z</time>
      </trkpt>
      <trkpt lat="44.71904" lon="-0.30381">
        <ele>82</ele>
        <time>2013-01-13T13:04:22Z</time>
      </trkpt>
      <trkpt lat="44.71899" lon="-0.30371">
        <ele>82</ele>
        <time>2013-01-13T13:04:29Z</time>
      </trkpt>
      <trkpt lat="44.71895" lon="-0.30362">
        <ele>83</ele>
        <time>2013-01-13T13:04:36Z</time>
      </trkpt>
      <trkpt lat="44.7189" lon="-0.30353">
        <ele>83</ele>
        <time>2013-01-13T13:04:44Z</time>
      </trkpt>
      <trkpt lat="44.71887" lon="-0.30346">
        <ele>84</ele>
        <time>2013-01-13T13:04:50Z</time>
      </trkpt>
      <trkpt lat="44.71886" lon="-0.30344">
        <ele>84</ele>
        <time>2013-01-13T13:04:56Z</time>
      </trkpt>
      <trkpt lat="44.71882" lon="-0.30335">
        <ele>85</ele>
        <time>2013-01-13T13:05:05Z</time>
      </trkpt>
      <trkpt lat="44.7188" lon="-0.30328">
        <ele>86</ele>
        <time>2013-01-13T13:05:12Z</time>
      </trkpt>
      <trkpt lat="44.7188" lon="-0.30323">
        <ele>86</ele>
        <time>2013-01-13T13:05:20Z</time>
      </trkpt>
      <trkpt lat="44.71879" lon="-0.30318">
        <ele>86</ele>
        <time>2013-01-13T13:05:26Z</time>
      </trkpt>
      <trkpt lat="44.71878" lon="-0.30314">
        <ele>87</ele>
        <time>2013-01-13T13:05:30Z</time>
      </trkpt>
      <trkpt lat="44.71874" lon="-0.30308">
        <ele>87</ele>
        <time>2013-01-13T13:05:38Z</time>
      </trkpt>
      <trkpt lat="44.71871" lon="-0.30302">
        <ele>87</ele>
        <time>2013-01-13T13:05:45Z</time>
      </trkpt>
      <trkpt lat="44.71869" lon="-0.30296">
        <ele>88</ele>
        <time>2013-01-13T13:05:51Z</time>
      </trkpt>
      <trkpt lat="44.71865" lon="-0.30289">
        <ele>88</ele>
        <time>2013-01-13T13:06:00Z</time>
      </trkpt>
      <trkpt lat="44.71863" lon="-0.30286">
        <ele>88</ele>
        <time>2013-01-13T13:06:06Z</time>
      </trkpt>
      <trkpt lat="44.71859" lon="-0.3028">
        <ele>89</ele>
        <time>2013-01-13T13:06:14Z</time>
      </trkpt>
      <trkpt lat="44.71857" lon="-0.30273">
        <ele>90</ele>
        <time>2013-01-13T13:06:21Z</time>
      </trkpt>
      <trkpt lat="44.71854" lon="-0.30267">
        <ele>91</ele>
        <time>2013-01-13T13:06:28Z</time>
      </trkpt>
      <trkpt lat="44.71851" lon="-0.3026">
        <ele>92</ele>
        <time>2013-01-13T13:06:36Z</time>
      </trkpt>
      <trkpt lat="44.7185" lon="-0.30258">
        <ele>92</ele>
        <time>2013-01-13T13:06:42Z</time>
      </trkpt>
      <trkpt lat="44.71849" lon="-0.30251">
        <ele>93</ele>
        <time>2013-01-13T13:06:49Z</time>
      </trkpt>
      <trkpt lat="44.71849" lon="-0.30248">
        <ele>93</ele>
        <time>2013-01-13T13:06:56Z</time>
      </trkpt>
      <trkpt lat="44.71848" lon="-0.30248">
        <ele>93</ele>
        <time>2013-01-13T13:06:58Z</time>
      </trkpt>
      <trkpt lat="44.71844" lon="-0.30238">
        <ele>95</ele>
        <time>2013-01-13T13:07:06Z</time>
      </trkpt>
      <trkpt lat="44.71838" lon="-0.30225">
        <ele>96</ele>
        <time>2013-01-13T13:07:14Z</time>
      </trkpt>
      <trkpt lat="44.71834" lon="-0.30215">
        <ele>97</ele>
        <time>2013-01-13T13:07:21Z</time>
      </trkpt>
      <trkpt lat="44.71834" lon="-0.30212">
        <ele>98</ele>
        <time>2013-01-13T13:07:23Z</time>
      </trkpt>
      <trkpt lat="44.71832" lon="-0.30206">
        <ele>98</ele>
        <time>2013-01-13T13:07:27Z</time>
      </trkpt>
      <trkpt lat="44.71826" lon="-0.30193">
        <ele>99</ele>
        <time>2013-01-13T13:07:36Z</time>
      </trkpt>
      <trkpt lat="44.71823" lon="-0.30182">
        <ele>100</ele>
        <time>2013-01-13T13:07:43Z</time>
      </trkpt>
      <trkpt lat="44.7182" lon="-0.3017">
        <ele>101</ele>
        <time>2013-01-13T13:07:51Z</time>
      </trkpt>
      <trkpt lat="44.71819" lon="-0.30169">
        <ele>101</ele>
        <time>2013-01-13T13:07:52Z</time>
      </trkpt>
      <trkpt lat="44.71817" lon="-0.30159">
        <ele>102</ele>
        <time>2013-01-13T13:07:59Z</time>
      </trkpt>
      <trkpt lat="44.71813" lon="-0.30153">
        <ele>103</ele>
        <time>2013-01-13T13:08:05Z</time>
      </trkpt>
      <trkpt lat="44.7181" lon="-0.30151">
        <ele>103</ele>
        <time>2013-01-13T13:08:08Z</time>
      </trkpt>
      <trkpt lat="44.71813" lon="-0.30138">
        <ele>104</ele>
        <time>2013-01-13T13:08:16Z</time>
      </trkpt>
      <trkpt lat="44.71812" lon="-0.30135">
        <ele>104</ele>
        <time>2013-01-13T13:08:18Z</time>
      </trkpt>
      <trkpt lat="44.71812" lon="-0.30132">
        <ele>104</ele>
        <time>2013-01-13T13:08:20Z</time>
      </trkpt>
      <trkpt lat="44.71808" lon="-0.30122">
        <ele>105</ele>
        <time>2013-01-13T13:08:29Z</time>
      </trkpt>
      <trkpt lat="44.71805" lon="-0.30112">
        <ele>106</ele>
        <time>2013-01-13T13:08:37Z</time>
      </trkpt>
      <trkpt lat="44.71802" lon="-0.30101">
        <ele>107</ele>
        <time>2013-01-13T13:08:46Z</time>
      </trkpt>
      <trkpt lat="44.718" lon="-0.30093">
        <ele>108</ele>
        <time>2013-01-13T13:08:52Z</time>
      </trkpt>
      <trkpt lat="44.71797" lon="-0.30082">
        <ele>108</ele>
        <time>2013-01-13T13:09:01Z</time>
      </trkpt>
      <trkpt lat="44.71793" lon="-0.30072">
        <ele>109</ele>
        <time>2013-01-13T13:09:09Z</time>
      </trkpt>
      <trkpt lat="44.7179" lon="-0.30059">
        <ele>110</ele>
        <time>2013-01-13T13:09:17Z</time>
      </trkpt>
      <trkpt lat="44.71789" lon="-0.30052">
        <ele>110</ele>
        <time>2013-01-13T13:09:22Z</time>
      </trkpt>
      <trkpt lat="44.71786" lon="-0.30039">
        <ele>110</ele>
        <time>2013-01-13T13:09:30Z</time>
      </trkpt>
      <trkpt lat="44.71782" lon="-0.30023">
        <ele>111</ele>
        <time>2013-01-13T13:09:41Z</time>
      </trkpt>
      <trkpt lat="44.71781" lon="-0.3001">
        <ele>111</ele>
        <time>2013-01-13T13:09:47Z</time>
      </trkpt>
      <trkpt lat="44.71775" lon="-0.29989">
        <ele>112</ele>
        <time>2013-01-13T13:09:59Z</time>
      </trkpt>
      <trkpt lat="44.71773" lon="-0.29969">
        <ele>112</ele>
        <time>2013-01-13T13:10:09Z</time>
      </trkpt>
      <trkpt lat="44.71771" lon="-0.29962">
        <ele>112</ele>
        <time>2013-01-13T13:10:16Z</time>
      </trkpt>
      <trkpt lat="44.7177" lon="-0.29962">
        <ele>112</ele>
        <time>2013-01-13T13:10:23Z</time>
      </trkpt>
      <trkpt lat="44.7177" lon="-0.29962">
        <ele>112</ele>
        <time>2013-01-13T13:10:36Z</time>
      </trkpt>
      <trkpt lat="44.7177" lon="-0.29962">
        <ele>112</ele>
        <time>2013-01-13T13:10:47Z</time>
      </trkpt>
      <trkpt lat="44.7177" lon="-0.29962">
        <ele>112</ele>
        <time>2013-01-13T13:11:03Z</time>
      </trkpt>
      <trkpt lat="44.71769" lon="-0.29962">
        <ele>112</ele>
        <time>2013-01-13T13:11:20Z</time>
      </trkpt>
      <trkpt lat="44.7177" lon="-0.29962">
        <ele>112</ele>
        <time>2013-01-13T13:11:36Z</time>
      </trkpt>
      <trkpt lat="44.7177" lon="-0.29962">
        <ele>112</ele>
        <time>2013-01-13T13:11:53Z</time>
      </trkpt>
      <trkpt lat="44.7177" lon="-0.29963">
        <ele>112</ele>
        <time>2013-01-13T13:12:11Z</time>
      </trkpt>
      <trkpt lat="44.7177" lon="-0.29963">
        <ele>112</ele>
        <time>2013-01-13T13:12:33Z</time>
      </trkpt>
      <trkpt lat="44.7177" lon="-0.29963">
        <ele>112</ele>
        <time>2013-01-13T13:12:47Z</time>
      </trkpt>
      <trkpt lat="44.7177" lon="-0.29963">
        <ele>112</ele>
        <time>2013-01-13T13:12:54Z</time>
      </trkpt>
      <trkpt lat="44.71777" lon="-0.29953">
        <ele>112</ele>
        <time>2013-01-13T13:13:00Z</time>
      </trkpt>
      <trkpt lat="44.7178" lon="-0.29952">
        <ele>112</ele>
        <time>2013-01-13T13:13:02Z</time>
      </trkpt>
      <trkpt lat="44.71796" lon="-0.29943">
        <ele>112</ele>
        <time>2013-01-13T13:13:10Z</time>
      </trkpt>
      <trkpt lat="44.71821" lon="-0.29927">
        <ele>112</ele>
        <time>2013-01-13T13:13:19Z</time>
      </trkpt>
      <trkpt lat="44.71853" lon="-0.29909">
        <ele>112</ele>
        <time>2013-01-13T13:13:28Z</time>
      </trkpt>
      <trkpt lat="44.71877" lon="-0.29895">
        <ele>112</ele>
        <time>2013-01-13T13:13:34Z</time>
      </trkpt>
      <trkpt lat="44.71916" lon="-0.2987">
        <ele>110</ele>
        <time>2013-01-13T13:13:42Z</time>
      </trkpt>
      <trkpt lat="44.71925" lon="-0.2986">
        <ele>110</ele>
        <time>2013-01-13T13:13:44Z</time>
      </trkpt>
      <trkpt lat="44.71948" lon="-0.29816">
        <ele>109</ele>
        <time>2013-01-13T13:13:51Z</time>
      </trkpt>
      <trkpt lat="44.71984" lon="-0.29735">
        <ele>108</ele>
        <time>2013-01-13T13:14:03Z</time>
      </trkpt>
      <trkpt lat="44.7202" lon="-0.29659">
        <ele>109</ele>
        <time>2013-01-13T13:14:15Z</time>
      </trkpt>
      <trkpt lat="44.72023" lon="-0.29654">
        <ele>109</ele>
        <time>2013-01-13T13:14:16Z</time>
      </trkpt>
      <trkpt lat="44.72026" lon="-0.29649">
        <ele>109</ele>
        <time>2013-01-13T13:14:17Z</time>
      </trkpt>
      <trkpt lat="44.72028" lon="-0.29644">
        <ele>109</ele>
        <time>2013-01-13T13:14:18Z</time>
      </trkpt>
      <trkpt lat="44.7203" lon="-0.29639">
        <ele>109</ele>
        <time>2013-01-13T13:14:19Z</time>
      </trkpt>
      <trkpt lat="44.72033" lon="-0.29634">
        <ele>110</ele>
        <time>2013-01-13T13:14:20Z</time>
      </trkpt>
      <trkpt lat="44.72052" lon="-0.29596">
        <ele>110</ele>
        <time>2013-01-13T13:14:28Z</time>
      </trkpt>
      <trkpt lat="44.72055" lon="-0.29592">
        <ele>110</ele>
        <time>2013-01-13T13:14:29Z</time>
      </trkpt>
      <trkpt lat="44.72057" lon="-0.29587">
        <ele>110</ele>
        <time>2013-01-13T13:14:30Z</time>
      </trkpt>
      <trkpt lat="44.72059" lon="-0.29582">
        <ele>110</ele>
        <time>2013-01-13T13:14:31Z</time>
      </trkpt>
      <trkpt lat="44.72062" lon="-0.29577">
        <ele>110</ele>
        <time>2013-01-13T13:14:32Z</time>
      </trkpt>
      <trkpt lat="44.72064" lon="-0.29572">
        <ele>110</ele>
        <time>2013-01-13T13:14:33Z</time>
      </trkpt>
      <trkpt lat="44.72085" lon="-0.29526">
        <ele>111</ele>
        <time>2013-01-13T13:14:43Z</time>
      </trkpt>
      <trkpt lat="44.72093" lon="-0.29507">
        <ele>111</ele>
        <time>2013-01-13T13:14:47Z</time>
      </trkpt>
      <trkpt lat="44.72094" lon="-0.29502">
        <ele>111</ele>
        <time>2013-01-13T13:14:48Z</time>
      </trkpt>
      <trkpt lat="44.72094" lon="-0.29496">
        <ele>111</ele>
        <time>2013-01-13T13:14:49Z</time>
      </trkpt>
      <trkpt lat="44.72094" lon="-0.2949">
        <ele>111</ele>
        <time>2013-01-13T13:14:50Z</time>
      </trkpt>
      <trkpt lat="44.72094" lon="-0.29484">
        <ele>111</ele>
        <time>2013-01-13T13:14:51Z</time>
      </trkpt>
      <trkpt lat="44.72093" lon="-0.29479">
        <ele>111</ele>
        <time>2013-01-13T13:14:52Z</time>
      </trkpt>
      <trkpt lat="44.72091" lon="-0.29473">
        <ele>111</ele>
        <time>2013-01-13T13:14:53Z</time>
      </trkpt>
      <trkpt lat="44.72082" lon="-0.29432">
        <ele>110</ele>
        <time>2013-01-13T13:15:00Z</time>
      </trkpt>
      <trkpt lat="44.72067" lon="-0.29362">
        <ele>110</ele>
        <time>2013-01-13T13:15:11Z</time>
      </trkpt>
      <trkpt lat="44.72063" lon="-0.29341">
        <ele>110</ele>
        <time>2013-01-13T13:15:14Z</time>
      </trkpt>
      <trkpt lat="44.72057" lon="-0.29315">
        <ele>109</ele>
        <time>2013-01-13T13:15:18Z</time>
      </trkpt>
      <trkpt lat="44.72056" lon="-0.29309">
        <ele>109</ele>
        <time>2013-01-13T13:15:19Z</time>
      </trkpt>
      <trkpt lat="44.72055" lon="-0.29304">
        <ele>109</ele>
        <time>2013-01-13T13:15:20Z</time>
      </trkpt>
      <trkpt lat="44.72056" lon="-0.29298">
        <ele>109</ele>
        <time>2013-01-13T13:15:21Z</time>
      </trkpt>
      <trkpt lat="44.72058" lon="-0.29294">
        <ele>109</ele>
        <time>2013-01-13T13:15:22Z</time>
      </trkpt>
      <trkpt lat="44.72064" lon="-0.29292">
        <ele>109</ele>
        <time>2013-01-13T13:15:24Z</time>
      </trkpt>
      <trkpt lat="44.72092" lon="-0.29286">
        <ele>106</ele>
        <time>2013-01-13T13:15:32Z</time>
      </trkpt>
      <trkpt lat="44.72099" lon="-0.29284">
        <ele>105</ele>
        <time>2013-01-13T13:15:34Z</time>
      </trkpt>
      <trkpt lat="44.72105" lon="-0.29263">
        <ele>104</ele>
        <time>2013-01-13T13:15:40Z</time>
      </trkpt>
      <trkpt lat="44.72103" lon="-0.29221">
        <ele>103</ele>
        <time>2013-01-13T13:15:49Z</time>
      </trkpt>
      <trkpt lat="44.72102" lon="-0.29174">
        <ele>103</ele>
        <time>2013-01-13T13:15:58Z</time>
      </trkpt>
      <trkpt lat="44.72101" lon="-0.29135">
        <ele>104</ele>
        <time>2013-01-13T13:16:06Z</time>
      </trkpt>
      <trkpt lat="44.72101" lon="-0.29097">
        <ele>104</ele>
        <time>2013-01-13T13:16:14Z</time>
      </trkpt>
      <trkpt lat="44.72101" lon="-0.29061">
        <ele>104</ele>
        <time>2013-01-13T13:16:22Z</time>
      </trkpt>
      <trkpt lat="44.72099" lon="-0.29018">
        <ele>104</ele>
        <time>2013-01-13T13:16:31Z</time>
      </trkpt>
      <trkpt lat="44.72097" lon="-0.28986">
        <ele>105</ele>
        <time>2013-01-13T13:16:38Z</time>
      </trkpt>
      <trkpt lat="44.72097" lon="-0.28971">
        <ele>105</ele>
        <time>2013-01-13T13:16:42Z</time>
      </trkpt>
      <trkpt lat="44.72112" lon="-0.28964">
        <ele>104</ele>
        <time>2013-01-13T13:16:48Z</time>
      </trkpt>
      <trkpt lat="44.72136" lon="-0.2896">
        <ele>100</ele>
        <time>2013-01-13T13:16:56Z</time>
      </trkpt>
      <trkpt lat="44.72139" lon="-0.28959">
        <ele>100</ele>
        <time>2013-01-13T13:16:57Z</time>
      </trkpt>
      <trkpt lat="44.72142" lon="-0.28943">
        <ele>100</ele>
        <time>2013-01-13T13:17:02Z</time>
      </trkpt>
      <trkpt lat="44.72144" lon="-0.28923">
        <ele>100</ele>
        <time>2013-01-13T13:17:10Z</time>
      </trkpt>
      <trkpt lat="44.72144" lon="-0.28923">
        <ele>100</ele>
        <time>2013-01-13T13:17:19Z</time>
      </trkpt>
      <trkpt lat="44.72144" lon="-0.28922">
        <ele>100</ele>
        <time>2013-01-13T13:17:31Z</time>
      </trkpt>
      <trkpt lat="44.72143" lon="-0.28907">
        <ele>100</ele>
        <time>2013-01-13T13:17:39Z</time>
      </trkpt>
      <trkpt lat="44.72143" lon="-0.28902">
        <ele>100</ele>
        <time>2013-01-13T13:17:41Z</time>
      </trkpt>
      <trkpt lat="44.72142" lon="-0.28884">
        <ele>100</ele>
        <time>2013-01-13T13:17:48Z</time>
      </trkpt>
      <trkpt lat="44.72141" lon="-0.28864">
        <ele>99</ele>
        <time>2013-01-13T13:17:55Z</time>
      </trkpt>
      <trkpt lat="44.72141" lon="-0.28844">
        <ele>99</ele>
        <time>2013-01-13T13:18:02Z</time>
      </trkpt>
      <trkpt lat="44.72142" lon="-0.28819">
        <ele>99</ele>
        <time>2013-01-13T13:18:10Z</time>
      </trkpt>
      <trkpt lat="44.72142" lon="-0.28792">
        <ele>99</ele>
        <time>2013-01-13T13:18:19Z</time>
      </trkpt>
      <trkpt lat="44.72142" lon="-0.28771">
        <ele>99</ele>
        <time>2013-01-13T13:18:26Z</time>
      </trkpt>
      <trkpt lat="44.72141" lon="-0.28752">
        <ele>99</ele>
        <time>2013-01-13T13:18:33Z</time>
      </trkpt>
      <trkpt lat="44.72143" lon="-0.28744">
        <ele>99</ele>
        <time>2013-01-13T13:18:36Z</time>
      </trkpt>
      <trkpt lat="44.72143" lon="-0.28731">
        <ele>99</ele>
        <time>2013-01-13T13:18:42Z</time>
      </trkpt>
      <trkpt lat="44.72143" lon="-0.28719">
        <ele>99</ele>
        <time>2013-01-13T13:18:49Z</time>
      </trkpt>
      <trkpt lat="44.72144" lon="-0.28717">
        <ele>99</ele>
        <time>2013-01-13T13:18:55Z</time>
      </trkpt>
      <trkpt lat="44.72144" lon="-0.28706">
        <ele>99</ele>
        <time>2013-01-13T13:19:03Z</time>
      </trkpt>
      <trkpt lat="44.72145" lon="-0.28705">
        <ele>99</ele>
        <time>2013-01-13T13:19:06Z</time>
      </trkpt>
      <trkpt lat="44.72147" lon="-0.28698">
        <ele>99</ele>
        <time>2013-01-13T13:19:14Z</time>
      </trkpt>
      <trkpt lat="44.72148" lon="-0.28696">
        <ele>99</ele>
        <time>2013-01-13T13:19:19Z</time>
      </trkpt>
      <trkpt lat="44.72147" lon="-0.28694">
        <ele>99</ele>
        <time>2013-01-13T13:19:25Z</time>
      </trkpt>
      <trkpt lat="44.72147" lon="-0.28688">
        <ele>99</ele>
        <time>2013-01-13T13:19:31Z</time>
      </trkpt>
      <trkpt lat="44.72147" lon="-0.28678">
        <ele>99</ele>
        <time>2013-01-13T13:19:38Z</time>
      </trkpt>
      <trkpt lat="44.72146" lon="-0.2867">
        <ele>99</ele>
        <time>2013-01-13T13:19:44Z</time>
      </trkpt>
      <trkpt lat="44.72145" lon="-0.28661">
        <ele>99</ele>
        <time>2013-01-13T13:19:50Z</time>
      </trkpt>
      <trkpt lat="44.72148" lon="-0.28657">
        <ele>99</ele>
        <time>2013-01-13T13:19:56Z</time>
      </trkpt>
      <trkpt lat="44.72149" lon="-0.2865">
        <ele>98</ele>
        <time>2013-01-13T13:20:02Z</time>
      </trkpt>
      <trkpt lat="44.72149" lon="-0.28646">
        <ele>98</ele>
        <time>2013-01-13T13:20:05Z</time>
      </trkpt>
      <trkpt lat="44.72148" lon="-0.28636">
        <ele>98</ele>
        <time>2013-01-13T13:20:12Z</time>
      </trkpt>
      <trkpt lat="44.72149" lon="-0.28626">
        <ele>98</ele>
        <time>2013-01-13T13:20:20Z</time>
      </trkpt>
      <trkpt lat="44.72149" lon="-0.28616">
        <ele>98</ele>
        <time>2013-01-13T13:20:27Z</time>
      </trkpt>
      <trkpt lat="44.72149" lon="-0.28608">
        <ele>97</ele>
        <time>2013-01-13T13:20:35Z</time>
      </trkpt>
      <trkpt lat="44.72149" lon="-0.28601">
        <ele>97</ele>
        <time>2013-01-13T13:20:40Z</time>
      </trkpt>
      <trkpt lat="44.72149" lon="-0.28585">
        <ele>97</ele>
        <time>2013-01-13T13:20:47Z</time>
      </trkpt>
      <trkpt lat="44.72149" lon="-0.28574">
        <ele>97</ele>
        <time>2013-01-13T13:20:53Z</time>
      </trkpt>
      <trkpt lat="44.72149" lon="-0.28558">
        <ele>96</ele>
        <time>2013-01-13T13:20:59Z</time>
      </trkpt>
      <trkpt lat="44.72149" lon="-0.28537">
        <ele>96</ele>
        <time>2013-01-13T13:21:07Z</time>
      </trkpt>
      <trkpt lat="44.72149" lon="-0.28518">
        <ele>96</ele>
        <time>2013-01-13T13:21:14Z</time>
      </trkpt>
      <trkpt lat="44.72148" lon="-0.28503">
        <ele>96</ele>
        <time>2013-01-13T13:21:20Z</time>
      </trkpt>
      <trkpt lat="44.72142" lon="-0.28478">
        <ele>96</ele>
        <time>2013-01-13T13:21:28Z</time>
      </trkpt>
      <trkpt lat="44.72139" lon="-0.28469">
        <ele>97</ele>
        <time>2013-01-13T13:21:32Z</time>
      </trkpt>
      <trkpt lat="44.72134" lon="-0.28452">
        <ele>98</ele>
        <time>2013-01-13T13:21:39Z</time>
      </trkpt>
      <trkpt lat="44.72129" lon="-0.28434">
        <ele>98</ele>
        <time>2013-01-13T13:21:47Z</time>
      </trkpt>
      <trkpt lat="44.72123" lon="-0.28419">
        <ele>99</ele>
        <time>2013-01-13T13:21:54Z</time>
      </trkpt>
      <trkpt lat="44.72118" lon="-0.28405">
        <ele>100</ele>
        <time>2013-01-13T13:22:01Z</time>
      </trkpt>
      <trkpt lat="44.72115" lon="-0.28388">
        <ele>101</ele>
        <time>2013-01-13T13:22:09Z</time>
      </trkpt>
      <trkpt lat="44.72112" lon="-0.28374">
        <ele>102</ele>
        <time>2013-01-13T13:22:16Z</time>
      </trkpt>
      <trkpt lat="44.72108" lon="-0.28353">
        <ele>103</ele>
        <time>2013-01-13T13:22:26Z</time>
      </trkpt>
      <trkpt lat="44.72107" lon="-0.28345">
        <ele>103</ele>
        <time>2013-01-13T13:22:30Z</time>
      </trkpt>
      <trkpt lat="44.72103" lon="-0.28328">
        <ele>104</ele>
        <time>2013-01-13T13:22:39Z</time>
      </trkpt>
      <trkpt lat="44.72098" lon="-0.28313">
        <ele>104</ele>
        <time>2013-01-13T13:22:47Z</time>
      </trkpt>
      <trkpt lat="44.72096" lon="-0.28309">
        <ele>105</ele>
        <time>2013-01-13T13:22:49Z</time>
      </trkpt>
      <trkpt lat="44.72087" lon="-0.28312">
        <ele>105</ele>
        <time>2013-01-13T13:22:55Z</time>
      </trkpt>
      <trkpt lat="44.72081" lon="-0.28316">
        <ele>106</ele>
        <time>2013-01-13T13:22:59Z</time>
      </trkpt>
      <trkpt lat="44.72072" lon="-0.2832">
        <ele>106</ele>
        <time>2013-01-13T13:23:04Z</time>
      </trkpt>
      <trkpt lat="44.72063" lon="-0.28315">
        <ele>106</ele>
        <time>2013-01-13T13:23:09Z</time>
      </trkpt>
      <trkpt lat="44.72057" lon="-0.28319">
        <ele>106</ele>
        <time>2013-01-13T13:23:14Z</time>
      </trkpt>
      <trkpt lat="44.72051" lon="-0.2832">
        <ele>106</ele>
        <time>2013-01-13T13:23:21Z</time>
      </trkpt>
      <trkpt lat="44.72051" lon="-0.2832">
        <ele>106</ele>
        <time>2013-01-13T13:23:33Z</time>
      </trkpt>
      <trkpt lat="44.72052" lon="-0.2832">
        <ele>106</ele>
        <time>2013-01-13T13:23:45Z</time>
      </trkpt>
      <trkpt lat="44.72052" lon="-0.28319">
        <ele>106</ele>
        <time>2013-01-13T13:23:53Z</time>
      </trkpt>
      <trkpt lat="44.7205" lon="-0.28321">
        <ele>106</ele>
        <time>2013-01-13T13:23:56Z</time>
      </trkpt>
      <trkpt lat="44.72034" lon="-0.28325">
        <ele>106</ele>
        <time>2013-01-13T13:24:05Z</time>
      </trkpt>
      <trkpt lat="44.72019" lon="-0.2833">
        <ele>104</ele>
        <time>2013-01-13T13:24:14Z</time>
      </trkpt>
      <trkpt lat="44.72007" lon="-0.28333">
        <ele>103</ele>
        <time>2013-01-13T13:24:21Z</time>
      </trkpt>
      <trkpt lat="44.71998" lon="-0.2832">
        <ele>102</ele>
        <time>2013-01-13T13:24:27Z</time>
      </trkpt>
      <trkpt lat="44.71997" lon="-0.28318">
        <ele>102</ele>
        <time>2013-01-13T13:24:28Z</time>
      </trkpt>
      <trkpt lat="44.71982" lon="-0.28285">
        <ele>100</ele>
        <time>2013-01-13T13:24:39Z</time>
      </trkpt>
      <trkpt lat="44.71972" lon="-0.28264">
        <ele>99</ele>
        <time>2013-01-13T13:24:46Z</time>
      </trkpt>
      <trkpt lat="44.71958" lon="-0.28235">
        <ele>98</ele>
        <time>2013-01-13T13:24:54Z</time>
      </trkpt>
      <trkpt lat="44.71943" lon="-0.28198">
        <ele>97</ele>
        <time>2013-01-13T13:25:03Z</time>
      </trkpt>
      <trkpt lat="44.71932" lon="-0.28175">
        <ele>96</ele>
        <time>2013-01-13T13:25:09Z</time>
      </trkpt>
      <trkpt lat="44.71921" lon="-0.28147">
        <ele>95</ele>
        <time>2013-01-13T13:25:16Z</time>
      </trkpt>
      <trkpt lat="44.71903" lon="-0.2811">
        <ele>93</ele>
        <time>2013-01-13T13:25:25Z</time>
      </trkpt>
      <trkpt lat="44.71889" lon="-0.2808">
        <ele>92</ele>
        <time>2013-01-13T13:25:32Z</time>
      </trkpt>
      <trkpt lat="44.71878" lon="-0.28055">
        <ele>90</ele>
        <time>2013-01-13T13:25:37Z</time>
      </trkpt>
      <trkpt lat="44.71865" lon="-0.28021">
        <ele>87</ele>
        <time>2013-01-13T13:25:45Z</time>
      </trkpt>
      <trkpt lat="44.71857" lon="-0.28017">
        <ele>86</ele>
        <time>2013-01-13T13:25:49Z</time>
      </trkpt>
      <trkpt lat="44.71837" lon="-0.28032">
        <ele>85</ele>
        <time>2013-01-13T13:25:57Z</time>
      </trkpt>
      <trkpt lat="44.71807" lon="-0.28057">
        <ele>83</ele>
        <time>2013-01-13T13:26:07Z</time>
      </trkpt>
      <trkpt lat="44.71793" lon="-0.28073">
        <ele>82</ele>
        <time>2013-01-13T13:26:12Z</time>
      </trkpt>
      <trkpt lat="44.71761" lon="-0.281">
        <ele>79</ele>
        <time>2013-01-13T13:26:21Z</time>
      </trkpt>
      <trkpt lat="44.71754" lon="-0.28107">
        <ele>78</ele>
        <time>2013-01-13T13:26:24Z</time>
      </trkpt>
      <trkpt lat="44.71747" lon="-0.28108">
        <ele>78</ele>
        <time>2013-01-13T13:26:28Z</time>
      </trkpt>
      <trkpt lat="44.71743" lon="-0.28092">
        <ele>77</ele>
        <time>2013-01-13T13:26:33Z</time>
      </trkpt>
      <trkpt lat="44.71744" lon="-0.28056">
        <ele>77</ele>
        <time>2013-01-13T13:26:41Z</time>
      </trkpt>
      <trkpt lat="44.71745" lon="-0.28026">
        <ele>76</ele>
        <time>2013-01-13T13:26:49Z</time>
      </trkpt>
      <trkpt lat="44.71747" lon="-0.27994">
        <ele>76</ele>
        <time>2013-01-13T13:26:58Z</time>
      </trkpt>
      <trkpt lat="44.7175" lon="-0.27964">
        <ele>76</ele>
        <time>2013-01-13T13:27:07Z</time>
      </trkpt>
      <trkpt lat="44.71755" lon="-0.27943">
        <ele>76</ele>
        <time>2013-01-13T13:27:14Z</time>
      </trkpt>
      <trkpt lat="44.71765" lon="-0.27935">
        <ele>77</ele>
        <time>2013-01-13T13:27:22Z</time>
      </trkpt>
      <trkpt lat="44.71778" lon="-0.27923">
        <ele>79</ele>
        <time>2013-01-13T13:27:31Z</time>
      </trkpt>
      <trkpt lat="44.71787" lon="-0.27915">
        <ele>79</ele>
        <time>2013-01-13T13:27:38Z</time>
      </trkpt>
      <trkpt lat="44.71796" lon="-0.27906">
        <ele>80</ele>
        <time>2013-01-13T13:27:45Z</time>
      </trkpt>
      <trkpt lat="44.71812" lon="-0.27892">
        <ele>81</ele>
        <time>2013-01-13T13:27:55Z</time>
      </trkpt>
      <trkpt lat="44.71825" lon="-0.2788">
        <ele>83</ele>
        <time>2013-01-13T13:28:04Z</time>
      </trkpt>
      <trkpt lat="44.71834" lon="-0.27872">
        <ele>84</ele>
        <time>2013-01-13T13:28:10Z</time>
      </trkpt>
      <trkpt lat="44.71844" lon="-0.27863">
        <ele>85</ele>
        <time>2013-01-13T13:28:18Z</time>
      </trkpt>
      <trkpt lat="44.71845" lon="-0.27862">
        <ele>85</ele>
        <time>2013-01-13T13:28:19Z</time>
      </trkpt>
      <trkpt lat="44.71858" lon="-0.27851">
        <ele>86</ele>
        <time>2013-01-13T13:28:29Z</time>
      </trkpt>
      <trkpt lat="44.71867" lon="-0.27843">
        <ele>87</ele>
        <time>2013-01-13T13:28:37Z</time>
      </trkpt>
      <trkpt lat="44.7187" lon="-0.27839">
        <ele>87</ele>
        <time>2013-01-13T13:28:40Z</time>
      </trkpt>
      <trkpt lat="44.71873" lon="-0.27837">
        <ele>87</ele>
        <time>2013-01-13T13:28:43Z</time>
      </trkpt>
      <trkpt lat="44.71883" lon="-0.27828">
        <ele>88</ele>
        <time>2013-01-13T13:28:52Z</time>
      </trkpt>
      <trkpt lat="44.71886" lon="-0.27825">
        <ele>89</ele>
        <time>2013-01-13T13:28:56Z</time>
      </trkpt>
      <trkpt lat="44.71885" lon="-0.27814">
        <ele>89</ele>
        <time>2013-01-13T13:29:02Z</time>
      </trkpt>
      <trkpt lat="44.71881" lon="-0.27798">
        <ele>89</ele>
        <time>2013-01-13T13:29:11Z</time>
      </trkpt>
      <trkpt lat="44.71878" lon="-0.27789">
        <ele>89</ele>
        <time>2013-01-13T13:29:16Z</time>
      </trkpt>
      <trkpt lat="44.71873" lon="-0.2778">
        <ele>89</ele>
        <time>2013-01-13T13:29:24Z</time>
      </trkpt>
      <trkpt lat="44.71873" lon="-0.27779">
        <ele>89</ele>
        <time>2013-01-13T13:29:30Z</time>
      </trkpt>
      <trkpt lat="44.71872" lon="-0.27777">
        <ele>89</ele>
        <time>2013-01-13T13:29:34Z</time>
      </trkpt>
      <trkpt lat="44.71871" lon="-0.27772">
        <ele>89</ele>
        <time>2013-01-13T13:29:39Z</time>
      </trkpt>
      <trkpt lat="44.71868" lon="-0.27763">
        <ele>89</ele>
        <time>2013-01-13T13:29:48Z</time>
      </trkpt>
      <trkpt lat="44.71868" lon="-0.27762">
        <ele>89</ele>
        <time>2013-01-13T13:29:55Z</time>
      </trkpt>
      <trkpt lat="44.71867" lon="-0.2776">
        <ele>89</ele>
        <time>2013-01-13T13:29:56Z</time>
      </trkpt>
      <trkpt lat="44.71864" lon="-0.27749">
        <ele>89</ele>
        <time>2013-01-13T13:30:02Z</time>
      </trkpt>
      <trkpt lat="44.71863" lon="-0.27748">
        <ele>89</ele>
        <time>2013-01-13T13:30:03Z</time>
      </trkpt>
      <trkpt lat="44.71857" lon="-0.27729">
        <ele>88</ele>
        <time>2013-01-13T13:30:11Z</time>
      </trkpt>
      <trkpt lat="44.71854" lon="-0.27718">
        <ele>88</ele>
        <time>2013-01-13T13:30:14Z</time>
      </trkpt>
      <trkpt lat="44.71847" lon="-0.27693">
        <ele>88</ele>
        <time>2013-01-13T13:30:22Z</time>
      </trkpt>
      <trkpt lat="44.71839" lon="-0.27669">
        <ele>87</ele>
        <time>2013-01-13T13:30:29Z</time>
      </trkpt>
      <trkpt lat="44.71833" lon="-0.27655">
        <ele>86</ele>
        <time>2013-01-13T13:30:34Z</time>
      </trkpt>
      <trkpt lat="44.71827" lon="-0.27639">
        <ele>86</ele>
        <time>2013-01-13T13:30:39Z</time>
      </trkpt>
      <trkpt lat="44.71818" lon="-0.27609">
        <ele>85</ele>
        <time>2013-01-13T13:30:48Z</time>
      </trkpt>
      <trkpt lat="44.71813" lon="-0.27582">
        <ele>84</ele>
        <time>2013-01-13T13:30:56Z</time>
      </trkpt>
      <trkpt lat="44.71805" lon="-0.27561">
        <ele>84</ele>
        <time>2013-01-13T13:31:03Z</time>
      </trkpt>
      <trkpt lat="44.71795" lon="-0.27535">
        <ele>83</ele>
        <time>2013-01-13T13:31:12Z</time>
      </trkpt>
      <trkpt lat="44.71786" lon="-0.27506">
        <ele>83</ele>
        <time>2013-01-13T13:31:21Z</time>
      </trkpt>
      <trkpt lat="44.71776" lon="-0.27479">
        <ele>82</ele>
        <time>2013-01-13T13:31:30Z</time>
      </trkpt>
      <trkpt lat="44.71769" lon="-0.27468">
        <ele>82</ele>
        <time>2013-01-13T13:31:36Z</time>
      </trkpt>
      <trkpt lat="44.71764" lon="-0.27448">
        <ele>82</ele>
        <time>2013-01-13T13:31:45Z</time>
      </trkpt>
      <trkpt lat="44.71764" lon="-0.27443">
        <ele>81</ele>
        <time>2013-01-13T13:31:51Z</time>
      </trkpt>
      <trkpt lat="44.71766" lon="-0.27441">
        <ele>81</ele>
        <time>2013-01-13T13:31:57Z</time>
      </trkpt>
      <trkpt lat="44.71768" lon="-0.27434">
        <ele>81</ele>
        <time>2013-01-13T13:32:04Z</time>
      </trkpt>
      <trkpt lat="44.71768" lon="-0.27433">
        <ele>81</ele>
        <time>2013-01-13T13:32:15Z</time>
      </trkpt>
      <trkpt lat="44.71768" lon="-0.27433">
        <ele>81</ele>
        <time>2013-01-13T13:32:21Z</time>
      </trkpt>
      <trkpt lat="44.71767" lon="-0.27433">
        <ele>81</ele>
        <time>2013-01-13T13:32:27Z</time>
      </trkpt>
      <trkpt lat="44.71766" lon="-0.27434">
        <ele>81</ele>
        <time>2013-01-13T13:32:34Z</time>
      </trkpt>
      <trkpt lat="44.71762" lon="-0.27435">
        <ele>81</ele>
        <time>2013-01-13T13:32:41Z</time>
      </trkpt>
      <trkpt lat="44.71762" lon="-0.27434">
        <ele>81</ele>
        <time>2013-01-13T13:32:43Z</time>
      </trkpt>
      <trkpt lat="44.71761" lon="-0.27432">
        <ele>81</ele>
        <time>2013-01-13T13:32:49Z</time>
      </trkpt>
      <trkpt lat="44.7176" lon="-0.27429">
        <ele>81</ele>
        <time>2013-01-13T13:32:54Z</time>
      </trkpt>
      <trkpt lat="44.71758" lon="-0.27421">
        <ele>80</ele>
        <time>2013-01-13T13:33:00Z</time>
      </trkpt>
      <trkpt lat="44.71755" lon="-0.27407">
        <ele>80</ele>
        <time>2013-01-13T13:33:06Z</time>
      </trkpt>
      <trkpt lat="44.71751" lon="-0.27389">
        <ele>80</ele>
        <time>2013-01-13T13:33:13Z</time>
      </trkpt>
      <trkpt lat="44.71749" lon="-0.27382">
        <ele>79</ele>
        <time>2013-01-13T13:33:17Z</time>
      </trkpt>
      <trkpt lat="44.71746" lon="-0.2737">
        <ele>79</ele>
        <time>2013-01-13T13:33:25Z</time>
      </trkpt>
      <trkpt lat="44.71743" lon="-0.27356">
        <ele>79</ele>
        <time>2013-01-13T13:33:31Z</time>
      </trkpt>
      <trkpt lat="44.7174" lon="-0.27337">
        <ele>79</ele>
        <time>2013-01-13T13:33:41Z</time>
      </trkpt>
      <trkpt lat="44.71737" lon="-0.27321">
        <ele>79</ele>
        <time>2013-01-13T13:33:48Z</time>
      </trkpt>
      <trkpt lat="44.71736" lon="-0.27319">
        <ele>78</ele>
        <time>2013-01-13T13:33:49Z</time>
      </trkpt>
      <trkpt lat="44.71734" lon="-0.27313">
        <ele>78</ele>
        <time>2013-01-13T13:33:53Z</time>
      </trkpt>
      <trkpt lat="44.71731" lon="-0.2731">
        <ele>78</ele>
        <time>2013-01-13T13:33:55Z</time>
      </trkpt>
      <trkpt lat="44.71731" lon="-0.27303">
        <ele>78</ele>
        <time>2013-01-13T13:33:59Z</time>
      </trkpt>
      <trkpt lat="44.71752" lon="-0.27298">
        <ele>77</ele>
        <time>2013-01-13T13:34:06Z</time>
      </trkpt>
      <trkpt lat="44.71791" lon="-0.27284">
        <ele>74</ele>
        <time>2013-01-13T13:34:14Z</time>
      </trkpt>
      <trkpt lat="44.71796" lon="-0.27281">
        <ele>75</ele>
        <time>2013-01-13T13:34:15Z</time>
      </trkpt>
      <trkpt lat="44.71813" lon="-0.27264">
        <ele>76</ele>
        <time>2013-01-13T13:34:19Z</time>
      </trkpt>
      <trkpt lat="44.71839" lon="-0.27233">
        <ele>77</ele>
        <time>2013-01-13T13:34:28Z</time>
      </trkpt>
      <trkpt lat="44.71845" lon="-0.27231">
        <ele>77</ele>
        <time>2013-01-13T13:34:30Z</time>
      </trkpt>
      <trkpt lat="44.71848" lon="-0.27232">
        <ele>77</ele>
        <time>2013-01-13T13:34:31Z</time>
      </trkpt>
      <trkpt lat="44.7185" lon="-0.27234">
        <ele>77</ele>
        <time>2013-01-13T13:34:32Z</time>
      </trkpt>
      <trkpt lat="44.71851" lon="-0.27237">
        <ele>77</ele>
        <time>2013-01-13T13:34:33Z</time>
      </trkpt>
      <trkpt lat="44.71853" lon="-0.2724">
        <ele>77</ele>
        <time>2013-01-13T13:34:34Z</time>
      </trkpt>
      <trkpt lat="44.71853" lon="-0.27243">
        <ele>77</ele>
        <time>2013-01-13T13:34:35Z</time>
      </trkpt>
      <trkpt lat="44.71852" lon="-0.27247">
        <ele>77</ele>
        <time>2013-01-13T13:34:36Z</time>
      </trkpt>
      <trkpt lat="44.71856" lon="-0.27272">
        <ele>78</ele>
        <time>2013-01-13T13:34:44Z</time>
      </trkpt>
      <trkpt lat="44.71865" lon="-0.27291">
        <ele>79</ele>
        <time>2013-01-13T13:34:52Z</time>
      </trkpt>
      <trkpt lat="44.71866" lon="-0.27292">
        <ele>80</ele>
        <time>2013-01-13T13:34:53Z</time>
      </trkpt>
      <trkpt lat="44.71868" lon="-0.27293">
        <ele>80</ele>
        <time>2013-01-13T13:34:54Z</time>
      </trkpt>
      <trkpt lat="44.71881" lon="-0.27291">
        <ele>80</ele>
        <time>2013-01-13T13:35:02Z</time>
      </trkpt>
      <trkpt lat="44.71896" lon="-0.27285">
        <ele>79</ele>
        <time>2013-01-13T13:35:10Z</time>
      </trkpt>
      <trkpt lat="44.71914" lon="-0.27279">
        <ele>78</ele>
        <time>2013-01-13T13:35:17Z</time>
      </trkpt>
      <trkpt lat="44.71937" lon="-0.27269">
        <ele>76</ele>
        <time>2013-01-13T13:35:26Z</time>
      </trkpt>
      <trkpt lat="44.71951" lon="-0.2727">
        <ele>75</ele>
        <time>2013-01-13T13:35:33Z</time>
      </trkpt>
      <trkpt lat="44.71955" lon="-0.27271">
        <ele>75</ele>
        <time>2013-01-13T13:35:35Z</time>
      </trkpt>
      <trkpt lat="44.71958" lon="-0.27283">
        <ele>75</ele>
        <time>2013-01-13T13:35:41Z</time>
      </trkpt>
      <trkpt lat="44.71958" lon="-0.27288">
        <ele>76</ele>
        <time>2013-01-13T13:35:43Z</time>
      </trkpt>
      <trkpt lat="44.71958" lon="-0.2731">
        <ele>77</ele>
        <time>2013-01-13T13:35:52Z</time>
      </trkpt>
      <trkpt lat="44.71961" lon="-0.27323">
        <ele>78</ele>
        <time>2013-01-13T13:35:58Z</time>
      </trkpt>
      <trkpt lat="44.71969" lon="-0.27324">
        <ele>78</ele>
        <time>2013-01-13T13:36:03Z</time>
      </trkpt>
      <trkpt lat="44.7199" lon="-0.27322">
        <ele>76</ele>
        <time>2013-01-13T13:36:13Z</time>
      </trkpt>
      <trkpt lat="44.72009" lon="-0.27321">
        <ele>75</ele>
        <time>2013-01-13T13:36:23Z</time>
      </trkpt>
      <trkpt lat="44.72027" lon="-0.27319">
        <ele>73</ele>
        <time>2013-01-13T13:36:30Z</time>
      </trkpt>
      <trkpt lat="44.72048" lon="-0.27319">
        <ele>71</ele>
        <time>2013-01-13T13:36:38Z</time>
      </trkpt>
      <trkpt lat="44.72064" lon="-0.27318">
        <ele>71</ele>
        <time>2013-01-13T13:36:44Z</time>
      </trkpt>
      <trkpt lat="44.72076" lon="-0.27317">
        <ele>73</ele>
        <time>2013-01-13T13:36:51Z</time>
      </trkpt>
      <trkpt lat="44.72084" lon="-0.27318">
        <ele>74</ele>
        <time>2013-01-13T13:36:56Z</time>
      </trkpt>
      <trkpt lat="44.72096" lon="-0.27317">
        <ele>76</ele>
        <time>2013-01-13T13:37:04Z</time>
      </trkpt>
      <trkpt lat="44.7211" lon="-0.27318">
        <ele>78</ele>
        <time>2013-01-13T13:37:13Z</time>
      </trkpt>
      <trkpt lat="44.72123" lon="-0.27317">
        <ele>78</ele>
        <time>2013-01-13T13:37:22Z</time>
      </trkpt>
      <trkpt lat="44.72134" lon="-0.27317">
        <ele>79</ele>
        <time>2013-01-13T13:37:29Z</time>
      </trkpt>
      <trkpt lat="44.72144" lon="-0.27319">
        <ele>79</ele>
        <time>2013-01-13T13:37:35Z</time>
      </trkpt>
      <trkpt lat="44.72158" lon="-0.27322">
        <ele>80</ele>
        <time>2013-01-13T13:37:44Z</time>
      </trkpt>
      <trkpt lat="44.72166" lon="-0.2733">
        <ele>80</ele>
        <time>2013-01-13T13:37:51Z</time>
      </trkpt>
      <trkpt lat="44.72178" lon="-0.27336">
        <ele>80</ele>
        <time>2013-01-13T13:37:59Z</time>
      </trkpt>
      <trkpt lat="44.72179" lon="-0.27337">
        <ele>80</ele>
        <time>2013-01-13T13:38:00Z</time>
      </trkpt>
      <trkpt lat="44.72185" lon="-0.27329">
        <ele>80</ele>
        <time>2013-01-13T13:38:07Z</time>
      </trkpt>
      <trkpt lat="44.72192" lon="-0.27333">
        <ele>80</ele>
        <time>2013-01-13T13:38:12Z</time>
      </trkpt>
      <trkpt lat="44.72192" lon="-0.27335">
        <ele>80</ele>
        <time>2013-01-13T13:38:13Z</time>
      </trkpt>
      <trkpt lat="44.72192" lon="-0.27351">
        <ele>80</ele>
        <time>2013-01-13T13:38:22Z</time>
      </trkpt>
      <trkpt lat="44.72194" lon="-0.27353">
        <ele>80</ele>
        <time>2013-01-13T13:38:25Z</time>
      </trkpt>
      <trkpt lat="44.72199" lon="-0.27353">
        <ele>80</ele>
        <time>2013-01-13T13:38:29Z</time>
      </trkpt>
      <trkpt lat="44.72201" lon="-0.27355">
        <ele>80</ele>
        <time>2013-01-13T13:38:31Z</time>
      </trkpt>
      <trkpt lat="44.72208" lon="-0.27356">
        <ele>80</ele>
        <time>2013-01-13T13:38:38Z</time>
      </trkpt>
      <trkpt lat="44.7221" lon="-0.27355">
        <ele>80</ele>
        <time>2013-01-13T13:38:48Z</time>
      </trkpt>
      <trkpt lat="44.7221" lon="-0.27356">
        <ele>80</ele>
        <time>2013-01-13T13:39:03Z</time>
      </trkpt>
      <trkpt lat="44.72211" lon="-0.27355">
        <ele>80</ele>
        <time>2013-01-13T13:39:13Z</time>
      </trkpt>
      <trkpt lat="44.72215" lon="-0.27353">
        <ele>80</ele>
        <time>2013-01-13T13:39:20Z</time>
      </trkpt>
      <trkpt lat="44.7222" lon="-0.27349">
        <ele>80</ele>
        <time>2013-01-13T13:39:27Z</time>
      </trkpt>
      <trkpt lat="44.72233" lon="-0.27346">
        <ele>80</ele>
        <time>2013-01-13T13:39:34Z</time>
      </trkpt>
      <trkpt lat="44.72251" lon="-0.27345">
        <ele>79</ele>
        <time>2013-01-13T13:39:41Z</time>
      </trkpt>
      <trkpt lat="44.72268" lon="-0.27344">
        <ele>79</ele>
        <time>2013-01-13T13:39:47Z</time>
      </trkpt>
      <trkpt lat="44.7229" lon="-0.27344">
        <ele>78</ele>
        <time>2013-01-13T13:39:54Z</time>
      </trkpt>
      <trkpt lat="44.72315" lon="-0.27345">
        <ele>77</ele>
        <time>2013-01-13T13:40:01Z</time>
      </trkpt>
      <trkpt lat="44.72349" lon="-0.27351">
        <ele>75</ele>
        <time>2013-01-13T13:40:11Z</time>
      </trkpt>
      <trkpt lat="44.72375" lon="-0.27358">
        <ele>74</ele>
        <time>2013-01-13T13:40:19Z</time>
      </trkpt>
      <trkpt lat="44.72395" lon="-0.27365">
        <ele>73</ele>
        <time>2013-01-13T13:40:25Z</time>
      </trkpt>
      <trkpt lat="44.72416" lon="-0.27369">
        <ele>72</ele>
        <time>2013-01-13T13:40:31Z</time>
      </trkpt>
      <trkpt lat="44.72436" lon="-0.27376">
        <ele>72</ele>
        <time>2013-01-13T13:40:37Z</time>
      </trkpt>
      <trkpt lat="44.72447" lon="-0.27378">
        <ele>71</ele>
        <time>2013-01-13T13:40:41Z</time>
      </trkpt>
      <trkpt lat="44.72468" lon="-0.27382">
        <ele>70</ele>
        <time>2013-01-13T13:40:48Z</time>
      </trkpt>
      <trkpt lat="44.72486" lon="-0.27384">
        <ele>69</ele>
        <time>2013-01-13T13:40:54Z</time>
      </trkpt>
      <trkpt lat="44.72503" lon="-0.27388">
        <ele>69</ele>
        <time>2013-01-13T13:41:00Z</time>
      </trkpt>
      <trkpt lat="44.72517" lon="-0.2739">
        <ele>68</ele>
        <time>2013-01-13T13:41:07Z</time>
      </trkpt>
      <trkpt lat="44.72526" lon="-0.27392">
        <ele>67</ele>
        <time>2013-01-13T13:41:13Z</time>
      </trkpt>
      <trkpt lat="44.72532" lon="-0.27392">
        <ele>67</ele>
        <time>2013-01-13T13:41:17Z</time>
      </trkpt>
      <trkpt lat="44.72544" lon="-0.27391">
        <ele>66</ele>
        <time>2013-01-13T13:41:23Z</time>
      </trkpt>
      <trkpt lat="44.72548" lon="-0.2739">
        <ele>66</ele>
        <time>2013-01-13T13:41:25Z</time>
      </trkpt>
      <trkpt lat="44.72564" lon="-0.2739">
        <ele>65</ele>
        <time>2013-01-13T13:41:32Z</time>
      </trkpt>
      <trkpt lat="44.72576" lon="-0.2739">
        <ele>64</ele>
        <time>2013-01-13T13:41:36Z</time>
      </trkpt>
      <trkpt lat="44.72595" lon="-0.27391">
        <ele>62</ele>
        <time>2013-01-13T13:41:42Z</time>
      </trkpt>
      <trkpt lat="44.72598" lon="-0.27391">
        <ele>62</ele>
        <time>2013-01-13T13:41:43Z</time>
      </trkpt>
      <trkpt lat="44.72615" lon="-0.27391">
        <ele>61</ele>
        <time>2013-01-13T13:41:49Z</time>
      </trkpt>
      <trkpt lat="44.72639" lon="-0.27391">
        <ele>59</ele>
        <time>2013-01-13T13:41:56Z</time>
      </trkpt>
      <trkpt lat="44.72652" lon="-0.2739">
        <ele>59</ele>
        <time>2013-01-13T13:42:00Z</time>
      </trkpt>
      <trkpt lat="44.72673" lon="-0.27393">
        <ele>58</ele>
        <time>2013-01-13T13:42:06Z</time>
      </trkpt>
      <trkpt lat="44.7269" lon="-0.27392">
        <ele>57</ele>
        <time>2013-01-13T13:42:11Z</time>
      </trkpt>
      <trkpt lat="44.72701" lon="-0.27388">
        <ele>56</ele>
        <time>2013-01-13T13:42:16Z</time>
      </trkpt>
      <trkpt lat="44.72705" lon="-0.27388">
        <ele>56</ele>
        <time>2013-01-13T13:42:18Z</time>
      </trkpt>
      <trkpt lat="44.7272" lon="-0.2739">
        <ele>55</ele>
        <time>2013-01-13T13:42:25Z</time>
      </trkpt>
      <trkpt lat="44.72728" lon="-0.2739">
        <ele>54</ele>
        <time>2013-01-13T13:42:31Z</time>
      </trkpt>
      <trkpt lat="44.7273" lon="-0.2739">
        <ele>54</ele>
        <time>2013-01-13T13:42:40Z</time>
      </trkpt>
      <trkpt lat="44.72732" lon="-0.27391">
        <ele>54</ele>
        <time>2013-01-13T13:42:49Z</time>
      </trkpt>
      <trkpt lat="44.72734" lon="-0.27392">
        <ele>54</ele>
        <time>2013-01-13T13:42:57Z</time>
      </trkpt>
      <trkpt lat="44.72738" lon="-0.27394">
        <ele>54</ele>
        <time>2013-01-13T13:43:13Z</time>
      </trkpt>
      <trkpt lat="44.72738" lon="-0.27394">
        <ele>54</ele>
        <time>2013-01-13T13:43:27Z</time>
      </trkpt>
      <trkpt lat="44.72739" lon="-0.27394">
        <ele>54</ele>
        <time>2013-01-13T13:43:38Z</time>
      </trkpt>
      <trkpt lat="44.72739" lon="-0.27395">
        <ele>54</ele>
        <time>2013-01-13T13:43:46Z</time>
      </trkpt>
      <trkpt lat="44.72739" lon="-0.27395">
        <ele>54</ele>
        <time>2013-01-13T13:43:52Z</time>
      </trkpt>
      <trkpt lat="44.72739" lon="-0.27395">
        <ele>54</ele>
        <time>2013-01-13T13:43:59Z</time>
      </trkpt>
      <trkpt lat="44.7274" lon="-0.27395">
        <ele>54</ele>
        <time>2013-01-13T13:44:07Z</time>
      </trkpt>
      <trkpt lat="44.72741" lon="-0.27394">
        <ele>54</ele>
        <time>2013-01-13T13:44:16Z</time>
      </trkpt>
      <trkpt lat="44.72741" lon="-0.27396">
        <ele>54</ele>
        <time>2013-01-13T13:44:23Z</time>
      </trkpt>
      <trkpt lat="44.72742" lon="-0.27395">
        <ele>54</ele>
        <time>2013-01-13T13:44:32Z</time>
      </trkpt>
      <trkpt lat="44.72743" lon="-0.27395">
        <ele>54</ele>
        <time>2013-01-13T13:44:40Z</time>
      </trkpt>
      <trkpt lat="44.72744" lon="-0.27395">
        <ele>54</ele>
        <time>2013-01-13T13:44:47Z</time>
      </trkpt>
      <trkpt lat="44.72745" lon="-0.27392">
        <ele>54</ele>
        <time>2013-01-13T13:44:54Z</time>
      </trkpt>
      <trkpt lat="44.72747" lon="-0.27391">
        <ele>54</ele>
        <time>2013-01-13T13:45:00Z</time>
      </trkpt>
      <trkpt lat="44.7275" lon="-0.27391">
        <ele>55</ele>
        <time>2013-01-13T13:45:15Z</time>
      </trkpt>
      <trkpt lat="44.72751" lon="-0.27391">
        <ele>55</ele>
        <time>2013-01-13T13:45:30Z</time>
      </trkpt>
      <trkpt lat="44.72752" lon="-0.27391">
        <ele>55</ele>
        <time>2013-01-13T13:45:44Z</time>
      </trkpt>
      <trkpt lat="44.72752" lon="-0.2739">
        <ele>55</ele>
        <time>2013-01-13T13:46:03Z</time>
      </trkpt>
      <trkpt lat="44.72754" lon="-0.27389">
        <ele>55</ele>
        <time>2013-01-13T13:46:09Z</time>
      </trkpt>
      <trkpt lat="44.72757" lon="-0.27388">
        <ele>55</ele>
        <time>2013-01-13T13:46:16Z</time>
      </trkpt>
      <trkpt lat="44.72763" lon="-0.27388">
        <ele>55</ele>
        <time>2013-01-13T13:46:23Z</time>
      </trkpt>
      <trkpt lat="44.72766" lon="-0.2739">
        <ele>55</ele>
        <time>2013-01-13T13:46:30Z</time>
      </trkpt>
      <trkpt lat="44.72769" lon="-0.2739">
        <ele>55</ele>
        <time>2013-01-13T13:46:36Z</time>
      </trkpt>
      <trkpt lat="44.7278" lon="-0.27392">
        <ele>56</ele>
        <time>2013-01-13T13:46:46Z</time>
      </trkpt>
      <trkpt lat="44.72789" lon="-0.27395">
        <ele>56</ele>
        <time>2013-01-13T13:46:54Z</time>
      </trkpt>
      <trkpt lat="44.72794" lon="-0.27397">
        <ele>56</ele>
        <time>2013-01-13T13:47:01Z</time>
      </trkpt>
      <trkpt lat="44.72799" lon="-0.27398">
        <ele>57</ele>
        <time>2013-01-13T13:47:07Z</time>
      </trkpt>
      <trkpt lat="44.72808" lon="-0.27401">
        <ele>57</ele>
        <time>2013-01-13T13:47:14Z</time>
      </trkpt>
      <trkpt lat="44.72818" lon="-0.27405">
        <ele>58</ele>
        <time>2013-01-13T13:47:21Z</time>
      </trkpt>
      <trkpt lat="44.72832" lon="-0.27416">
        <ele>59</ele>
        <time>2013-01-13T13:47:31Z</time>
      </trkpt>
      <trkpt lat="44.72841" lon="-0.27428">
        <ele>59</ele>
        <time>2013-01-13T13:47:39Z</time>
      </trkpt>
      <trkpt lat="44.7285" lon="-0.27433">
        <ele>60</ele>
        <time>2013-01-13T13:47:46Z</time>
      </trkpt>
      <trkpt lat="44.7286" lon="-0.27441">
        <ele>60</ele>
        <time>2013-01-13T13:47:53Z</time>
      </trkpt>
      <trkpt lat="44.7287" lon="-0.27449">
        <ele>61</ele>
        <time>2013-01-13T13:48:00Z</time>
      </trkpt>
      <trkpt lat="44.72875" lon="-0.27453">
        <ele>61</ele>
        <time>2013-01-13T13:48:03Z</time>
      </trkpt>
      <trkpt lat="44.7288" lon="-0.27457">
        <ele>62</ele>
        <time>2013-01-13T13:48:07Z</time>
      </trkpt>
      <trkpt lat="44.72887" lon="-0.27462">
        <ele>62</ele>
        <time>2013-01-13T13:48:13Z</time>
      </trkpt>
      <trkpt lat="44.72892" lon="-0.27465">
        <ele>62</ele>
        <time>2013-01-13T13:48:17Z</time>
      </trkpt>
      <trkpt lat="44.72903" lon="-0.27475">
        <ele>63</ele>
        <time>2013-01-13T13:48:26Z</time>
      </trkpt>
      <trkpt lat="44.72916" lon="-0.27484">
        <ele>64</ele>
        <time>2013-01-13T13:48:34Z</time>
      </trkpt>
      <trkpt lat="44.72929" lon="-0.27493">
        <ele>64</ele>
        <time>2013-01-13T13:48:42Z</time>
      </trkpt>
      <trkpt lat="44.72944" lon="-0.27505">
        <ele>65</ele>
        <time>2013-01-13T13:48:52Z</time>
      </trkpt>
      <trkpt lat="44.72953" lon="-0.27512">
        <ele>65</ele>
        <time>2013-01-13T13:48:58Z</time>
      </trkpt>
      <trkpt lat="44.72963" lon="-0.27519">
        <ele>65</ele>
        <time>2013-01-13T13:49:06Z</time>
      </trkpt>
      <trkpt lat="44.72972" lon="-0.27527">
        <ele>65</ele>
        <time>2013-01-13T13:49:14Z</time>
      </trkpt>
      <trkpt lat="44.72982" lon="-0.27535">
        <ele>66</ele>
        <time>2013-01-13T13:49:22Z</time>
      </trkpt>
      <trkpt lat="44.72991" lon="-0.27542">
        <ele>66</ele>
        <time>2013-01-13T13:49:30Z</time>
      </trkpt>
      <trkpt lat="44.73002" lon="-0.27549">
        <ele>66</ele>
        <time>2013-01-13T13:49:39Z</time>
      </trkpt>
      <trkpt lat="44.73011" lon="-0.27555">
        <ele>66</ele>
        <time>2013-01-13T13:49:47Z</time>
      </trkpt>
      <trkpt lat="44.73018" lon="-0.2756">
        <ele>66</ele>
        <time>2013-01-13T13:49:54Z</time>
      </trkpt>
      <trkpt lat="44.73028" lon="-0.2757">
        <ele>67</ele>
        <time>2013-01-13T13:50:03Z</time>
      </trkpt>
      <trkpt lat="44.73039" lon="-0.27577">
        <ele>67</ele>
        <time>2013-01-13T13:50:12Z</time>
      </trkpt>
      <trkpt lat="44.73049" lon="-0.27583">
        <ele>67</ele>
        <time>2013-01-13T13:50:19Z</time>
      </trkpt>
      <trkpt lat="44.73061" lon="-0.27594">
        <ele>68</ele>
        <time>2013-01-13T13:50:29Z</time>
      </trkpt>
      <trkpt lat="44.73073" lon="-0.27604">
        <ele>68</ele>
        <time>2013-01-13T13:50:38Z</time>
      </trkpt>
      <trkpt lat="44.7308" lon="-0.27609">
        <ele>68</ele>
        <time>2013-01-13T13:50:43Z</time>
      </trkpt>
      <trkpt lat="44.73091" lon="-0.27613">
        <ele>69</ele>
        <time>2013-01-13T13:50:51Z</time>
      </trkpt>
      <trkpt lat="44.73101" lon="-0.27619">
        <ele>70</ele>
        <time>2013-01-13T13:50:59Z</time>
      </trkpt>
      <trkpt lat="44.73111" lon="-0.27625">
        <ele>70</ele>
        <time>2013-01-13T13:51:07Z</time>
      </trkpt>
      <trkpt lat="44.7312" lon="-0.27633">
        <ele>71</ele>
        <time>2013-01-13T13:51:16Z</time>
      </trkpt>
      <trkpt lat="44.73129" lon="-0.27644">
        <ele>72</ele>
        <time>2013-01-13T13:51:24Z</time>
      </trkpt>
      <trkpt lat="44.73138" lon="-0.27653">
        <ele>73</ele>
        <time>2013-01-13T13:51:33Z</time>
      </trkpt>
      <trkpt lat="44.73144" lon="-0.27654">
        <ele>74</ele>
        <time>2013-01-13T13:51:37Z</time>
      </trkpt>
      <trkpt lat="44.7315" lon="-0.27659">
        <ele>75</ele>
        <time>2013-01-13T13:51:43Z</time>
      </trkpt>
      <trkpt lat="44.7316" lon="-0.27666">
        <ele>76</ele>
        <time>2013-01-13T13:51:52Z</time>
      </trkpt>
      <trkpt lat="44.73169" lon="-0.27675">
        <ele>77</ele>
        <time>2013-01-13T13:52:02Z</time>
      </trkpt>
      <trkpt lat="44.73174" lon="-0.27678">
        <ele>78</ele>
        <time>2013-01-13T13:52:06Z</time>
      </trkpt>
      <trkpt lat="44.73181" lon="-0.27672">
        <ele>78</ele>
        <time>2013-01-13T13:52:14Z</time>
      </trkpt>
      <trkpt lat="44.73186" lon="-0.27662">
        <ele>78</ele>
        <time>2013-01-13T13:52:23Z</time>
      </trkpt>
      <trkpt lat="44.73189" lon="-0.27658">
        <ele>78</ele>
        <time>2013-01-13T13:52:28Z</time>
      </trkpt>
      <trkpt lat="44.73193" lon="-0.27646">
        <ele>78</ele>
        <time>2013-01-13T13:52:36Z</time>
      </trkpt>
      <trkpt lat="44.73202" lon="-0.27635">
        <ele>78</ele>
        <time>2013-01-13T13:52:45Z</time>
      </trkpt>
      <trkpt lat="44.73203" lon="-0.2763">
        <ele>78</ele>
        <time>2013-01-13T13:52:48Z</time>
      </trkpt>
      <trkpt lat="44.73204" lon="-0.27628">
        <ele>78</ele>
        <time>2013-01-13T13:52:54Z</time>
      </trkpt>
      <trkpt lat="44.73204" lon="-0.27629">
        <ele>78</ele>
        <time>2013-01-13T13:53:04Z</time>
      </trkpt>
      <trkpt lat="44.73204" lon="-0.27629">
        <ele>78</ele>
        <time>2013-01-13T13:53:13Z</time>
      </trkpt>
      <trkpt lat="44.73204" lon="-0.27629">
        <ele>78</ele>
        <time>2013-01-13T13:53:22Z</time>
      </trkpt>
      <trkpt lat="44.73204" lon="-0.27629">
        <ele>78</ele>
        <time>2013-01-13T13:53:38Z</time>
      </trkpt>
      <trkpt lat="44.73204" lon="-0.27628">
        <ele>78</ele>
        <time>2013-01-13T13:53:54Z</time>
      </trkpt>
      <trkpt lat="44.73204" lon="-0.27629">
        <ele>78</ele>
        <time>2013-01-13T13:54:07Z</time>
      </trkpt>
      <trkpt lat="44.73204" lon="-0.27629">
        <ele>78</ele>
        <time>2013-01-13T13:54:22Z</time>
      </trkpt>
      <trkpt lat="44.73204" lon="-0.27629">
        <ele>78</ele>
        <time>2013-01-13T13:54:36Z</time>
      </trkpt>
      <trkpt lat="44.73204" lon="-0.27629">
        <ele>78</ele>
        <time>2013-01-13T13:54:51Z</time>
      </trkpt>
      <trkpt lat="44.73204" lon="-0.27629">
        <ele>78</ele>
        <time>2013-01-13T13:54:58Z</time>
      </trkpt>
      <trkpt lat="44.73205" lon="-0.27625">
        <ele>78</ele>
        <time>2013-01-13T13:55:05Z</time>
      </trkpt>
      <trkpt lat="44.73211" lon="-0.27613">
        <ele>78</ele>
        <time>2013-01-13T13:55:12Z</time>
      </trkpt>
      <trkpt lat="44.73222" lon="-0.27591">
        <ele>77</ele>
        <time>2013-01-13T13:55:20Z</time>
      </trkpt>
      <trkpt lat="44.73238" lon="-0.27561">
        <ele>77</ele>
        <time>2013-01-13T13:55:28Z</time>
      </trkpt>
      <trkpt lat="44.73248" lon="-0.27519">
        <ele>76</ele>
        <time>2013-01-13T13:55:36Z</time>
      </trkpt>
      <trkpt lat="44.73255" lon="-0.27462">
        <ele>75</ele>
        <time>2013-01-13T13:55:45Z</time>
      </trkpt>
      <trkpt lat="44.73255" lon="-0.27455">
        <ele>75</ele>
        <time>2013-01-13T13:55:46Z</time>
      </trkpt>
      <trkpt lat="44.73254" lon="-0.27442">
        <ele>75</ele>
        <time>2013-01-13T13:55:48Z</time>
      </trkpt>
      <trkpt lat="44.73246" lon="-0.27381">
        <ele>73</ele>
        <time>2013-01-13T13:55:57Z</time>
      </trkpt>
      <trkpt lat="44.73245" lon="-0.27374">
        <ele>73</ele>
        <time>2013-01-13T13:55:58Z</time>
      </trkpt>
      <trkpt lat="44.73236" lon="-0.27312">
        <ele>72</ele>
        <time>2013-01-13T13:56:06Z</time>
      </trkpt>
      <trkpt lat="44.73227" lon="-0.27235">
        <ele>72</ele>
        <time>2013-01-13T13:56:15Z</time>
      </trkpt>
      <trkpt lat="44.73216" lon="-0.2715">
        <ele>74</ele>
        <time>2013-01-13T13:56:25Z</time>
      </trkpt>
      <trkpt lat="44.73216" lon="-0.27087">
        <ele>73</ele>
        <time>2013-01-13T13:56:32Z</time>
      </trkpt>
      <trkpt lat="44.73229" lon="-0.27025">
        <ele>69</ele>
        <time>2013-01-13T13:56:38Z</time>
      </trkpt>
      <trkpt lat="44.73259" lon="-0.26926">
        <ele>65</ele>
        <time>2013-01-13T13:56:47Z</time>
      </trkpt>
      <trkpt lat="44.73294" lon="-0.26811">
        <ele>60</ele>
        <time>2013-01-13T13:56:57Z</time>
      </trkpt>
      <trkpt lat="44.73332" lon="-0.26682">
        <ele>51</ele>
        <time>2013-01-13T13:57:08Z</time>
      </trkpt>
      <trkpt lat="44.73354" lon="-0.26612">
        <ele>55</ele>
        <time>2013-01-13T13:57:15Z</time>
      </trkpt>
      <trkpt lat="44.7337" lon="-0.26561">
        <ele>59</ele>
        <time>2013-01-13T13:57:22Z</time>
      </trkpt>
      <trkpt lat="44.73383" lon="-0.26516">
        <ele>61</ele>
        <time>2013-01-13T13:57:30Z</time>
      </trkpt>
      <trkpt lat="44.73394" lon="-0.2648">
        <ele>63</ele>
        <time>2013-01-13T13:57:37Z</time>
      </trkpt>
      <trkpt lat="44.73404" lon="-0.26448">
        <ele>64</ele>
        <time>2013-01-13T13:57:44Z</time>
      </trkpt>
      <trkpt lat="44.7341" lon="-0.26419">
        <ele>65</ele>
        <time>2013-01-13T13:57:51Z</time>
      </trkpt>
      <trkpt lat="44.73414" lon="-0.26399">
        <ele>66</ele>
        <time>2013-01-13T13:57:56Z</time>
      </trkpt>
      <trkpt lat="44.73423" lon="-0.26382">
        <ele>67</ele>
        <time>2013-01-13T13:58:02Z</time>
      </trkpt>
      <trkpt lat="44.73437" lon="-0.26379">
        <ele>67</ele>
        <time>2013-01-13T13:58:08Z</time>
      </trkpt>
      <trkpt lat="44.73455" lon="-0.26376">
        <ele>68</ele>
        <time>2013-01-13T13:58:15Z</time>
      </trkpt>
      <trkpt lat="44.73457" lon="-0.26374">
        <ele>68</ele>
        <time>2013-01-13T13:58:16Z</time>
      </trkpt>
      <trkpt lat="44.73459" lon="-0.26372">
        <ele>68</ele>
        <time>2013-01-13T13:58:17Z</time>
      </trkpt>
      <trkpt lat="44.7346" lon="-0.2637">
        <ele>68</ele>
        <time>2013-01-13T13:58:18Z</time>
      </trkpt>
      <trkpt lat="44.73462" lon="-0.26367">
        <ele>68</ele>
        <time>2013-01-13T13:58:19Z</time>
      </trkpt>
      <trkpt lat="44.73473" lon="-0.26361">
        <ele>68</ele>
        <time>2013-01-13T13:58:26Z</time>
      </trkpt>
      <trkpt lat="44.73487" lon="-0.26365">
        <ele>69</ele>
        <time>2013-01-13T13:58:32Z</time>
      </trkpt>
      <trkpt lat="44.73506" lon="-0.26373">
        <ele>69</ele>
        <time>2013-01-13T13:58:39Z</time>
      </trkpt>
      <trkpt lat="44.73524" lon="-0.26381">
        <ele>70</ele>
        <time>2013-01-13T13:58:46Z</time>
      </trkpt>
      <trkpt lat="44.73539" lon="-0.26392">
        <ele>70</ele>
        <time>2013-01-13T13:58:53Z</time>
      </trkpt>
      <trkpt lat="44.73544" lon="-0.26411">
        <ele>70</ele>
        <time>2013-01-13T13:58:58Z</time>
      </trkpt>
      <trkpt lat="44.73551" lon="-0.26446">
        <ele>70</ele>
        <time>2013-01-13T13:59:06Z</time>
      </trkpt>
      <trkpt lat="44.73556" lon="-0.2647">
        <ele>70</ele>
        <time>2013-01-13T13:59:12Z</time>
      </trkpt>
      <trkpt lat="44.73564" lon="-0.26496">
        <ele>70</ele>
        <time>2013-01-13T13:59:21Z</time>
      </trkpt>
      <trkpt lat="44.73569" lon="-0.26511">
        <ele>70</ele>
        <time>2013-01-13T13:59:29Z</time>
      </trkpt>
      <trkpt lat="44.73569" lon="-0.26513">
        <ele>70</ele>
        <time>2013-01-13T13:59:30Z</time>
      </trkpt>
      <trkpt lat="44.73569" lon="-0.26515">
        <ele>70</ele>
        <time>2013-01-13T13:59:31Z</time>
      </trkpt>
      <trkpt lat="44.73569" lon="-0.26517">
        <ele>70</ele>
        <time>2013-01-13T13:59:32Z</time>
      </trkpt>
      <trkpt lat="44.7357" lon="-0.26519">
        <ele>70</ele>
        <time>2013-01-13T13:59:33Z</time>
      </trkpt>
      <trkpt lat="44.7357" lon="-0.26521">
        <ele>70</ele>
        <time>2013-01-13T13:59:34Z</time>
      </trkpt>
      <trkpt lat="44.7357" lon="-0.26523">
        <ele>70</ele>
        <time>2013-01-13T13:59:35Z</time>
      </trkpt>
      <trkpt lat="44.7357" lon="-0.26527">
        <ele>70</ele>
        <time>2013-01-13T13:59:37Z</time>
      </trkpt>
      <trkpt lat="44.73571" lon="-0.26528">
        <ele>70</ele>
        <time>2013-01-13T13:59:38Z</time>
      </trkpt>
      <trkpt lat="44.73576" lon="-0.26537">
        <ele>70</ele>
        <time>2013-01-13T13:59:43Z</time>
      </trkpt>
      <trkpt lat="44.73575" lon="-0.2654">
        <ele>70</ele>
        <time>2013-01-13T13:59:44Z</time>
      </trkpt>
      <trkpt lat="44.73573" lon="-0.26542">
        <ele>69</ele>
        <time>2013-01-13T13:59:47Z</time>
      </trkpt>
      <trkpt lat="44.73573" lon="-0.26544">
        <ele>69</ele>
        <time>2013-01-13T13:59:48Z</time>
      </trkpt>
      <trkpt lat="44.73574" lon="-0.26546">
        <ele>69</ele>
        <time>2013-01-13T13:59:49Z</time>
      </trkpt>
      <trkpt lat="44.73575" lon="-0.26547">
        <ele>69</ele>
        <time>2013-01-13T13:59:50Z</time>
      </trkpt>
      <trkpt lat="44.73576" lon="-0.26548">
        <ele>69</ele>
        <time>2013-01-13T13:59:51Z</time>
      </trkpt>
      <trkpt lat="44.73577" lon="-0.2655">
        <ele>69</ele>
        <time>2013-01-13T13:59:52Z</time>
      </trkpt>
      <trkpt lat="44.73578" lon="-0.26552">
        <ele>69</ele>
        <time>2013-01-13T13:59:53Z</time>
      </trkpt>
      <trkpt lat="44.73581" lon="-0.26557">
        <ele>69</ele>
        <time>2013-01-13T13:59:55Z</time>
      </trkpt>
      <trkpt lat="44.73593" lon="-0.26595">
        <ele>68</ele>
        <time>2013-01-13T14:00:03Z</time>
      </trkpt>
      <trkpt lat="44.73619" lon="-0.2665">
        <ele>67</ele>
        <time>2013-01-13T14:00:14Z</time>
      </trkpt>
      <trkpt lat="44.73644" lon="-0.26704">
        <ele>66</ele>
        <time>2013-01-13T14:00:23Z</time>
      </trkpt>
      <trkpt lat="44.73671" lon="-0.26761">
        <ele>65</ele>
        <time>2013-01-13T14:00:32Z</time>
      </trkpt>
      <trkpt lat="44.73691" lon="-0.26808">
        <ele>65</ele>
        <time>2013-01-13T14:00:40Z</time>
      </trkpt>
      <trkpt lat="44.73704" lon="-0.26835">
        <ele>66</ele>
        <time>2013-01-13T14:00:46Z</time>
      </trkpt>
      <trkpt lat="44.73707" lon="-0.2684">
        <ele>66</ele>
        <time>2013-01-13T14:00:47Z</time>
      </trkpt>
      <trkpt lat="44.73709" lon="-0.26846">
        <ele>66</ele>
        <time>2013-01-13T14:00:48Z</time>
      </trkpt>
      <trkpt lat="44.73711" lon="-0.26851">
        <ele>66</ele>
        <time>2013-01-13T14:00:49Z</time>
      </trkpt>
      <trkpt lat="44.73713" lon="-0.26856">
        <ele>66</ele>
        <time>2013-01-13T14:00:50Z</time>
      </trkpt>
      <trkpt lat="44.73715" lon="-0.26861">
        <ele>66</ele>
        <time>2013-01-13T14:00:51Z</time>
      </trkpt>
      <trkpt lat="44.73718" lon="-0.26865">
        <ele>66</ele>
        <time>2013-01-13T14:00:52Z</time>
      </trkpt>
      <trkpt lat="44.73735" lon="-0.26896">
        <ele>66</ele>
        <time>2013-01-13T14:00:59Z</time>
      </trkpt>
      <trkpt lat="44.73749" lon="-0.26917">
        <ele>66</ele>
        <time>2013-01-13T14:01:04Z</time>
      </trkpt>
      <trkpt lat="44.73762" lon="-0.26932">
        <ele>67</ele>
        <time>2013-01-13T14:01:08Z</time>
      </trkpt>
      <trkpt lat="44.73777" lon="-0.26946">
        <ele>66</ele>
        <time>2013-01-13T14:01:12Z</time>
      </trkpt>
      <trkpt lat="44.73781" lon="-0.26949">
        <ele>66</ele>
        <time>2013-01-13T14:01:13Z</time>
      </trkpt>
      <trkpt lat="44.73785" lon="-0.26953">
        <ele>66</ele>
        <time>2013-01-13T14:01:14Z</time>
      </trkpt>
      <trkpt lat="44.73826" lon="-0.26989">
        <ele>66</ele>
        <time>2013-01-13T14:01:24Z</time>
      </trkpt>
      <trkpt lat="44.73857" lon="-0.27009">
        <ele>66</ele>
        <time>2013-01-13T14:01:31Z</time>
      </trkpt>
      <trkpt lat="44.73895" lon="-0.27029">
        <ele>67</ele>
        <time>2013-01-13T14:01:39Z</time>
      </trkpt>
      <trkpt lat="44.73912" lon="-0.27041">
        <ele>67</ele>
        <time>2013-01-13T14:01:43Z</time>
      </trkpt>
      <trkpt lat="44.73938" lon="-0.27056">
        <ele>66</ele>
        <time>2013-01-13T14:01:49Z</time>
      </trkpt>
      <trkpt lat="44.73943" lon="-0.27058">
        <ele>66</ele>
        <time>2013-01-13T14:01:50Z</time>
      </trkpt>
      <trkpt lat="44.73948" lon="-0.27061">
        <ele>66</ele>
        <time>2013-01-13T14:01:51Z</time>
      </trkpt>
      <trkpt lat="44.73953" lon="-0.27063">
        <ele>66</ele>
        <time>2013-01-13T14:01:52Z</time>
      </trkpt>
      <trkpt lat="44.73959" lon="-0.27067">
        <ele>66</ele>
        <time>2013-01-13T14:01:53Z</time>
      </trkpt>
      <trkpt lat="44.74006" lon="-0.27095">
        <ele>65</ele>
        <time>2013-01-13T14:02:02Z</time>
      </trkpt>
      <trkpt lat="44.74055" lon="-0.27128">
        <ele>65</ele>
        <time>2013-01-13T14:02:12Z</time>
      </trkpt>
      <trkpt lat="44.74059" lon="-0.27132">
        <ele>65</ele>
        <time>2013-01-13T14:02:13Z</time>
      </trkpt>
      <trkpt lat="44.74095" lon="-0.27164">
        <ele>65</ele>
        <time>2013-01-13T14:02:22Z</time>
      </trkpt>
      <trkpt lat="44.74125" lon="-0.2719">
        <ele>65</ele>
        <time>2013-01-13T14:02:30Z</time>
      </trkpt>
      <trkpt lat="44.74164" lon="-0.27221">
        <ele>64</ele>
        <time>2013-01-13T14:02:39Z</time>
      </trkpt>
      <trkpt lat="44.74211" lon="-0.2726">
        <ele>64</ele>
        <time>2013-01-13T14:02:50Z</time>
      </trkpt>
      <trkpt lat="44.74255" lon="-0.27294">
        <ele>63</ele>
        <time>2013-01-13T14:02:59Z</time>
      </trkpt>
      <trkpt lat="44.74259" lon="-0.27298">
        <ele>63</ele>
        <time>2013-01-13T14:03:00Z</time>
      </trkpt>
      <trkpt lat="44.74264" lon="-0.27302">
        <ele>63</ele>
        <time>2013-01-13T14:03:01Z</time>
      </trkpt>
      <trkpt lat="44.74304" lon="-0.27345">
        <ele>62</ele>
        <time>2013-01-13T14:03:10Z</time>
      </trkpt>
      <trkpt lat="44.74309" lon="-0.2735">
        <ele>62</ele>
        <time>2013-01-13T14:03:11Z</time>
      </trkpt>
      <trkpt lat="44.74347" lon="-0.27379">
        <ele>62</ele>
        <time>2013-01-13T14:03:19Z</time>
      </trkpt>
      <trkpt lat="44.74364" lon="-0.27391">
        <ele>62</ele>
        <time>2013-01-13T14:03:23Z</time>
      </trkpt>
      <trkpt lat="44.74375" lon="-0.27401">
        <ele>62</ele>
        <time>2013-01-13T14:03:26Z</time>
      </trkpt>
      <trkpt lat="44.74392" lon="-0.27414">
        <ele>63</ele>
        <time>2013-01-13T14:03:32Z</time>
      </trkpt>
      <trkpt lat="44.74399" lon="-0.27423">
        <ele>63</ele>
        <time>2013-01-13T14:03:38Z</time>
      </trkpt>
      <trkpt lat="44.744" lon="-0.27425">
        <ele>63</ele>
        <time>2013-01-13T14:03:39Z</time>
      </trkpt>
      <trkpt lat="44.744" lon="-0.27426">
        <ele>63</ele>
        <time>2013-01-13T14:03:40Z</time>
      </trkpt>
      <trkpt lat="44.744" lon="-0.27429">
        <ele>63</ele>
        <time>2013-01-13T14:03:46Z</time>
      </trkpt>
      <trkpt lat="44.744" lon="-0.27429">
        <ele>63</ele>
        <time>2013-01-13T14:03:54Z</time>
      </trkpt>
      <trkpt lat="44.744" lon="-0.27431">
        <ele>63</ele>
        <time>2013-01-13T14:04:09Z</time>
      </trkpt>
      <trkpt lat="44.744" lon="-0.27433">
        <ele>63</ele>
        <time>2013-01-13T14:04:10Z</time>
      </trkpt>
      <trkpt lat="44.74399" lon="-0.27435">
        <ele>63</ele>
        <time>2013-01-13T14:04:11Z</time>
      </trkpt>
      <trkpt lat="44.744" lon="-0.27437">
        <ele>63</ele>
        <time>2013-01-13T14:04:12Z</time>
      </trkpt>
      <trkpt lat="44.74399" lon="-0.27445">
        <ele>63</ele>
        <time>2013-01-13T14:04:16Z</time>
      </trkpt>
      <trkpt lat="44.74398" lon="-0.27448">
        <ele>63</ele>
        <time>2013-01-13T14:04:17Z</time>
      </trkpt>
      <trkpt lat="44.74397" lon="-0.2745">
        <ele>63</ele>
        <time>2013-01-13T14:04:18Z</time>
      </trkpt>
      <trkpt lat="44.74396" lon="-0.27453">
        <ele>63</ele>
        <time>2013-01-13T14:04:19Z</time>
      </trkpt>
      <trkpt lat="44.74396" lon="-0.27456">
        <ele>63</ele>
        <time>2013-01-13T14:04:20Z</time>
      </trkpt>
      <trkpt lat="44.74391" lon="-0.27478">
        <ele>63</ele>
        <time>2013-01-13T14:04:26Z</time>
      </trkpt>
      <trkpt lat="44.74391" lon="-0.27514">
        <ele>63</ele>
        <time>2013-01-13T14:04:35Z</time>
      </trkpt>
      <trkpt lat="44.74383" lon="-0.27543">
        <ele>63</ele>
        <time>2013-01-13T14:04:42Z</time>
      </trkpt>
      <trkpt lat="44.7437" lon="-0.27577">
        <ele>65</ele>
        <time>2013-01-13T14:04:50Z</time>
      </trkpt>
      <trkpt lat="44.74366" lon="-0.2761">
        <ele>67</ele>
        <time>2013-01-13T14:04:58Z</time>
      </trkpt>
      <trkpt lat="44.7436" lon="-0.27634">
        <ele>69</ele>
        <time>2013-01-13T14:05:05Z</time>
      </trkpt>
      <trkpt lat="44.7435" lon="-0.27655">
        <ele>71</ele>
        <time>2013-01-13T14:05:12Z</time>
      </trkpt>
      <trkpt lat="44.74339" lon="-0.27683">
        <ele>72</ele>
        <time>2013-01-13T14:05:21Z</time>
      </trkpt>
      <trkpt lat="44.74336" lon="-0.27704">
        <ele>72</ele>
        <time>2013-01-13T14:05:27Z</time>
      </trkpt>
      <trkpt lat="44.74339" lon="-0.27745">
        <ele>73</ele>
        <time>2013-01-13T14:05:36Z</time>
      </trkpt>
      <trkpt lat="44.7434" lon="-0.27795">
        <ele>74</ele>
        <time>2013-01-13T14:05:46Z</time>
      </trkpt>
      <trkpt lat="44.74341" lon="-0.27846">
        <ele>74</ele>
        <time>2013-01-13T14:05:56Z</time>
      </trkpt>
      <trkpt lat="44.74344" lon="-0.27888">
        <ele>75</ele>
        <time>2013-01-13T14:06:05Z</time>
      </trkpt>
      <trkpt lat="44.7435" lon="-0.27924">
        <ele>76</ele>
        <time>2013-01-13T14:06:13Z</time>
      </trkpt>
      <trkpt lat="44.74357" lon="-0.2796">
        <ele>77</ele>
        <time>2013-01-13T14:06:21Z</time>
      </trkpt>
      <trkpt lat="44.74362" lon="-0.28001">
        <ele>78</ele>
        <time>2013-01-13T14:06:30Z</time>
      </trkpt>
      <trkpt lat="44.74366" lon="-0.28032">
        <ele>79</ele>
        <time>2013-01-13T14:06:37Z</time>
      </trkpt>
      <trkpt lat="44.7437" lon="-0.28063">
        <ele>79</ele>
        <time>2013-01-13T14:06:44Z</time>
      </trkpt>
      <trkpt lat="44.74376" lon="-0.28106">
        <ele>80</ele>
        <time>2013-01-13T14:06:53Z</time>
      </trkpt>
      <trkpt lat="44.74384" lon="-0.28145">
        <ele>80</ele>
        <time>2013-01-13T14:07:01Z</time>
      </trkpt>
      <trkpt lat="44.74392" lon="-0.28183">
        <ele>81</ele>
        <time>2013-01-13T14:07:09Z</time>
      </trkpt>
      <trkpt lat="44.74402" lon="-0.28222">
        <ele>81</ele>
        <time>2013-01-13T14:07:17Z</time>
      </trkpt>
      <trkpt lat="44.74408" lon="-0.28263">
        <ele>80</ele>
        <time>2013-01-13T14:07:25Z</time>
      </trkpt>
      <trkpt lat="44.74406" lon="-0.28303">
        <ele>82</ele>
        <time>2013-01-13T14:07:32Z</time>
      </trkpt>
      <trkpt lat="44.74416" lon="-0.28332">
        <ele>83</ele>
        <time>2013-01-13T14:07:38Z</time>
      </trkpt>
      <trkpt lat="44.74425" lon="-0.28361">
        <ele>85</ele>
        <time>2013-01-13T14:07:44Z</time>
      </trkpt>
      <trkpt lat="44.74435" lon="-0.28386">
        <ele>86</ele>
        <time>2013-01-13T14:07:50Z</time>
      </trkpt>
      <trkpt lat="44.74444" lon="-0.28405">
        <ele>86</ele>
        <time>2013-01-13T14:07:55Z</time>
      </trkpt>
      <trkpt lat="44.74456" lon="-0.28432">
        <ele>87</ele>
        <time>2013-01-13T14:08:01Z</time>
      </trkpt>
      <trkpt lat="44.74465" lon="-0.28457">
        <ele>87</ele>
        <time>2013-01-13T14:08:07Z</time>
      </trkpt>
      <trkpt lat="44.74475" lon="-0.28484">
        <ele>88</ele>
        <time>2013-01-13T14:08:14Z</time>
      </trkpt>
      <trkpt lat="44.74487" lon="-0.28509">
        <ele>88</ele>
        <time>2013-01-13T14:08:21Z</time>
      </trkpt>
      <trkpt lat="44.74493" lon="-0.28527">
        <ele>88</ele>
        <time>2013-01-13T14:08:26Z</time>
      </trkpt>
      <trkpt lat="44.74498" lon="-0.28557">
        <ele>88</ele>
        <time>2013-01-13T14:08:34Z</time>
      </trkpt>
      <trkpt lat="44.74497" lon="-0.28577">
        <ele>89</ele>
        <time>2013-01-13T14:08:41Z</time>
      </trkpt>
      <trkpt lat="44.74495" lon="-0.28592">
        <ele>90</ele>
        <time>2013-01-13T14:08:47Z</time>
      </trkpt>
      <trkpt lat="44.74492" lon="-0.2861">
        <ele>92</ele>
        <time>2013-01-13T14:08:54Z</time>
      </trkpt>
      <trkpt lat="44.74488" lon="-0.28629">
        <ele>94</ele>
        <time>2013-01-13T14:09:01Z</time>
      </trkpt>
      <trkpt lat="44.74487" lon="-0.28654">
        <ele>96</ele>
        <time>2013-01-13T14:09:08Z</time>
      </trkpt>
      <trkpt lat="44.74496" lon="-0.28673">
        <ele>98</ele>
        <time>2013-01-13T14:09:14Z</time>
      </trkpt>
      <trkpt lat="44.74503" lon="-0.28676">
        <ele>97</ele>
        <time>2013-01-13T14:09:16Z</time>
      </trkpt>
      <trkpt lat="44.74508" lon="-0.28677">
        <ele>97</ele>
        <time>2013-01-13T14:09:17Z</time>
      </trkpt>
      <trkpt lat="44.74512" lon="-0.28678">
        <ele>97</ele>
        <time>2013-01-13T14:09:18Z</time>
      </trkpt>
      <trkpt lat="44.74533" lon="-0.28684">
        <ele>95</ele>
        <time>2013-01-13T14:09:23Z</time>
      </trkpt>
      <trkpt lat="44.74549" lon="-0.28689">
        <ele>94</ele>
        <time>2013-01-13T14:09:28Z</time>
      </trkpt>
      <trkpt lat="44.7456" lon="-0.28701">
        <ele>95</ele>
        <time>2013-01-13T14:09:34Z</time>
      </trkpt>
      <trkpt lat="44.74568" lon="-0.28723">
        <ele>97</ele>
        <time>2013-01-13T14:09:41Z</time>
      </trkpt>
      <trkpt lat="44.74569" lon="-0.28728">
        <ele>98</ele>
        <time>2013-01-13T14:09:43Z</time>
      </trkpt>
      <trkpt lat="44.7457" lon="-0.2873">
        <ele>98</ele>
        <time>2013-01-13T14:09:44Z</time>
      </trkpt>
      <trkpt lat="44.74571" lon="-0.28732">
        <ele>98</ele>
        <time>2013-01-13T14:09:45Z</time>
      </trkpt>
      <trkpt lat="44.74572" lon="-0.28747">
        <ele>100</ele>
        <time>2013-01-13T14:09:51Z</time>
      </trkpt>
      <trkpt lat="44.74574" lon="-0.28759">
        <ele>101</ele>
        <time>2013-01-13T14:09:55Z</time>
      </trkpt>
      <trkpt lat="44.74582" lon="-0.28778">
        <ele>103</ele>
        <time>2013-01-13T14:10:02Z</time>
      </trkpt>
      <trkpt lat="44.74588" lon="-0.28797">
        <ele>104</ele>
        <time>2013-01-13T14:10:09Z</time>
      </trkpt>
      <trkpt lat="44.74588" lon="-0.288">
        <ele>104</ele>
        <time>2013-01-13T14:10:10Z</time>
      </trkpt>
      <trkpt lat="44.74589" lon="-0.28802">
        <ele>104</ele>
        <time>2013-01-13T14:10:11Z</time>
      </trkpt>
      <trkpt lat="44.74589" lon="-0.28805">
        <ele>104</ele>
        <time>2013-01-13T14:10:12Z</time>
      </trkpt>
      <trkpt lat="44.7459" lon="-0.28808">
        <ele>105</ele>
        <time>2013-01-13T14:10:13Z</time>
      </trkpt>
      <trkpt lat="44.7459" lon="-0.2881">
        <ele>105</ele>
        <time>2013-01-13T14:10:14Z</time>
      </trkpt>
      <trkpt lat="44.74591" lon="-0.28813">
        <ele>105</ele>
        <time>2013-01-13T14:10:15Z</time>
      </trkpt>
      <trkpt lat="44.74591" lon="-0.28817">
        <ele>105</ele>
        <time>2013-01-13T14:10:16Z</time>
      </trkpt>
      <trkpt lat="44.74591" lon="-0.2882">
        <ele>105</ele>
        <time>2013-01-13T14:10:17Z</time>
      </trkpt>
      <trkpt lat="44.74592" lon="-0.28823">
        <ele>106</ele>
        <time>2013-01-13T14:10:18Z</time>
      </trkpt>
      <trkpt lat="44.74593" lon="-0.28826">
        <ele>106</ele>
        <time>2013-01-13T14:10:19Z</time>
      </trkpt>
      <trkpt lat="44.74595" lon="-0.28829">
        <ele>106</ele>
        <time>2013-01-13T14:10:20Z</time>
      </trkpt>
      <trkpt lat="44.74596" lon="-0.28833">
        <ele>106</ele>
        <time>2013-01-13T14:10:21Z</time>
      </trkpt>
      <trkpt lat="44.74606" lon="-0.28854">
        <ele>107</ele>
        <time>2013-01-13T14:10:29Z</time>
      </trkpt>
      <trkpt lat="44.7462" lon="-0.28877">
        <ele>107</ele>
        <time>2013-01-13T14:10:38Z</time>
      </trkpt>
      <trkpt lat="44.74634" lon="-0.28894">
        <ele>107</ele>
        <time>2013-01-13T14:10:46Z</time>
      </trkpt>
      <trkpt lat="44.74645" lon="-0.28909">
        <ele>108</ele>
        <time>2013-01-13T14:10:53Z</time>
      </trkpt>
      <trkpt lat="44.7465" lon="-0.28923">
        <ele>108</ele>
        <time>2013-01-13T14:10:59Z</time>
      </trkpt>
      <trkpt lat="44.74649" lon="-0.28925">
        <ele>108</ele>
        <time>2013-01-13T14:11:00Z</time>
      </trkpt>
      <trkpt lat="44.74649" lon="-0.28927">
        <ele>108</ele>
        <time>2013-01-13T14:11:01Z</time>
      </trkpt>
      <trkpt lat="44.74647" lon="-0.28929">
        <ele>109</ele>
        <time>2013-01-13T14:11:02Z</time>
      </trkpt>
      <trkpt lat="44.74646" lon="-0.2893">
        <ele>109</ele>
        <time>2013-01-13T14:11:03Z</time>
      </trkpt>
      <trkpt lat="44.74645" lon="-0.2893">
        <ele>109</ele>
        <time>2013-01-13T14:11:04Z</time>
      </trkpt>
      <trkpt lat="44.74639" lon="-0.28934">
        <ele>109</ele>
        <time>2013-01-13T14:11:11Z</time>
      </trkpt>
      <trkpt lat="44.74637" lon="-0.28933">
        <ele>109</ele>
        <time>2013-01-13T14:11:17Z</time>
      </trkpt>
      <trkpt lat="44.74637" lon="-0.28933">
        <ele>109</ele>
        <time>2013-01-13T14:11:23Z</time>
      </trkpt>
      <trkpt lat="44.74637" lon="-0.28933">
        <ele>109</ele>
        <time>2013-01-13T14:11:36Z</time>
      </trkpt>
      <trkpt lat="44.74636" lon="-0.28933">
        <ele>109</ele>
        <time>2013-01-13T14:11:53Z</time>
      </trkpt>
      <trkpt lat="44.74632" lon="-0.28933">
        <ele>109</ele>
        <time>2013-01-13T14:12:01Z</time>
      </trkpt>
      <trkpt lat="44.74631" lon="-0.28933">
        <ele>109</ele>
        <time>2013-01-13T14:12:02Z</time>
      </trkpt>
      <trkpt lat="44.74629" lon="-0.28933">
        <ele>109</ele>
        <time>2013-01-13T14:12:03Z</time>
      </trkpt>
      <trkpt lat="44.74628" lon="-0.28933">
        <ele>109</ele>
        <time>2013-01-13T14:12:04Z</time>
      </trkpt>
      <trkpt lat="44.74626" lon="-0.28932">
        <ele>109</ele>
        <time>2013-01-13T14:12:05Z</time>
      </trkpt>
      <trkpt lat="44.74624" lon="-0.28933">
        <ele>109</ele>
        <time>2013-01-13T14:12:06Z</time>
      </trkpt>
      <trkpt lat="44.74622" lon="-0.28933">
        <ele>109</ele>
        <time>2013-01-13T14:12:07Z</time>
      </trkpt>
      <trkpt lat="44.7462" lon="-0.28933">
        <ele>109</ele>
        <time>2013-01-13T14:12:08Z</time>
      </trkpt>
      <trkpt lat="44.74602" lon="-0.28935">
        <ele>110</ele>
        <time>2013-01-13T14:12:15Z</time>
      </trkpt>
      <trkpt lat="44.74582" lon="-0.28936">
        <ele>111</ele>
        <time>2013-01-13T14:12:23Z</time>
      </trkpt>
      <trkpt lat="44.74562" lon="-0.28938">
        <ele>111</ele>
        <time>2013-01-13T14:12:31Z</time>
      </trkpt>
      <trkpt lat="44.74537" lon="-0.28938">
        <ele>111</ele>
        <time>2013-01-13T14:12:40Z</time>
      </trkpt>
      <trkpt lat="44.74516" lon="-0.28937">
        <ele>111</ele>
        <time>2013-01-13T14:12:47Z</time>
      </trkpt>
      <trkpt lat="44.74496" lon="-0.28934">
        <ele>111</ele>
        <time>2013-01-13T14:12:54Z</time>
      </trkpt>
      <trkpt lat="44.74484" lon="-0.28945">
        <ele>111</ele>
        <time>2013-01-13T14:12:59Z</time>
      </trkpt>
      <trkpt lat="44.74468" lon="-0.28955">
        <ele>110</ele>
        <time>2013-01-13T14:13:05Z</time>
      </trkpt>
      <trkpt lat="44.74439" lon="-0.28964">
        <ele>110</ele>
        <time>2013-01-13T14:13:15Z</time>
      </trkpt>
      <trkpt lat="44.74413" lon="-0.28973">
        <ele>109</ele>
        <time>2013-01-13T14:13:24Z</time>
      </trkpt>
      <trkpt lat="44.74408" lon="-0.28977">
        <ele>109</ele>
        <time>2013-01-13T14:13:26Z</time>
      </trkpt>
      <trkpt lat="44.74405" lon="-0.29">
        <ele>108</ele>
        <time>2013-01-13T14:13:32Z</time>
      </trkpt>
      <trkpt lat="44.74407" lon="-0.29035">
        <ele>108</ele>
        <time>2013-01-13T14:13:41Z</time>
      </trkpt>
      <trkpt lat="44.74408" lon="-0.29059">
        <ele>108</ele>
        <time>2013-01-13T14:13:47Z</time>
      </trkpt>
      <trkpt lat="44.7441" lon="-0.29091">
        <ele>108</ele>
        <time>2013-01-13T14:13:55Z</time>
      </trkpt>
      <trkpt lat="44.74411" lon="-0.2912">
        <ele>108</ele>
        <time>2013-01-13T14:14:01Z</time>
      </trkpt>
      <trkpt lat="44.74413" lon="-0.2916">
        <ele>108</ele>
        <time>2013-01-13T14:14:11Z</time>
      </trkpt>
      <trkpt lat="44.74415" lon="-0.29193">
        <ele>107</ele>
        <time>2013-01-13T14:14:20Z</time>
      </trkpt>
      <trkpt lat="44.74416" lon="-0.29224">
        <ele>106</ele>
        <time>2013-01-13T14:14:29Z</time>
      </trkpt>
      <trkpt lat="44.74416" lon="-0.29226">
        <ele>106</ele>
        <time>2013-01-13T14:14:30Z</time>
      </trkpt>
      <trkpt lat="44.74403" lon="-0.29233">
        <ele>106</ele>
        <time>2013-01-13T14:14:37Z</time>
      </trkpt>
      <trkpt lat="44.7438" lon="-0.2924">
        <ele>106</ele>
        <time>2013-01-13T14:14:46Z</time>
      </trkpt>
      <trkpt lat="44.74357" lon="-0.29249">
        <ele>106</ele>
        <time>2013-01-13T14:14:54Z</time>
      </trkpt>
      <trkpt lat="44.74323" lon="-0.2926">
        <ele>107</ele>
        <time>2013-01-13T14:15:06Z</time>
      </trkpt>
      <trkpt lat="44.74303" lon="-0.29267">
        <ele>108</ele>
        <time>2013-01-13T14:15:13Z</time>
      </trkpt>
      <trkpt lat="44.74287" lon="-0.29269">
        <ele>108</ele>
        <time>2013-01-13T14:15:19Z</time>
      </trkpt>
      <trkpt lat="44.74274" lon="-0.29274">
        <ele>108</ele>
        <time>2013-01-13T14:15:25Z</time>
      </trkpt>
      <trkpt lat="44.74254" lon="-0.29282">
        <ele>108</ele>
        <time>2013-01-13T14:15:33Z</time>
      </trkpt>
      <trkpt lat="44.74228" lon="-0.29291">
        <ele>108</ele>
        <time>2013-01-13T14:15:43Z</time>
      </trkpt>
      <trkpt lat="44.74201" lon="-0.29299">
        <ele>108</ele>
        <time>2013-01-13T14:15:53Z</time>
      </trkpt>
      <trkpt lat="44.74177" lon="-0.29304">
        <ele>108</ele>
        <time>2013-01-13T14:16:01Z</time>
      </trkpt>
      <trkpt lat="44.74151" lon="-0.29305">
        <ele>108</ele>
        <time>2013-01-13T14:16:10Z</time>
      </trkpt>
      <trkpt lat="44.74131" lon="-0.29303">
        <ele>108</ele>
        <time>2013-01-13T14:16:17Z</time>
      </trkpt>
      <trkpt lat="44.74107" lon="-0.293">
        <ele>108</ele>
        <time>2013-01-13T14:16:26Z</time>
      </trkpt>
      <trkpt lat="44.74084" lon="-0.29299">
        <ele>108</ele>
        <time>2013-01-13T14:16:34Z</time>
      </trkpt>
      <trkpt lat="44.74055" lon="-0.29297">
        <ele>109</ele>
        <time>2013-01-13T14:16:43Z</time>
      </trkpt>
      <trkpt lat="44.74027" lon="-0.29293">
        <ele>110</ele>
        <time>2013-01-13T14:16:52Z</time>
      </trkpt>
      <trkpt lat="44.74007" lon="-0.29291">
        <ele>110</ele>
        <time>2013-01-13T14:16:59Z</time>
      </trkpt>
      <trkpt lat="44.73975" lon="-0.2929">
        <ele>110</ele>
        <time>2013-01-13T14:17:09Z</time>
      </trkpt>
      <trkpt lat="44.7395" lon="-0.29294">
        <ele>110</ele>
        <time>2013-01-13T14:17:17Z</time>
      </trkpt>
      <trkpt lat="44.73934" lon="-0.29299">
        <ele>110</ele>
        <time>2013-01-13T14:17:21Z</time>
      </trkpt>
      <trkpt lat="44.7393" lon="-0.29301">
        <ele>110</ele>
        <time>2013-01-13T14:17:22Z</time>
      </trkpt>
      <trkpt lat="44.73926" lon="-0.29303">
        <ele>110</ele>
        <time>2013-01-13T14:17:23Z</time>
      </trkpt>
      <trkpt lat="44.73922" lon="-0.29304">
        <ele>110</ele>
        <time>2013-01-13T14:17:24Z</time>
      </trkpt>
      <trkpt lat="44.73918" lon="-0.29305">
        <ele>110</ele>
        <time>2013-01-13T14:17:25Z</time>
      </trkpt>
      <trkpt lat="44.73915" lon="-0.29306">
        <ele>110</ele>
        <time>2013-01-13T14:17:26Z</time>
      </trkpt>
      <trkpt lat="44.73895" lon="-0.29311">
        <ele>110</ele>
        <time>2013-01-13T14:17:31Z</time>
      </trkpt>
      <trkpt lat="44.73891" lon="-0.29311">
        <ele>110</ele>
        <time>2013-01-13T14:17:32Z</time>
      </trkpt>
      <trkpt lat="44.73887" lon="-0.29311">
        <ele>110</ele>
        <time>2013-01-13T14:17:33Z</time>
      </trkpt>
      <trkpt lat="44.73883" lon="-0.29312">
        <ele>110</ele>
        <time>2013-01-13T14:17:34Z</time>
      </trkpt>
      <trkpt lat="44.73879" lon="-0.29313">
        <ele>110</ele>
        <time>2013-01-13T14:17:35Z</time>
      </trkpt>
      <trkpt lat="44.73876" lon="-0.29314">
        <ele>110</ele>
        <time>2013-01-13T14:17:36Z</time>
      </trkpt>
      <trkpt lat="44.7384" lon="-0.29325">
        <ele>110</ele>
        <time>2013-01-13T14:17:45Z</time>
      </trkpt>
      <trkpt lat="44.73806" lon="-0.29337">
        <ele>110</ele>
        <time>2013-01-13T14:17:54Z</time>
      </trkpt>
      <trkpt lat="44.73773" lon="-0.2935">
        <ele>110</ele>
        <time>2013-01-13T14:18:02Z</time>
      </trkpt>
      <trkpt lat="44.73753" lon="-0.29357">
        <ele>110</ele>
        <time>2013-01-13T14:18:07Z</time>
      </trkpt>
      <trkpt lat="44.73741" lon="-0.2936">
        <ele>110</ele>
        <time>2013-01-13T14:18:10Z</time>
      </trkpt>
      <trkpt lat="44.73705" lon="-0.29372">
        <ele>110</ele>
        <time>2013-01-13T14:18:19Z</time>
      </trkpt>
      <trkpt lat="44.73669" lon="-0.29386">
        <ele>110</ele>
        <time>2013-01-13T14:18:28Z</time>
      </trkpt>
      <trkpt lat="44.73634" lon="-0.29407">
        <ele>110</ele>
        <time>2013-01-13T14:18:37Z</time>
      </trkpt>
      <trkpt lat="44.73631" lon="-0.2941">
        <ele>110</ele>
        <time>2013-01-13T14:18:38Z</time>
      </trkpt>
      <trkpt lat="44.73628" lon="-0.29414">
        <ele>110</ele>
        <time>2013-01-13T14:18:39Z</time>
      </trkpt>
      <trkpt lat="44.73622" lon="-0.29423">
        <ele>110</ele>
        <time>2013-01-13T14:18:41Z</time>
      </trkpt>
      <trkpt lat="44.73598" lon="-0.29468">
        <ele>109</ele>
        <time>2013-01-13T14:18:49Z</time>
      </trkpt>
      <trkpt lat="44.7356" lon="-0.29545">
        <ele>107</ele>
        <time>2013-01-13T14:19:00Z</time>
      </trkpt>
      <trkpt lat="44.73543" lon="-0.29577">
        <ele>106</ele>
        <time>2013-01-13T14:19:05Z</time>
      </trkpt>
      <trkpt lat="44.73518" lon="-0.29628">
        <ele>104</ele>
        <time>2013-01-13T14:19:14Z</time>
      </trkpt>
      <trkpt lat="44.73509" lon="-0.29647">
        <ele>104</ele>
        <time>2013-01-13T14:19:19Z</time>
      </trkpt>
      <trkpt lat="44.7351" lon="-0.2965">
        <ele>104</ele>
        <time>2013-01-13T14:19:20Z</time>
      </trkpt>
      <trkpt lat="44.73511" lon="-0.29653">
        <ele>104</ele>
        <time>2013-01-13T14:19:21Z</time>
      </trkpt>
      <trkpt lat="44.73513" lon="-0.29656">
        <ele>104</ele>
        <time>2013-01-13T14:19:26Z</time>
      </trkpt>
      <trkpt lat="44.73513" lon="-0.29657">
        <ele>104</ele>
        <time>2013-01-13T14:19:33Z</time>
      </trkpt>
      <trkpt lat="44.73514" lon="-0.29658">
        <ele>104</ele>
        <time>2013-01-13T14:19:40Z</time>
      </trkpt>
      <trkpt lat="44.73517" lon="-0.29664">
        <ele>105</ele>
        <time>2013-01-13T14:19:46Z</time>
      </trkpt>
      <trkpt lat="44.73521" lon="-0.29671">
        <ele>105</ele>
        <time>2013-01-13T14:19:55Z</time>
      </trkpt>
      <trkpt lat="44.73526" lon="-0.29681">
        <ele>106</ele>
        <time>2013-01-13T14:20:01Z</time>
      </trkpt>
      <trkpt lat="44.73537" lon="-0.29702">
        <ele>107</ele>
        <time>2013-01-13T14:20:07Z</time>
      </trkpt>
      <trkpt lat="44.73557" lon="-0.29741">
        <ele>108</ele>
        <time>2013-01-13T14:20:17Z</time>
      </trkpt>
      <trkpt lat="44.73571" lon="-0.29768">
        <ele>107</ele>
        <time>2013-01-13T14:20:25Z</time>
      </trkpt>
      <trkpt lat="44.73589" lon="-0.298">
        <ele>107</ele>
        <time>2013-01-13T14:20:34Z</time>
      </trkpt>
      <trkpt lat="44.73599" lon="-0.29807">
        <ele>107</ele>
        <time>2013-01-13T14:20:38Z</time>
      </trkpt>
      <trkpt lat="44.73618" lon="-0.29795">
        <ele>107</ele>
        <time>2013-01-13T14:20:46Z</time>
      </trkpt>
      <trkpt lat="44.73634" lon="-0.29785">
        <ele>107</ele>
        <time>2013-01-13T14:20:53Z</time>
      </trkpt>
      <trkpt lat="44.73647" lon="-0.29777">
        <ele>106</ele>
        <time>2013-01-13T14:20:59Z</time>
      </trkpt>
      <trkpt lat="44.7366" lon="-0.29793">
        <ele>106</ele>
        <time>2013-01-13T14:21:05Z</time>
      </trkpt>
      <trkpt lat="44.73674" lon="-0.29822">
        <ele>106</ele>
        <time>2013-01-13T14:21:14Z</time>
      </trkpt>
      <trkpt lat="44.73686" lon="-0.29843">
        <ele>106</ele>
        <time>2013-01-13T14:21:21Z</time>
      </trkpt>
      <trkpt lat="44.73704" lon="-0.29874">
        <ele>106</ele>
        <time>2013-01-13T14:21:30Z</time>
      </trkpt>
      <trkpt lat="44.73714" lon="-0.29894">
        <ele>106</ele>
        <time>2013-01-13T14:21:38Z</time>
      </trkpt>
      <trkpt lat="44.73723" lon="-0.29909">
        <ele>105</ele>
        <time>2013-01-13T14:21:45Z</time>
      </trkpt>
      <trkpt lat="44.73738" lon="-0.29925">
        <ele>104</ele>
        <time>2013-01-13T14:21:52Z</time>
      </trkpt>
      <trkpt lat="44.73742" lon="-0.2993">
        <ele>104</ele>
        <time>2013-01-13T14:21:55Z</time>
      </trkpt>
      <trkpt lat="44.73744" lon="-0.29932">
        <ele>104</ele>
        <time>2013-01-13T14:22:00Z</time>
      </trkpt>
      <trkpt lat="44.73745" lon="-0.29936">
        <ele>103</ele>
        <time>2013-01-13T14:22:05Z</time>
      </trkpt>
      <trkpt lat="44.73755" lon="-0.29951">
        <ele>102</ele>
        <time>2013-01-13T14:22:13Z</time>
      </trkpt>
      <trkpt lat="44.73774" lon="-0.29985">
        <ele>100</ele>
        <time>2013-01-13T14:22:23Z</time>
      </trkpt>
      <trkpt lat="44.73787" lon="-0.30011">
        <ele>99</ele>
        <time>2013-01-13T14:22:29Z</time>
      </trkpt>
      <trkpt lat="44.73789" lon="-0.30016">
        <ele>98</ele>
        <time>2013-01-13T14:22:30Z</time>
      </trkpt>
      <trkpt lat="44.73792" lon="-0.30047">
        <ele>98</ele>
        <time>2013-01-13T14:22:36Z</time>
      </trkpt>
      <trkpt lat="44.73794" lon="-0.30088">
        <ele>97</ele>
        <time>2013-01-13T14:22:44Z</time>
      </trkpt>
      <trkpt lat="44.73796" lon="-0.30118">
        <ele>96</ele>
        <time>2013-01-13T14:22:50Z</time>
      </trkpt>
      <trkpt lat="44.73794" lon="-0.30143">
        <ele>95</ele>
        <time>2013-01-13T14:22:56Z</time>
      </trkpt>
      <trkpt lat="44.73793" lon="-0.30165">
        <ele>93</ele>
        <time>2013-01-13T14:23:01Z</time>
      </trkpt>
      <trkpt lat="44.73793" lon="-0.30197">
        <ele>90</ele>
        <time>2013-01-13T14:23:07Z</time>
      </trkpt>
      <trkpt lat="44.73792" lon="-0.30219">
        <ele>88</ele>
        <time>2013-01-13T14:23:10Z</time>
      </trkpt>
      <trkpt lat="44.73793" lon="-0.30226">
        <ele>88</ele>
        <time>2013-01-13T14:23:11Z</time>
      </trkpt>
      <trkpt lat="44.73797" lon="-0.30255">
        <ele>85</ele>
        <time>2013-01-13T14:23:15Z</time>
      </trkpt>
      <trkpt lat="44.73797" lon="-0.30261">
        <ele>85</ele>
        <time>2013-01-13T14:23:16Z</time>
      </trkpt>
      <trkpt lat="44.73799" lon="-0.3028">
        <ele>84</ele>
        <time>2013-01-13T14:23:19Z</time>
      </trkpt>
      <trkpt lat="44.73799" lon="-0.30286">
        <ele>84</ele>
        <time>2013-01-13T14:23:20Z</time>
      </trkpt>
      <trkpt lat="44.73798" lon="-0.30292">
        <ele>84</ele>
        <time>2013-01-13T14:23:21Z</time>
      </trkpt>
      <trkpt lat="44.73793" lon="-0.30305">
        <ele>83</ele>
        <time>2013-01-13T14:23:24Z</time>
      </trkpt>
      <trkpt lat="44.7378" lon="-0.30305">
        <ele>81</ele>
        <time>2013-01-13T14:23:29Z</time>
      </trkpt>
      <trkpt lat="44.73759" lon="-0.30283">
        <ele>78</ele>
        <time>2013-01-13T14:23:37Z</time>
      </trkpt>
      <trkpt lat="44.73747" lon="-0.30252">
        <ele>77</ele>
        <time>2013-01-13T14:23:46Z</time>
      </trkpt>
      <trkpt lat="44.7374" lon="-0.30233">
        <ele>79</ele>
        <time>2013-01-13T14:23:53Z</time>
      </trkpt>
      <trkpt lat="44.73731" lon="-0.30216">
        <ele>80</ele>
        <time>2013-01-13T14:24:02Z</time>
      </trkpt>
      <trkpt lat="44.73725" lon="-0.30206">
        <ele>81</ele>
        <time>2013-01-13T14:24:09Z</time>
      </trkpt>
      <trkpt lat="44.73723" lon="-0.30201">
        <ele>81</ele>
        <time>2013-01-13T14:24:12Z</time>
      </trkpt>
      <trkpt lat="44.73717" lon="-0.30192">
        <ele>81</ele>
        <time>2013-01-13T14:24:18Z</time>
      </trkpt>
      <trkpt lat="44.73708" lon="-0.30184">
        <ele>81</ele>
        <time>2013-01-13T14:24:25Z</time>
      </trkpt>
      <trkpt lat="44.73702" lon="-0.30175">
        <ele>81</ele>
        <time>2013-01-13T14:24:33Z</time>
      </trkpt>
      <trkpt lat="44.73696" lon="-0.30169">
        <ele>82</ele>
        <time>2013-01-13T14:24:38Z</time>
      </trkpt>
      <trkpt lat="44.7369" lon="-0.30157">
        <ele>83</ele>
        <time>2013-01-13T14:24:46Z</time>
      </trkpt>
      <trkpt lat="44.73684" lon="-0.30143">
        <ele>84</ele>
        <time>2013-01-13T14:24:55Z</time>
      </trkpt>
      <trkpt lat="44.7368" lon="-0.30129">
        <ele>84</ele>
        <time>2013-01-13T14:25:04Z</time>
      </trkpt>
      <trkpt lat="44.73677" lon="-0.30118">
        <ele>85</ele>
        <time>2013-01-13T14:25:11Z</time>
      </trkpt>
      <trkpt lat="44.73672" lon="-0.30103">
        <ele>87</ele>
        <time>2013-01-13T14:25:20Z</time>
      </trkpt>
      <trkpt lat="44.73667" lon="-0.30088">
        <ele>88</ele>
        <time>2013-01-13T14:25:29Z</time>
      </trkpt>
      <trkpt lat="44.73664" lon="-0.30085">
        <ele>88</ele>
        <time>2013-01-13T14:25:32Z</time>
      </trkpt>
      <trkpt lat="44.73657" lon="-0.3007">
        <ele>89</ele>
        <time>2013-01-13T14:25:42Z</time>
      </trkpt>
      <trkpt lat="44.73657" lon="-0.30064">
        <ele>90</ele>
        <time>2013-01-13T14:25:48Z</time>
      </trkpt>
      <trkpt lat="44.73658" lon="-0.30058">
        <ele>91</ele>
        <time>2013-01-13T14:25:54Z</time>
      </trkpt>
      <trkpt lat="44.73662" lon="-0.30056">
        <ele>92</ele>
        <time>2013-01-13T14:26:01Z</time>
      </trkpt>
      <trkpt lat="44.73666" lon="-0.30057">
        <ele>92</ele>
        <time>2013-01-13T14:26:08Z</time>
      </trkpt>
      <trkpt lat="44.73668" lon="-0.30058">
        <ele>92</ele>
        <time>2013-01-13T14:26:13Z</time>
      </trkpt>
      <trkpt lat="44.73679" lon="-0.30071">
        <ele>92</ele>
        <time>2013-01-13T14:26:21Z</time>
      </trkpt>
      <trkpt lat="44.73693" lon="-0.30092">
        <ele>91</ele>
        <time>2013-01-13T14:26:29Z</time>
      </trkpt>
      <trkpt lat="44.73712" lon="-0.30111">
        <ele>90</ele>
        <time>2013-01-13T14:26:37Z</time>
      </trkpt>
      <trkpt lat="44.73731" lon="-0.30123">
        <ele>91</ele>
        <time>2013-01-13T14:26:45Z</time>
      </trkpt>
      <trkpt lat="44.73748" lon="-0.3013">
        <ele>93</ele>
        <time>2013-01-13T14:26:52Z</time>
      </trkpt>
      <trkpt lat="44.73762" lon="-0.30136">
        <ele>93</ele>
        <time>2013-01-13T14:26:59Z</time>
      </trkpt>
      <trkpt lat="44.73776" lon="-0.30144">
        <ele>93</ele>
        <time>2013-01-13T14:27:06Z</time>
      </trkpt>
      <trkpt lat="44.7379" lon="-0.30144">
        <ele>94</ele>
        <time>2013-01-13T14:27:13Z</time>
      </trkpt>
      <trkpt lat="44.73794" lon="-0.3013">
        <ele>96</ele>
        <time>2013-01-13T14:27:19Z</time>
      </trkpt>
      <trkpt lat="44.73793" lon="-0.30111">
        <ele>96</ele>
        <time>2013-01-13T14:27:27Z</time>
      </trkpt>
      <trkpt lat="44.73793" lon="-0.30094">
        <ele>97</ele>
        <time>2013-01-13T14:27:34Z</time>
      </trkpt>
      <trkpt lat="44.73792" lon="-0.30072">
        <ele>97</ele>
        <time>2013-01-13T14:27:42Z</time>
      </trkpt>
      <trkpt lat="44.7379" lon="-0.30047">
        <ele>98</ele>
        <time>2013-01-13T14:27:52Z</time>
      </trkpt>
      <trkpt lat="44.7379" lon="-0.30045">
        <ele>98</ele>
        <time>2013-01-13T14:27:53Z</time>
      </trkpt>
      <trkpt lat="44.73791" lon="-0.30031">
        <ele>98</ele>
        <time>2013-01-13T14:27:58Z</time>
      </trkpt>
      <trkpt lat="44.73788" lon="-0.30011">
        <ele>98</ele>
        <time>2013-01-13T14:28:06Z</time>
      </trkpt>
      <trkpt lat="44.73777" lon="-0.2999">
        <ele>100</ele>
        <time>2013-01-13T14:28:16Z</time>
      </trkpt>
      <trkpt lat="44.73775" lon="-0.29989">
        <ele>100</ele>
        <time>2013-01-13T14:28:17Z</time>
      </trkpt>
      <trkpt lat="44.7377" lon="-0.29978">
        <ele>100</ele>
        <time>2013-01-13T14:28:22Z</time>
      </trkpt>
      <trkpt lat="44.73768" lon="-0.29974">
        <ele>101</ele>
        <time>2013-01-13T14:28:24Z</time>
      </trkpt>
      <trkpt lat="44.7376" lon="-0.29958">
        <ele>102</ele>
        <time>2013-01-13T14:28:31Z</time>
      </trkpt>
      <trkpt lat="44.73751" lon="-0.29941">
        <ele>103</ele>
        <time>2013-01-13T14:28:39Z</time>
      </trkpt>
      <trkpt lat="44.73748" lon="-0.29937">
        <ele>103</ele>
        <time>2013-01-13T14:28:45Z</time>
      </trkpt>
      <trkpt lat="44.73746" lon="-0.29932">
        <ele>103</ele>
        <time>2013-01-13T14:28:51Z</time>
      </trkpt>
      <trkpt lat="44.73743" lon="-0.2993">
        <ele>104</ele>
        <time>2013-01-13T14:28:57Z</time>
      </trkpt>
      <trkpt lat="44.73742" lon="-0.29928">
        <ele>104</ele>
        <time>2013-01-13T14:29:05Z</time>
      </trkpt>
      <trkpt lat="44.73741" lon="-0.29928">
        <ele>104</ele>
        <time>2013-01-13T14:29:11Z</time>
      </trkpt>
      <trkpt lat="44.73739" lon="-0.29926">
        <ele>104</ele>
        <time>2013-01-13T14:29:19Z</time>
      </trkpt>
      <trkpt lat="44.73738" lon="-0.29925">
        <ele>104</ele>
        <time>2013-01-13T14:29:26Z</time>
      </trkpt>
      <trkpt lat="44.73738" lon="-0.29925">
        <ele>104</ele>
        <time>2013-01-13T14:29:33Z</time>
      </trkpt>
      <trkpt lat="44.73733" lon="-0.2992">
        <ele>104</ele>
        <time>2013-01-13T14:29:40Z</time>
      </trkpt>
      <trkpt lat="44.73729" lon="-0.29915">
        <ele>104</ele>
        <time>2013-01-13T14:29:48Z</time>
      </trkpt>
      <trkpt lat="44.73728" lon="-0.29914">
        <ele>105</ele>
        <time>2013-01-13T14:29:54Z</time>
      </trkpt>
      <trkpt lat="44.73724" lon="-0.29909">
        <ele>105</ele>
        <time>2013-01-13T14:30:00Z</time>
      </trkpt>
      <trkpt lat="44.73723" lon="-0.29908">
        <ele>105</ele>
        <time>2013-01-13T14:30:01Z</time>
      </trkpt>
      <trkpt lat="44.7371" lon="-0.29912">
        <ele>106</ele>
        <time>2013-01-13T14:30:10Z</time>
      </trkpt>
      <trkpt lat="44.73707" lon="-0.29916">
        <ele>106</ele>
        <time>2013-01-13T14:30:12Z</time>
      </trkpt>
      <trkpt lat="44.73692" lon="-0.29929">
        <ele>106</ele>
        <time>2013-01-13T14:30:20Z</time>
      </trkpt>
      <trkpt lat="44.73676" lon="-0.29946">
        <ele>104</ele>
        <time>2013-01-13T14:30:28Z</time>
      </trkpt>
      <trkpt lat="44.73662" lon="-0.29951">
        <ele>103</ele>
        <time>2013-01-13T14:30:34Z</time>
      </trkpt>
      <trkpt lat="44.73648" lon="-0.29938">
        <ele>104</ele>
        <time>2013-01-13T14:30:41Z</time>
      </trkpt>
      <trkpt lat="44.73643" lon="-0.29928">
        <ele>104</ele>
        <time>2013-01-13T14:30:46Z</time>
      </trkpt>
      <trkpt lat="44.73633" lon="-0.2993">
        <ele>104</ele>
        <time>2013-01-13T14:30:52Z</time>
      </trkpt>
      <trkpt lat="44.73611" lon="-0.29944">
        <ele>102</ele>
        <time>2013-01-13T14:30:59Z</time>
      </trkpt>
      <trkpt lat="44.73592" lon="-0.29958">
        <ele>100</ele>
        <time>2013-01-13T14:31:05Z</time>
      </trkpt>
      <trkpt lat="44.73575" lon="-0.29967">
        <ele>99</ele>
        <time>2013-01-13T14:31:11Z</time>
      </trkpt>
      <trkpt lat="44.7356" lon="-0.29978">
        <ele>99</ele>
        <time>2013-01-13T14:31:17Z</time>
      </trkpt>
      <trkpt lat="44.73546" lon="-0.29988">
        <ele>100</ele>
        <time>2013-01-13T14:31:23Z</time>
      </trkpt>
      <trkpt lat="44.7354" lon="-0.29994">
        <ele>100</ele>
        <time>2013-01-13T14:31:26Z</time>
      </trkpt>
      <trkpt lat="44.7353" lon="-0.3">
        <ele>102</ele>
        <time>2013-01-13T14:31:32Z</time>
      </trkpt>
      <trkpt lat="44.73528" lon="-0.30001">
        <ele>102</ele>
        <time>2013-01-13T14:31:33Z</time>
      </trkpt>
      <trkpt lat="44.73521" lon="-0.30009">
        <ele>102</ele>
        <time>2013-01-13T14:31:38Z</time>
      </trkpt>
      <trkpt lat="44.73509" lon="-0.30017">
        <ele>103</ele>
        <time>2013-01-13T14:31:45Z</time>
      </trkpt>
      <trkpt lat="44.73507" lon="-0.3002">
        <ele>103</ele>
        <time>2013-01-13T14:31:47Z</time>
      </trkpt>
      <trkpt lat="44.73494" lon="-0.30028">
        <ele>104</ele>
        <time>2013-01-13T14:31:55Z</time>
      </trkpt>
      <trkpt lat="44.73481" lon="-0.30037">
        <ele>105</ele>
        <time>2013-01-13T14:32:03Z</time>
      </trkpt>
      <trkpt lat="44.73464" lon="-0.30048">
        <ele>105</ele>
        <time>2013-01-13T14:32:12Z</time>
      </trkpt>
      <trkpt lat="44.73445" lon="-0.3006">
        <ele>105</ele>
        <time>2013-01-13T14:32:21Z</time>
      </trkpt>
      <trkpt lat="44.73426" lon="-0.30073">
        <ele>104</ele>
        <time>2013-01-13T14:32:30Z</time>
      </trkpt>
      <trkpt lat="44.73408" lon="-0.30085">
        <ele>104</ele>
        <time>2013-01-13T14:32:39Z</time>
      </trkpt>
      <trkpt lat="44.73402" lon="-0.3009">
        <ele>105</ele>
        <time>2013-01-13T14:32:42Z</time>
      </trkpt>
      <trkpt lat="44.734" lon="-0.301">
        <ele>105</ele>
        <time>2013-01-13T14:32:46Z</time>
      </trkpt>
      <trkpt lat="44.7341" lon="-0.30125">
        <ele>103</ele>
        <time>2013-01-13T14:32:54Z</time>
      </trkpt>
      <trkpt lat="44.7342" lon="-0.30147">
        <ele>101</ele>
        <time>2013-01-13T14:33:02Z</time>
      </trkpt>
      <trkpt lat="44.73431" lon="-0.3017">
        <ele>99</ele>
        <time>2013-01-13T14:33:10Z</time>
      </trkpt>
      <trkpt lat="44.73432" lon="-0.30173">
        <ele>99</ele>
        <time>2013-01-13T14:33:11Z</time>
      </trkpt>
      <trkpt lat="44.73426" lon="-0.30186">
        <ele>99</ele>
        <time>2013-01-13T14:33:17Z</time>
      </trkpt>
      <trkpt lat="44.73423" lon="-0.30187">
        <ele>99</ele>
        <time>2013-01-13T14:33:19Z</time>
      </trkpt>
      <trkpt lat="44.73409" lon="-0.30198">
        <ele>99</ele>
        <time>2013-01-13T14:33:28Z</time>
      </trkpt>
      <trkpt lat="44.7339" lon="-0.30214">
        <ele>99</ele>
        <time>2013-01-13T14:33:37Z</time>
      </trkpt>
      <trkpt lat="44.73368" lon="-0.30234">
        <ele>98</ele>
        <time>2013-01-13T14:33:46Z</time>
      </trkpt>
      <trkpt lat="44.7336" lon="-0.30243">
        <ele>98</ele>
        <time>2013-01-13T14:33:50Z</time>
      </trkpt>
      <trkpt lat="44.73364" lon="-0.30262">
        <ele>97</ele>
        <time>2013-01-13T14:33:56Z</time>
      </trkpt>
      <trkpt lat="44.73367" lon="-0.30268">
        <ele>96</ele>
        <time>2013-01-13T14:33:58Z</time>
      </trkpt>
      <trkpt lat="44.73383" lon="-0.30295">
        <ele>92</ele>
        <time>2013-01-13T14:34:06Z</time>
      </trkpt>
      <trkpt lat="44.73397" lon="-0.30315">
        <ele>91</ele>
        <time>2013-01-13T14:34:13Z</time>
      </trkpt>
      <trkpt lat="44.73402" lon="-0.30332">
        <ele>90</ele>
        <time>2013-01-13T14:34:19Z</time>
      </trkpt>
      <trkpt lat="44.7341" lon="-0.3035">
        <ele>89</ele>
        <time>2013-01-13T14:34:25Z</time>
      </trkpt>
      <trkpt lat="44.73421" lon="-0.30368">
        <ele>88</ele>
        <time>2013-01-13T14:34:32Z</time>
      </trkpt>
      <trkpt lat="44.73428" lon="-0.30382">
        <ele>89</ele>
        <time>2013-01-13T14:34:38Z</time>
      </trkpt>
      <trkpt lat="44.7344" lon="-0.304">
        <ele>90</ele>
        <time>2013-01-13T14:34:46Z</time>
      </trkpt>
      <trkpt lat="44.73452" lon="-0.30419">
        <ele>91</ele>
        <time>2013-01-13T14:34:53Z</time>
      </trkpt>
      <trkpt lat="44.73464" lon="-0.30439">
        <ele>91</ele>
        <time>2013-01-13T14:35:00Z</time>
      </trkpt>
      <trkpt lat="44.73476" lon="-0.30461">
        <ele>92</ele>
        <time>2013-01-13T14:35:08Z</time>
      </trkpt>
      <trkpt lat="44.73491" lon="-0.30481">
        <ele>92</ele>
        <time>2013-01-13T14:35:16Z</time>
      </trkpt>
      <trkpt lat="44.73503" lon="-0.305">
        <ele>92</ele>
        <time>2013-01-13T14:35:23Z</time>
      </trkpt>
      <trkpt lat="44.73514" lon="-0.30511">
        <ele>92</ele>
        <time>2013-01-13T14:35:28Z</time>
      </trkpt>
      <trkpt lat="44.7353" lon="-0.30527">
        <ele>91</ele>
        <time>2013-01-13T14:35:35Z</time>
      </trkpt>
      <trkpt lat="44.73542" lon="-0.3054">
        <ele>91</ele>
        <time>2013-01-13T14:35:41Z</time>
      </trkpt>
      <trkpt lat="44.73559" lon="-0.30557">
        <ele>90</ele>
        <time>2013-01-13T14:35:48Z</time>
      </trkpt>
      <trkpt lat="44.73571" lon="-0.30567">
        <ele>88</ele>
        <time>2013-01-13T14:35:53Z</time>
      </trkpt>
      <trkpt lat="44.73586" lon="-0.30581">
        <ele>86</ele>
        <time>2013-01-13T14:36:00Z</time>
      </trkpt>
      <trkpt lat="44.73609" lon="-0.30601">
        <ele>82</ele>
        <time>2013-01-13T14:36:08Z</time>
      </trkpt>
      <trkpt lat="44.73627" lon="-0.30617">
        <ele>79</ele>
        <time>2013-01-13T14:36:16Z</time>
      </trkpt>
      <trkpt lat="44.73629" lon="-0.30618">
        <ele>79</ele>
        <time>2013-01-13T14:36:18Z</time>
      </trkpt>
      <trkpt lat="44.73633" lon="-0.30619">
        <ele>78</ele>
        <time>2013-01-13T14:36:21Z</time>
      </trkpt>
      <trkpt lat="44.73643" lon="-0.30625">
        <ele>76</ele>
        <time>2013-01-13T14:36:27Z</time>
      </trkpt>
      <trkpt lat="44.73661" lon="-0.3064">
        <ele>74</ele>
        <time>2013-01-13T14:36:33Z</time>
      </trkpt>
      <trkpt lat="44.73683" lon="-0.3066">
        <ele>72</ele>
        <time>2013-01-13T14:36:40Z</time>
      </trkpt>
      <trkpt lat="44.73716" lon="-0.3069">
        <ele>69</ele>
        <time>2013-01-13T14:36:49Z</time>
      </trkpt>
      <trkpt lat="44.73737" lon="-0.3071">
        <ele>68</ele>
        <time>2013-01-13T14:36:56Z</time>
      </trkpt>
      <trkpt lat="44.73754" lon="-0.30727">
        <ele>66</ele>
        <time>2013-01-13T14:37:04Z</time>
      </trkpt>
      <trkpt lat="44.73752" lon="-0.30749">
        <ele>65</ele>
        <time>2013-01-13T14:37:10Z</time>
      </trkpt>
      <trkpt lat="44.73743" lon="-0.30774">
        <ele>64</ele>
        <time>2013-01-13T14:37:17Z</time>
      </trkpt>
      <trkpt lat="44.73737" lon="-0.30803">
        <ele>63</ele>
        <time>2013-01-13T14:37:25Z</time>
      </trkpt>
      <trkpt lat="44.73729" lon="-0.30831">
        <ele>63</ele>
        <time>2013-01-13T14:37:32Z</time>
      </trkpt>
      <trkpt lat="44.7372" lon="-0.30862">
        <ele>63</ele>
        <time>2013-01-13T14:37:40Z</time>
      </trkpt>
      <trkpt lat="44.73712" lon="-0.30889">
        <ele>63</ele>
        <time>2013-01-13T14:37:48Z</time>
      </trkpt>
      <trkpt lat="44.73703" lon="-0.30904">
        <ele>64</ele>
        <time>2013-01-13T14:37:55Z</time>
      </trkpt>
      <trkpt lat="44.73701" lon="-0.30908">
        <ele>64</ele>
        <time>2013-01-13T14:38:00Z</time>
      </trkpt>
      <trkpt lat="44.73696" lon="-0.30912">
        <ele>64</ele>
        <time>2013-01-13T14:38:06Z</time>
      </trkpt>
      <trkpt lat="44.73693" lon="-0.30915">
        <ele>64</ele>
        <time>2013-01-13T14:38:13Z</time>
      </trkpt>
      <trkpt lat="44.73691" lon="-0.30915">
        <ele>65</ele>
        <time>2013-01-13T14:38:20Z</time>
      </trkpt>
      <trkpt lat="44.73688" lon="-0.30914">
        <ele>65</ele>
        <time>2013-01-13T14:38:27Z</time>
      </trkpt>
      <trkpt lat="44.73685" lon="-0.3091">
        <ele>65</ele>
        <time>2013-01-13T14:38:33Z</time>
      </trkpt>
      <trkpt lat="44.73683" lon="-0.30909">
        <ele>66</ele>
        <time>2013-01-13T14:38:39Z</time>
      </trkpt>
      <trkpt lat="44.73683" lon="-0.30909">
        <ele>66</ele>
        <time>2013-01-13T14:38:46Z</time>
      </trkpt>
      <trkpt lat="44.73679" lon="-0.30908">
        <ele>66</ele>
        <time>2013-01-13T14:38:54Z</time>
      </trkpt>
      <trkpt lat="44.73675" lon="-0.30908">
        <ele>67</ele>
        <time>2013-01-13T14:38:59Z</time>
      </trkpt>
      <trkpt lat="44.73673" lon="-0.30909">
        <ele>67</ele>
        <time>2013-01-13T14:39:02Z</time>
      </trkpt>
      <trkpt lat="44.73669" lon="-0.30914">
        <ele>67</ele>
        <time>2013-01-13T14:39:09Z</time>
      </trkpt>
      <trkpt lat="44.73666" lon="-0.30917">
        <ele>67</ele>
        <time>2013-01-13T14:39:16Z</time>
      </trkpt>
      <trkpt lat="44.73662" lon="-0.30923">
        <ele>67</ele>
        <time>2013-01-13T14:39:24Z</time>
      </trkpt>
      <trkpt lat="44.73659" lon="-0.3093">
        <ele>67</ele>
        <time>2013-01-13T14:39:31Z</time>
      </trkpt>
      <trkpt lat="44.73657" lon="-0.30934">
        <ele>67</ele>
        <time>2013-01-13T14:39:39Z</time>
      </trkpt>
      <trkpt lat="44.73657" lon="-0.30933">
        <ele>67</ele>
        <time>2013-01-13T14:39:49Z</time>
      </trkpt>
      <trkpt lat="44.73657" lon="-0.30933">
        <ele>67</ele>
        <time>2013-01-13T14:39:59Z</time>
      </trkpt>
      <trkpt lat="44.73657" lon="-0.30933">
        <ele>67</ele>
        <time>2013-01-13T14:40:13Z</time>
      </trkpt>
      <trkpt lat="44.73658" lon="-0.30932">
        <ele>67</ele>
        <time>2013-01-13T14:40:25Z</time>
      </trkpt>
      <trkpt lat="44.73658" lon="-0.30933">
        <ele>67</ele>
        <time>2013-01-13T14:40:44Z</time>
      </trkpt>
      <trkpt lat="44.73658" lon="-0.30933">
        <ele>67</ele>
        <time>2013-01-13T14:41:03Z</time>
      </trkpt>
      <trkpt lat="44.73658" lon="-0.30933">
        <ele>67</ele>
        <time>2013-01-13T14:41:21Z</time>
      </trkpt>
      <trkpt lat="44.73657" lon="-0.30936">
        <ele>67</ele>
        <time>2013-01-13T14:41:29Z</time>
      </trkpt>
      <trkpt lat="44.73657" lon="-0.30937">
        <ele>67</ele>
        <time>2013-01-13T14:41:30Z</time>
      </trkpt>
      <trkpt lat="44.73648" lon="-0.30956">
        <ele>67</ele>
        <time>2013-01-13T14:41:38Z</time>
      </trkpt>
      <trkpt lat="44.73641" lon="-0.30978">
        <ele>67</ele>
        <time>2013-01-13T14:41:45Z</time>
      </trkpt>
      <trkpt lat="44.73636" lon="-0.31005">
        <ele>66</ele>
        <time>2013-01-13T14:41:52Z</time>
      </trkpt>
      <trkpt lat="44.73635" lon="-0.31014">
        <ele>65</ele>
        <time>2013-01-13T14:41:57Z</time>
      </trkpt>
      <trkpt lat="44.7363" lon="-0.3103">
        <ele>63</ele>
        <time>2013-01-13T14:42:02Z</time>
      </trkpt>
      <trkpt lat="44.73623" lon="-0.31046">
        <ele>62</ele>
        <time>2013-01-13T14:42:08Z</time>
      </trkpt>
      <trkpt lat="44.73616" lon="-0.31063">
        <ele>61</ele>
        <time>2013-01-13T14:42:14Z</time>
      </trkpt>
      <trkpt lat="44.73603" lon="-0.31085">
        <ele>60</ele>
        <time>2013-01-13T14:42:21Z</time>
      </trkpt>
      <trkpt lat="44.73599" lon="-0.31096">
        <ele>60</ele>
        <time>2013-01-13T14:42:27Z</time>
      </trkpt>
      <trkpt lat="44.73597" lon="-0.31099">
        <ele>60</ele>
        <time>2013-01-13T14:42:29Z</time>
      </trkpt>
      <trkpt lat="44.73585" lon="-0.31097">
        <ele>60</ele>
        <time>2013-01-13T14:42:37Z</time>
      </trkpt>
      <trkpt lat="44.73573" lon="-0.31091">
        <ele>61</ele>
        <time>2013-01-13T14:42:45Z</time>
      </trkpt>
      <trkpt lat="44.73566" lon="-0.31087">
        <ele>61</ele>
        <time>2013-01-13T14:42:50Z</time>
      </trkpt>
      <trkpt lat="44.73556" lon="-0.31078">
        <ele>61</ele>
        <time>2013-01-13T14:42:57Z</time>
      </trkpt>
      <trkpt lat="44.73551" lon="-0.31074">
        <ele>61</ele>
        <time>2013-01-13T14:43:01Z</time>
      </trkpt>
      <trkpt lat="44.73539" lon="-0.31065">
        <ele>61</ele>
        <time>2013-01-13T14:43:10Z</time>
      </trkpt>
      <trkpt lat="44.73529" lon="-0.31057">
        <ele>62</ele>
        <time>2013-01-13T14:43:18Z</time>
      </trkpt>
      <trkpt lat="44.73518" lon="-0.31049">
        <ele>64</ele>
        <time>2013-01-13T14:43:27Z</time>
      </trkpt>
      <trkpt lat="44.73506" lon="-0.31043">
        <ele>65</ele>
        <time>2013-01-13T14:43:36Z</time>
      </trkpt>
      <trkpt lat="44.73496" lon="-0.31035">
        <ele>65</ele>
        <time>2013-01-13T14:43:44Z</time>
      </trkpt>
      <trkpt lat="44.73492" lon="-0.31033">
        <ele>66</ele>
        <time>2013-01-13T14:43:51Z</time>
      </trkpt>
      <trkpt lat="44.73489" lon="-0.31031">
        <ele>66</ele>
        <time>2013-01-13T14:43:58Z</time>
      </trkpt>
      <trkpt lat="44.73488" lon="-0.31033">
        <ele>66</ele>
        <time>2013-01-13T14:44:01Z</time>
      </trkpt>
      <trkpt lat="44.73487" lon="-0.31038">
        <ele>66</ele>
        <time>2013-01-13T14:44:09Z</time>
      </trkpt>
      <trkpt lat="44.73486" lon="-0.31043">
        <ele>66</ele>
        <time>2013-01-13T14:44:16Z</time>
      </trkpt>
      <trkpt lat="44.73484" lon="-0.31051">
        <ele>67</ele>
        <time>2013-01-13T14:44:23Z</time>
      </trkpt>
      <trkpt lat="44.73481" lon="-0.3106">
        <ele>67</ele>
        <time>2013-01-13T14:44:32Z</time>
      </trkpt>
      <trkpt lat="44.73479" lon="-0.31067">
        <ele>68</ele>
        <time>2013-01-13T14:44:39Z</time>
      </trkpt>
      <trkpt lat="44.73477" lon="-0.31074">
        <ele>69</ele>
        <time>2013-01-13T14:44:46Z</time>
      </trkpt>
      <trkpt lat="44.73475" lon="-0.3108">
        <ele>69</ele>
        <time>2013-01-13T14:44:53Z</time>
      </trkpt>
      <trkpt lat="44.73474" lon="-0.31086">
        <ele>70</ele>
        <time>2013-01-13T14:44:59Z</time>
      </trkpt>
      <trkpt lat="44.73473" lon="-0.31091">
        <ele>70</ele>
        <time>2013-01-13T14:45:05Z</time>
      </trkpt>
      <trkpt lat="44.73472" lon="-0.31096">
        <ele>71</ele>
        <time>2013-01-13T14:45:10Z</time>
      </trkpt>
      <trkpt lat="44.7347" lon="-0.31102">
        <ele>71</ele>
        <time>2013-01-13T14:45:17Z</time>
      </trkpt>
      <trkpt lat="44.7347" lon="-0.31103">
        <ele>71</ele>
        <time>2013-01-13T14:45:23Z</time>
      </trkpt>
      <trkpt lat="44.7347" lon="-0.31103">
        <ele>71</ele>
        <time>2013-01-13T14:45:24Z</time>
      </trkpt>
      <trkpt lat="44.73467" lon="-0.31111">
        <ele>72</ele>
        <time>2013-01-13T14:45:30Z</time>
      </trkpt>
      <trkpt lat="44.73465" lon="-0.31123">
        <ele>73</ele>
        <time>2013-01-13T14:45:37Z</time>
      </trkpt>
      <trkpt lat="44.73462" lon="-0.31134">
        <ele>73</ele>
        <time>2013-01-13T14:45:43Z</time>
      </trkpt>
      <trkpt lat="44.73458" lon="-0.31147">
        <ele>73</ele>
        <time>2013-01-13T14:45:50Z</time>
      </trkpt>
      <trkpt lat="44.73456" lon="-0.31153">
        <ele>73</ele>
        <time>2013-01-13T14:45:54Z</time>
      </trkpt>
      <trkpt lat="44.73454" lon="-0.31158">
        <ele>73</ele>
        <time>2013-01-13T14:46:00Z</time>
      </trkpt>
      <trkpt lat="44.73452" lon="-0.31161">
        <ele>73</ele>
        <time>2013-01-13T14:46:07Z</time>
      </trkpt>
      <trkpt lat="44.73449" lon="-0.31164">
        <ele>74</ele>
        <time>2013-01-13T14:46:15Z</time>
      </trkpt>
      <trkpt lat="44.73446" lon="-0.31164">
        <ele>74</ele>
        <time>2013-01-13T14:46:22Z</time>
      </trkpt>
      <trkpt lat="44.7344" lon="-0.31162">
        <ele>75</ele>
        <time>2013-01-13T14:46:30Z</time>
      </trkpt>
      <trkpt lat="44.73435" lon="-0.31159">
        <ele>76</ele>
        <time>2013-01-13T14:46:38Z</time>
      </trkpt>
      <trkpt lat="44.73434" lon="-0.31158">
        <ele>76</ele>
        <time>2013-01-13T14:46:44Z</time>
      </trkpt>
      <trkpt lat="44.73426" lon="-0.31151">
        <ele>77</ele>
        <time>2013-01-13T14:46:52Z</time>
      </trkpt>
      <trkpt lat="44.73424" lon="-0.31147">
        <ele>77</ele>
        <time>2013-01-13T14:46:55Z</time>
      </trkpt>
      <trkpt lat="44.73421" lon="-0.31144">
        <ele>78</ele>
        <time>2013-01-13T14:46:59Z</time>
      </trkpt>
      <trkpt lat="44.73417" lon="-0.31142">
        <ele>78</ele>
        <time>2013-01-13T14:47:03Z</time>
      </trkpt>
      <trkpt lat="44.73411" lon="-0.31137">
        <ele>79</ele>
        <time>2013-01-13T14:47:11Z</time>
      </trkpt>
      <trkpt lat="44.73409" lon="-0.31137">
        <ele>79</ele>
        <time>2013-01-13T14:47:16Z</time>
      </trkpt>
      <trkpt lat="44.73403" lon="-0.31133">
        <ele>80</ele>
        <time>2013-01-13T14:47:24Z</time>
      </trkpt>
      <trkpt lat="44.73398" lon="-0.31131">
        <ele>80</ele>
        <time>2013-01-13T14:47:32Z</time>
      </trkpt>
      <trkpt lat="44.73391" lon="-0.3113">
        <ele>81</ele>
        <time>2013-01-13T14:47:42Z</time>
      </trkpt>
      <trkpt lat="44.73387" lon="-0.31129">
        <ele>81</ele>
        <time>2013-01-13T14:47:48Z</time>
      </trkpt>
      <trkpt lat="44.73383" lon="-0.31128">
        <ele>81</ele>
        <time>2013-01-13T14:47:55Z</time>
      </trkpt>
      <trkpt lat="44.7338" lon="-0.31129">
        <ele>82</ele>
        <time>2013-01-13T14:48:01Z</time>
      </trkpt>
      <trkpt lat="44.73376" lon="-0.31129">
        <ele>82</ele>
        <time>2013-01-13T14:48:09Z</time>
      </trkpt>
      <trkpt lat="44.73375" lon="-0.31131">
        <ele>82</ele>
        <time>2013-01-13T14:48:16Z</time>
      </trkpt>
      <trkpt lat="44.7337" lon="-0.31132">
        <ele>82</ele>
        <time>2013-01-13T14:48:24Z</time>
      </trkpt>
      <trkpt lat="44.73365" lon="-0.31133">
        <ele>83</ele>
        <time>2013-01-13T14:48:31Z</time>
      </trkpt>
      <trkpt lat="44.73363" lon="-0.31132">
        <ele>83</ele>
        <time>2013-01-13T14:48:39Z</time>
      </trkpt>
      <trkpt lat="44.73358" lon="-0.31134">
        <ele>83</ele>
        <time>2013-01-13T14:48:47Z</time>
      </trkpt>
      <trkpt lat="44.73356" lon="-0.31133">
        <ele>84</ele>
        <time>2013-01-13T14:48:53Z</time>
      </trkpt>
      <trkpt lat="44.73349" lon="-0.31132">
        <ele>84</ele>
        <time>2013-01-13T14:49:01Z</time>
      </trkpt>
      <trkpt lat="44.73344" lon="-0.31133">
        <ele>84</ele>
        <time>2013-01-13T14:49:08Z</time>
      </trkpt>
      <trkpt lat="44.73337" lon="-0.31131">
        <ele>85</ele>
        <time>2013-01-13T14:49:13Z</time>
      </trkpt>
      <trkpt lat="44.7332" lon="-0.31133">
        <ele>86</ele>
        <time>2013-01-13T14:49:26Z</time>
      </trkpt>
      <trkpt lat="44.73306" lon="-0.31133">
        <ele>87</ele>
        <time>2013-01-13T14:49:36Z</time>
      </trkpt>
      <trkpt lat="44.73295" lon="-0.31135">
        <ele>88</ele>
        <time>2013-01-13T14:49:45Z</time>
      </trkpt>
      <trkpt lat="44.73287" lon="-0.31137">
        <ele>89</ele>
        <time>2013-01-13T14:49:54Z</time>
      </trkpt>
      <trkpt lat="44.73285" lon="-0.31137">
        <ele>89</ele>
        <time>2013-01-13T14:50:00Z</time>
      </trkpt>
      <trkpt lat="44.73279" lon="-0.31137">
        <ele>90</ele>
        <time>2013-01-13T14:50:09Z</time>
      </trkpt>
      <trkpt lat="44.73276" lon="-0.31138">
        <ele>90</ele>
        <time>2013-01-13T14:50:17Z</time>
      </trkpt>
      <trkpt lat="44.73271" lon="-0.31138">
        <ele>90</ele>
        <time>2013-01-13T14:50:24Z</time>
      </trkpt>
      <trkpt lat="44.73264" lon="-0.31138">
        <ele>91</ele>
        <time>2013-01-13T14:50:34Z</time>
      </trkpt>
      <trkpt lat="44.7326" lon="-0.31139">
        <ele>91</ele>
        <time>2013-01-13T14:50:41Z</time>
      </trkpt>
      <trkpt lat="44.73254" lon="-0.31139">
        <ele>92</ele>
        <time>2013-01-13T14:50:50Z</time>
      </trkpt>
      <trkpt lat="44.73251" lon="-0.3114">
        <ele>92</ele>
        <time>2013-01-13T14:50:57Z</time>
      </trkpt>
      <trkpt lat="44.73246" lon="-0.3114">
        <ele>92</ele>
        <time>2013-01-13T14:51:05Z</time>
      </trkpt>
      <trkpt lat="44.73241" lon="-0.3114">
        <ele>93</ele>
        <time>2013-01-13T14:51:12Z</time>
      </trkpt>
      <trkpt lat="44.73236" lon="-0.3114">
        <ele>93</ele>
        <time>2013-01-13T14:51:18Z</time>
      </trkpt>
      <trkpt lat="44.73231" lon="-0.31139">
        <ele>93</ele>
        <time>2013-01-13T14:51:27Z</time>
      </trkpt>
      <trkpt lat="44.73229" lon="-0.31139">
        <ele>94</ele>
        <time>2013-01-13T14:51:33Z</time>
      </trkpt>
      <trkpt lat="44.73223" lon="-0.31139">
        <ele>94</ele>
        <time>2013-01-13T14:51:41Z</time>
      </trkpt>
      <trkpt lat="44.73218" lon="-0.3114">
        <ele>95</ele>
        <time>2013-01-13T14:51:48Z</time>
      </trkpt>
      <trkpt lat="44.73217" lon="-0.31139">
        <ele>95</ele>
        <time>2013-01-13T14:51:54Z</time>
      </trkpt>
      <trkpt lat="44.73216" lon="-0.31139">
        <ele>95</ele>
        <time>2013-01-13T14:52:05Z</time>
      </trkpt>
      <trkpt lat="44.73212" lon="-0.31139">
        <ele>96</ele>
        <time>2013-01-13T14:52:12Z</time>
      </trkpt>
      <trkpt lat="44.73205" lon="-0.31139">
        <ele>96</ele>
        <time>2013-01-13T14:52:19Z</time>
      </trkpt>
      <trkpt lat="44.73201" lon="-0.31139">
        <ele>97</ele>
        <time>2013-01-13T14:52:24Z</time>
      </trkpt>
      <trkpt lat="44.73192" lon="-0.3114">
        <ele>98</ele>
        <time>2013-01-13T14:52:33Z</time>
      </trkpt>
      <trkpt lat="44.73185" lon="-0.3114">
        <ele>99</ele>
        <time>2013-01-13T14:52:40Z</time>
      </trkpt>
      <trkpt lat="44.73178" lon="-0.3114">
        <ele>100</ele>
        <time>2013-01-13T14:52:48Z</time>
      </trkpt>
      <trkpt lat="44.73173" lon="-0.3114">
        <ele>100</ele>
        <time>2013-01-13T14:52:57Z</time>
      </trkpt>
      <trkpt lat="44.73168" lon="-0.3114">
        <ele>101</ele>
        <time>2013-01-13T14:53:05Z</time>
      </trkpt>
      <trkpt lat="44.73162" lon="-0.31139">
        <ele>101</ele>
        <time>2013-01-13T14:53:15Z</time>
      </trkpt>
      <trkpt lat="44.7316" lon="-0.3114">
        <ele>102</ele>
        <time>2013-01-13T14:53:24Z</time>
      </trkpt>
      <trkpt lat="44.7316" lon="-0.31141">
        <ele>102</ele>
        <time>2013-01-13T14:53:36Z</time>
      </trkpt>
      <trkpt lat="44.73159" lon="-0.31141">
        <ele>102</ele>
        <time>2013-01-13T14:53:47Z</time>
      </trkpt>
      <trkpt lat="44.73157" lon="-0.31141">
        <ele>102</ele>
        <time>2013-01-13T14:53:52Z</time>
      </trkpt>
      <trkpt lat="44.73149" lon="-0.31147">
        <ele>103</ele>
        <time>2013-01-13T14:53:59Z</time>
      </trkpt>
      <trkpt lat="44.73138" lon="-0.31157">
        <ele>103</ele>
        <time>2013-01-13T14:54:07Z</time>
      </trkpt>
      <trkpt lat="44.73129" lon="-0.31164">
        <ele>104</ele>
        <time>2013-01-13T14:54:14Z</time>
      </trkpt>
      <trkpt lat="44.73119" lon="-0.31172">
        <ele>105</ele>
        <time>2013-01-13T14:54:21Z</time>
      </trkpt>
      <trkpt lat="44.73113" lon="-0.31178">
        <ele>105</ele>
        <time>2013-01-13T14:54:26Z</time>
      </trkpt>
      <trkpt lat="44.73101" lon="-0.31185">
        <ele>106</ele>
        <time>2013-01-13T14:54:35Z</time>
      </trkpt>
      <trkpt lat="44.73091" lon="-0.31193">
        <ele>107</ele>
        <time>2013-01-13T14:54:43Z</time>
      </trkpt>
      <trkpt lat="44.73087" lon="-0.312">
        <ele>107</ele>
        <time>2013-01-13T14:54:48Z</time>
      </trkpt>
      <trkpt lat="44.73082" lon="-0.31213">
        <ele>107</ele>
        <time>2013-01-13T14:54:56Z</time>
      </trkpt>
      <trkpt lat="44.7307" lon="-0.31214">
        <ele>107</ele>
        <time>2013-01-13T14:55:04Z</time>
      </trkpt>
      <trkpt lat="44.73062" lon="-0.31215">
        <ele>107</ele>
        <time>2013-01-13T14:55:10Z</time>
      </trkpt>
      <trkpt lat="44.73048" lon="-0.31215">
        <ele>107</ele>
        <time>2013-01-13T14:55:18Z</time>
      </trkpt>
      <trkpt lat="44.73045" lon="-0.31215">
        <ele>107</ele>
        <time>2013-01-13T14:55:19Z</time>
      </trkpt>
      <trkpt lat="44.73025" lon="-0.31217">
        <ele>107</ele>
        <time>2013-01-13T14:55:28Z</time>
      </trkpt>
      <trkpt lat="44.73002" lon="-0.31216">
        <ele>107</ele>
        <time>2013-01-13T14:55:38Z</time>
      </trkpt>
      <trkpt lat="44.72986" lon="-0.31217">
        <ele>106</ele>
        <time>2013-01-13T14:55:45Z</time>
      </trkpt>
      <trkpt lat="44.72966" lon="-0.31219">
        <ele>105</ele>
        <time>2013-01-13T14:55:53Z</time>
      </trkpt>
      <trkpt lat="44.72946" lon="-0.31222">
        <ele>104</ele>
        <time>2013-01-13T14:56:02Z</time>
      </trkpt>
      <trkpt lat="44.72939" lon="-0.31222">
        <ele>104</ele>
        <time>2013-01-13T14:56:05Z</time>
      </trkpt>
      <trkpt lat="44.72935" lon="-0.31218">
        <ele>104</ele>
        <time>2013-01-13T14:56:11Z</time>
      </trkpt>
      <trkpt lat="44.72933" lon="-0.31217">
        <ele>104</ele>
        <time>2013-01-13T14:56:15Z</time>
      </trkpt>
      <trkpt lat="44.72932" lon="-0.31217">
        <ele>104</ele>
        <time>2013-01-13T14:56:16Z</time>
      </trkpt>
      <trkpt lat="44.72918" lon="-0.31218">
        <ele>103</ele>
        <time>2013-01-13T14:56:24Z</time>
      </trkpt>
      <trkpt lat="44.72901" lon="-0.31221">
        <ele>103</ele>
        <time>2013-01-13T14:56:31Z</time>
      </trkpt>
      <trkpt lat="44.72877" lon="-0.31224">
        <ele>102</ele>
        <time>2013-01-13T14:56:40Z</time>
      </trkpt>
      <trkpt lat="44.72859" lon="-0.31224">
        <ele>102</ele>
        <time>2013-01-13T14:56:47Z</time>
      </trkpt>
      <trkpt lat="44.72842" lon="-0.31221">
        <ele>102</ele>
        <time>2013-01-13T14:56:54Z</time>
      </trkpt>
      <trkpt lat="44.72827" lon="-0.31214">
        <ele>103</ele>
        <time>2013-01-13T14:57:01Z</time>
      </trkpt>
      <trkpt lat="44.72805" lon="-0.31204">
        <ele>103</ele>
        <time>2013-01-13T14:57:11Z</time>
      </trkpt>
      <trkpt lat="44.72781" lon="-0.31192">
        <ele>103</ele>
        <time>2013-01-13T14:57:22Z</time>
      </trkpt>
      <trkpt lat="44.72767" lon="-0.31187">
        <ele>102</ele>
        <time>2013-01-13T14:57:28Z</time>
      </trkpt>
      <trkpt lat="44.72762" lon="-0.31197">
        <ele>102</ele>
        <time>2013-01-13T14:57:33Z</time>
      </trkpt>
      <trkpt lat="44.72755" lon="-0.31228">
        <ele>102</ele>
        <time>2013-01-13T14:57:43Z</time>
      </trkpt>
      <trkpt lat="44.72745" lon="-0.3125">
        <ele>102</ele>
        <time>2013-01-13T14:57:50Z</time>
      </trkpt>
      <trkpt lat="44.72726" lon="-0.31288">
        <ele>102</ele>
        <time>2013-01-13T14:58:00Z</time>
      </trkpt>
      <trkpt lat="44.72708" lon="-0.31325">
        <ele>101</ele>
        <time>2013-01-13T14:58:09Z</time>
      </trkpt>
      <trkpt lat="44.72685" lon="-0.3137">
        <ele>101</ele>
        <time>2013-01-13T14:58:20Z</time>
      </trkpt>
      <trkpt lat="44.7266" lon="-0.31419">
        <ele>98</ele>
        <time>2013-01-13T14:58:29Z</time>
      </trkpt>
      <trkpt lat="44.72644" lon="-0.31458">
        <ele>97</ele>
        <time>2013-01-13T14:58:37Z</time>
      </trkpt>
      <trkpt lat="44.72645" lon="-0.31462">
        <ele>97</ele>
        <time>2013-01-13T14:58:38Z</time>
      </trkpt>
      <trkpt lat="44.72647" lon="-0.31466">
        <ele>97</ele>
        <time>2013-01-13T14:58:39Z</time>
      </trkpt>
      <trkpt lat="44.7265" lon="-0.31469">
        <ele>97</ele>
        <time>2013-01-13T14:58:40Z</time>
      </trkpt>
      <trkpt lat="44.72675" lon="-0.31486">
        <ele>100</ele>
        <time>2013-01-13T14:58:48Z</time>
      </trkpt>
      <trkpt lat="44.72693" lon="-0.31497">
        <ele>101</ele>
        <time>2013-01-13T14:58:55Z</time>
      </trkpt>
      <trkpt lat="44.72716" lon="-0.31512">
        <ele>102</ele>
        <time>2013-01-13T14:59:04Z</time>
      </trkpt>
      <trkpt lat="44.72735" lon="-0.31525">
        <ele>102</ele>
        <time>2013-01-13T14:59:12Z</time>
      </trkpt>
      <trkpt lat="44.72757" lon="-0.31539">
        <ele>102</ele>
        <time>2013-01-13T14:59:21Z</time>
      </trkpt>
      <trkpt lat="44.72772" lon="-0.31555">
        <ele>102</ele>
        <time>2013-01-13T14:59:28Z</time>
      </trkpt>
      <trkpt lat="44.72772" lon="-0.31572">
        <ele>102</ele>
        <time>2013-01-13T14:59:33Z</time>
      </trkpt>
      <trkpt lat="44.72773" lon="-0.31585">
        <ele>102</ele>
        <time>2013-01-13T14:59:37Z</time>
      </trkpt>
      <trkpt lat="44.72774" lon="-0.31588">
        <ele>102</ele>
        <time>2013-01-13T14:59:38Z</time>
      </trkpt>
      <trkpt lat="44.72775" lon="-0.3159">
        <ele>102</ele>
        <time>2013-01-13T14:59:39Z</time>
      </trkpt>
      <trkpt lat="44.72776" lon="-0.31593">
        <ele>102</ele>
        <time>2013-01-13T14:59:40Z</time>
      </trkpt>
      <trkpt lat="44.72776" lon="-0.31597">
        <ele>102</ele>
        <time>2013-01-13T14:59:41Z</time>
      </trkpt>
      <trkpt lat="44.72776" lon="-0.316">
        <ele>102</ele>
        <time>2013-01-13T14:59:42Z</time>
      </trkpt>
      <trkpt lat="44.72777" lon="-0.31604">
        <ele>102</ele>
        <time>2013-01-13T14:59:43Z</time>
      </trkpt>
      <trkpt lat="44.72778" lon="-0.31607">
        <ele>101</ele>
        <time>2013-01-13T14:59:44Z</time>
      </trkpt>
      <trkpt lat="44.7278" lon="-0.3161">
        <ele>101</ele>
        <time>2013-01-13T14:59:45Z</time>
      </trkpt>
      <trkpt lat="44.72783" lon="-0.31612">
        <ele>101</ele>
        <time>2013-01-13T14:59:46Z</time>
      </trkpt>
      <trkpt lat="44.72785" lon="-0.31614">
        <ele>101</ele>
        <time>2013-01-13T14:59:47Z</time>
      </trkpt>
      <trkpt lat="44.72787" lon="-0.31616">
        <ele>101</ele>
        <time>2013-01-13T14:59:48Z</time>
      </trkpt>
      <trkpt lat="44.7279" lon="-0.31619">
        <ele>101</ele>
        <time>2013-01-13T14:59:50Z</time>
      </trkpt>
      <trkpt lat="44.72791" lon="-0.31625">
        <ele>100</ele>
        <time>2013-01-13T14:59:53Z</time>
      </trkpt>
      <trkpt lat="44.72791" lon="-0.31627">
        <ele>100</ele>
        <time>2013-01-13T14:59:54Z</time>
      </trkpt>
      <trkpt lat="44.72795" lon="-0.31646">
        <ele>100</ele>
        <time>2013-01-13T15:00:00Z</time>
      </trkpt>
      <trkpt lat="44.72796" lon="-0.31667">
        <ele>99</ele>
        <time>2013-01-13T15:00:07Z</time>
      </trkpt>
      <trkpt lat="44.72796" lon="-0.31687">
        <ele>100</ele>
        <time>2013-01-13T15:00:13Z</time>
      </trkpt>
      <trkpt lat="44.72797" lon="-0.31706">
        <ele>100</ele>
        <time>2013-01-13T15:00:20Z</time>
      </trkpt>
      <trkpt lat="44.72798" lon="-0.31712">
        <ele>100</ele>
        <time>2013-01-13T15:00:22Z</time>
      </trkpt>
      <trkpt lat="44.72797" lon="-0.31715">
        <ele>100</ele>
        <time>2013-01-13T15:00:23Z</time>
      </trkpt>
      <trkpt lat="44.72797" lon="-0.31718">
        <ele>100</ele>
        <time>2013-01-13T15:00:24Z</time>
      </trkpt>
      <trkpt lat="44.72797" lon="-0.31721">
        <ele>100</ele>
        <time>2013-01-13T15:00:25Z</time>
      </trkpt>
      <trkpt lat="44.72797" lon="-0.31724">
        <ele>100</ele>
        <time>2013-01-13T15:00:26Z</time>
      </trkpt>
      <trkpt lat="44.72797" lon="-0.31728">
        <ele>100</ele>
        <time>2013-01-13T15:00:27Z</time>
      </trkpt>
      <trkpt lat="44.72798" lon="-0.31734">
        <ele>100</ele>
        <time>2013-01-13T15:00:29Z</time>
      </trkpt>
      <trkpt lat="44.72798" lon="-0.31737">
        <ele>100</ele>
        <time>2013-01-13T15:00:30Z</time>
      </trkpt>
      <trkpt lat="44.72798" lon="-0.3174">
        <ele>100</ele>
        <time>2013-01-13T15:00:31Z</time>
      </trkpt>
      <trkpt lat="44.72799" lon="-0.31744">
        <ele>100</ele>
        <time>2013-01-13T15:00:32Z</time>
      </trkpt>
      <trkpt lat="44.72799" lon="-0.31748">
        <ele>100</ele>
        <time>2013-01-13T15:00:33Z</time>
      </trkpt>
      <trkpt lat="44.72799" lon="-0.31752">
        <ele>100</ele>
        <time>2013-01-13T15:00:34Z</time>
      </trkpt>
      <trkpt lat="44.72802" lon="-0.31783">
        <ele>100</ele>
        <time>2013-01-13T15:00:42Z</time>
      </trkpt>
      <trkpt lat="44.72806" lon="-0.31808">
        <ele>100</ele>
        <time>2013-01-13T15:00:50Z</time>
      </trkpt>
      <trkpt lat="44.72807" lon="-0.3181">
        <ele>100</ele>
        <time>2013-01-13T15:00:51Z</time>
      </trkpt>
      <trkpt lat="44.72807" lon="-0.31812">
        <ele>100</ele>
        <time>2013-01-13T15:00:52Z</time>
      </trkpt>
      <trkpt lat="44.72808" lon="-0.31815">
        <ele>99</ele>
        <time>2013-01-13T15:00:53Z</time>
      </trkpt>
      <trkpt lat="44.72809" lon="-0.31818">
        <ele>99</ele>
        <time>2013-01-13T15:00:54Z</time>
      </trkpt>
      <trkpt lat="44.7281" lon="-0.31821">
        <ele>99</ele>
        <time>2013-01-13T15:00:55Z</time>
      </trkpt>
      <trkpt lat="44.72811" lon="-0.31823">
        <ele>99</ele>
        <time>2013-01-13T15:00:56Z</time>
      </trkpt>
      <trkpt lat="44.72819" lon="-0.31848">
        <ele>98</ele>
        <time>2013-01-13T15:01:03Z</time>
      </trkpt>
      <trkpt lat="44.72828" lon="-0.31868">
        <ele>96</ele>
        <time>2013-01-13T15:01:09Z</time>
      </trkpt>
      <trkpt lat="44.72833" lon="-0.31895">
        <ele>94</ele>
        <time>2013-01-13T15:01:15Z</time>
      </trkpt>
      <trkpt lat="44.72834" lon="-0.31904">
        <ele>94</ele>
        <time>2013-01-13T15:01:18Z</time>
      </trkpt>
      <trkpt lat="44.72835" lon="-0.31913">
        <ele>93</ele>
        <time>2013-01-13T15:01:25Z</time>
      </trkpt>
      <trkpt lat="44.72836" lon="-0.31914">
        <ele>93</ele>
        <time>2013-01-13T15:01:35Z</time>
      </trkpt>
      <trkpt lat="44.72836" lon="-0.31915">
        <ele>93</ele>
        <time>2013-01-13T15:01:43Z</time>
      </trkpt>
      <trkpt lat="44.72836" lon="-0.31915">
        <ele>93</ele>
        <time>2013-01-13T15:01:51Z</time>
      </trkpt>
      <trkpt lat="44.72836" lon="-0.31916">
        <ele>93</ele>
        <time>2013-01-13T15:01:55Z</time>
      </trkpt>
      <trkpt lat="44.72838" lon="-0.31922">
        <ele>92</ele>
        <time>2013-01-13T15:02:02Z</time>
      </trkpt>
      <trkpt lat="44.72837" lon="-0.31926">
        <ele>92</ele>
        <time>2013-01-13T15:02:08Z</time>
      </trkpt>
      <trkpt lat="44.72836" lon="-0.31938">
        <ele>91</ele>
        <time>2013-01-13T15:02:15Z</time>
      </trkpt>
      <trkpt lat="44.72837" lon="-0.31946">
        <ele>91</ele>
        <time>2013-01-13T15:02:18Z</time>
      </trkpt>
      <trkpt lat="44.72837" lon="-0.31962">
        <ele>90</ele>
        <time>2013-01-13T15:02:25Z</time>
      </trkpt>
      <trkpt lat="44.72836" lon="-0.31965">
        <ele>90</ele>
        <time>2013-01-13T15:02:26Z</time>
      </trkpt>
      <trkpt lat="44.72833" lon="-0.3197">
        <ele>89</ele>
        <time>2013-01-13T15:02:30Z</time>
      </trkpt>
      <trkpt lat="44.72823" lon="-0.31978">
        <ele>89</ele>
        <time>2013-01-13T15:02:37Z</time>
      </trkpt>
      <trkpt lat="44.72818" lon="-0.31982">
        <ele>89</ele>
        <time>2013-01-13T15:02:42Z</time>
      </trkpt>
      <trkpt lat="44.72826" lon="-0.31986">
        <ele>89</ele>
        <time>2013-01-13T15:02:49Z</time>
      </trkpt>
      <trkpt lat="44.72841" lon="-0.31989">
        <ele>88</ele>
        <time>2013-01-13T15:02:55Z</time>
      </trkpt>
      <trkpt lat="44.72847" lon="-0.3199">
        <ele>87</ele>
        <time>2013-01-13T15:02:57Z</time>
      </trkpt>
      <trkpt lat="44.72863" lon="-0.3199">
        <ele>86</ele>
        <time>2013-01-13T15:03:05Z</time>
      </trkpt>
      <trkpt lat="44.72867" lon="-0.31989">
        <ele>86</ele>
        <time>2013-01-13T15:03:06Z</time>
      </trkpt>
      <trkpt lat="44.72896" lon="-0.31985">
        <ele>84</ele>
        <time>2013-01-13T15:03:13Z</time>
      </trkpt>
      <trkpt lat="44.7292" lon="-0.31983">
        <ele>82</ele>
        <time>2013-01-13T15:03:20Z</time>
      </trkpt>
      <trkpt lat="44.72949" lon="-0.31981">
        <ele>80</ele>
        <time>2013-01-13T15:03:28Z</time>
      </trkpt>
      <trkpt lat="44.72981" lon="-0.31969">
        <ele>79</ele>
        <time>2013-01-13T15:03:37Z</time>
      </trkpt>
      <trkpt lat="44.73009" lon="-0.3196">
        <ele>77</ele>
        <time>2013-01-13T15:03:44Z</time>
      </trkpt>
      <trkpt lat="44.73034" lon="-0.31958">
        <ele>74</ele>
        <time>2013-01-13T15:03:51Z</time>
      </trkpt>
      <trkpt lat="44.73046" lon="-0.31958">
        <ele>73</ele>
        <time>2013-01-13T15:03:57Z</time>
      </trkpt>
      <trkpt lat="44.73055" lon="-0.31957">
        <ele>73</ele>
        <time>2013-01-13T15:04:03Z</time>
      </trkpt>
      <trkpt lat="44.73056" lon="-0.31957">
        <ele>73</ele>
        <time>2013-01-13T15:04:11Z</time>
      </trkpt>
      <trkpt lat="44.73061" lon="-0.31956">
        <ele>72</ele>
        <time>2013-01-13T15:04:17Z</time>
      </trkpt>
      <trkpt lat="44.73065" lon="-0.31954">
        <ele>72</ele>
        <time>2013-01-13T15:04:21Z</time>
      </trkpt>
      <trkpt lat="44.73068" lon="-0.31952">
        <ele>72</ele>
        <time>2013-01-13T15:04:24Z</time>
      </trkpt>
      <trkpt lat="44.7307" lon="-0.31952">
        <ele>71</ele>
        <time>2013-01-13T15:04:25Z</time>
      </trkpt>
      <trkpt lat="44.73072" lon="-0.31952">
        <ele>71</ele>
        <time>2013-01-13T15:04:26Z</time>
      </trkpt>
      <trkpt lat="44.73074" lon="-0.31952">
        <ele>71</ele>
        <time>2013-01-13T15:04:27Z</time>
      </trkpt>
      <trkpt lat="44.73077" lon="-0.31952">
        <ele>71</ele>
        <time>2013-01-13T15:04:28Z</time>
      </trkpt>
      <trkpt lat="44.73079" lon="-0.31952">
        <ele>70</ele>
        <time>2013-01-13T15:04:29Z</time>
      </trkpt>
      <trkpt lat="44.73081" lon="-0.31952">
        <ele>70</ele>
        <time>2013-01-13T15:04:30Z</time>
      </trkpt>
      <trkpt lat="44.73084" lon="-0.31953">
        <ele>70</ele>
        <time>2013-01-13T15:04:31Z</time>
      </trkpt>
      <trkpt lat="44.73087" lon="-0.31952">
        <ele>69</ele>
        <time>2013-01-13T15:04:32Z</time>
      </trkpt>
      <trkpt lat="44.7309" lon="-0.31952">
        <ele>69</ele>
        <time>2013-01-13T15:04:33Z</time>
      </trkpt>
      <trkpt lat="44.73093" lon="-0.31952">
        <ele>69</ele>
        <time>2013-01-13T15:04:34Z</time>
      </trkpt>
      <trkpt lat="44.73096" lon="-0.31952">
        <ele>68</ele>
        <time>2013-01-13T15:04:35Z</time>
      </trkpt>
      <trkpt lat="44.73099" lon="-0.31952">
        <ele>68</ele>
        <time>2013-01-13T15:04:36Z</time>
      </trkpt>
      <trkpt lat="44.73102" lon="-0.31953">
        <ele>67</ele>
        <time>2013-01-13T15:04:37Z</time>
      </trkpt>
      <trkpt lat="44.73104" lon="-0.31952">
        <ele>67</ele>
        <time>2013-01-13T15:04:38Z</time>
      </trkpt>
      <trkpt lat="44.7312" lon="-0.31948">
        <ele>65</ele>
        <time>2013-01-13T15:04:44Z</time>
      </trkpt>
      <trkpt lat="44.73143" lon="-0.31937">
        <ele>62</ele>
        <time>2013-01-13T15:04:52Z</time>
      </trkpt>
      <trkpt lat="44.73162" lon="-0.31926">
        <ele>59</ele>
        <time>2013-01-13T15:04:58Z</time>
      </trkpt>
      <trkpt lat="44.73181" lon="-0.31914">
        <ele>60</ele>
        <time>2013-01-13T15:05:05Z</time>
      </trkpt>
      <trkpt lat="44.73182" lon="-0.31912">
        <ele>60</ele>
        <time>2013-01-13T15:05:06Z</time>
      </trkpt>
      <trkpt lat="44.73183" lon="-0.31911">
        <ele>60</ele>
        <time>2013-01-13T15:05:07Z</time>
      </trkpt>
      <trkpt lat="44.73195" lon="-0.31902">
        <ele>60</ele>
        <time>2013-01-13T15:05:13Z</time>
      </trkpt>
      <trkpt lat="44.73206" lon="-0.31894">
        <ele>61</ele>
        <time>2013-01-13T15:05:20Z</time>
      </trkpt>
      <trkpt lat="44.73216" lon="-0.31888">
        <ele>61</ele>
        <time>2013-01-13T15:05:26Z</time>
      </trkpt>
      <trkpt lat="44.73222" lon="-0.31884">
        <ele>62</ele>
        <time>2013-01-13T15:05:30Z</time>
      </trkpt>
      <trkpt lat="44.73229" lon="-0.31881">
        <ele>62</ele>
        <time>2013-01-13T15:05:34Z</time>
      </trkpt>
      <trkpt lat="44.73235" lon="-0.31876">
        <ele>62</ele>
        <time>2013-01-13T15:05:39Z</time>
      </trkpt>
      <trkpt lat="44.73238" lon="-0.31875">
        <ele>62</ele>
        <time>2013-01-13T15:05:40Z</time>
      </trkpt>
      <trkpt lat="44.73239" lon="-0.31873">
        <ele>63</ele>
        <time>2013-01-13T15:05:42Z</time>
      </trkpt>
      <trkpt lat="44.73246" lon="-0.3187">
        <ele>63</ele>
        <time>2013-01-13T15:05:45Z</time>
      </trkpt>
      <trkpt lat="44.73265" lon="-0.31861">
        <ele>64</ele>
        <time>2013-01-13T15:05:54Z</time>
      </trkpt>
      <trkpt lat="44.73273" lon="-0.31858">
        <ele>64</ele>
        <time>2013-01-13T15:05:58Z</time>
      </trkpt>
      <trkpt lat="44.73282" lon="-0.31853">
        <ele>64</ele>
        <time>2013-01-13T15:06:05Z</time>
      </trkpt>
      <trkpt lat="44.73284" lon="-0.31851">
        <ele>64</ele>
        <time>2013-01-13T15:06:13Z</time>
      </trkpt>
      <trkpt lat="44.7329" lon="-0.31849">
        <ele>64</ele>
        <time>2013-01-13T15:06:20Z</time>
      </trkpt>
      <trkpt lat="44.73292" lon="-0.31849">
        <ele>64</ele>
        <time>2013-01-13T15:06:21Z</time>
      </trkpt>
      <trkpt lat="44.73302" lon="-0.31844">
        <ele>65</ele>
        <time>2013-01-13T15:06:28Z</time>
      </trkpt>
      <trkpt lat="44.73303" lon="-0.31844">
        <ele>65</ele>
        <time>2013-01-13T15:06:29Z</time>
      </trkpt>
      <trkpt lat="44.73313" lon="-0.3184">
        <ele>64</ele>
        <time>2013-01-13T15:06:36Z</time>
      </trkpt>
      <trkpt lat="44.73324" lon="-0.31836">
        <ele>64</ele>
        <time>2013-01-13T15:06:42Z</time>
      </trkpt>
      <trkpt lat="44.73337" lon="-0.31832">
        <ele>63</ele>
        <time>2013-01-13T15:06:47Z</time>
      </trkpt>
      <trkpt lat="44.73354" lon="-0.31822">
        <ele>62</ele>
        <time>2013-01-13T15:06:54Z</time>
      </trkpt>
      <trkpt lat="44.73374" lon="-0.31811">
        <ele>60</ele>
        <time>2013-01-13T15:07:01Z</time>
      </trkpt>
      <trkpt lat="44.73393" lon="-0.31798">
        <ele>57</ele>
        <time>2013-01-13T15:07:09Z</time>
      </trkpt>
      <trkpt lat="44.734" lon="-0.31798">
        <ele>57</ele>
        <time>2013-01-13T15:07:12Z</time>
      </trkpt>
      <trkpt lat="44.73412" lon="-0.31811">
        <ele>55</ele>
        <time>2013-01-13T15:07:20Z</time>
      </trkpt>
      <trkpt lat="44.73416" lon="-0.31816">
        <ele>54</ele>
        <time>2013-01-13T15:07:22Z</time>
      </trkpt>
      <trkpt lat="44.73429" lon="-0.31833">
        <ele>53</ele>
        <time>2013-01-13T15:07:29Z</time>
      </trkpt>
      <trkpt lat="44.73442" lon="-0.31844">
        <ele>52</ele>
        <time>2013-01-13T15:07:35Z</time>
      </trkpt>
      <trkpt lat="44.73456" lon="-0.31852">
        <ele>54</ele>
        <time>2013-01-13T15:07:41Z</time>
      </trkpt>
      <trkpt lat="44.73469" lon="-0.31859">
        <ele>55</ele>
        <time>2013-01-13T15:07:47Z</time>
      </trkpt>
      <trkpt lat="44.73481" lon="-0.31868">
        <ele>57</ele>
        <time>2013-01-13T15:07:55Z</time>
      </trkpt>
      <trkpt lat="44.73495" lon="-0.31876">
        <ele>59</ele>
        <time>2013-01-13T15:08:03Z</time>
      </trkpt>
      <trkpt lat="44.7351" lon="-0.31891">
        <ele>61</ele>
        <time>2013-01-13T15:08:12Z</time>
      </trkpt>
      <trkpt lat="44.73518" lon="-0.31903">
        <ele>62</ele>
        <time>2013-01-13T15:08:19Z</time>
      </trkpt>
      <trkpt lat="44.73529" lon="-0.31916">
        <ele>64</ele>
        <time>2013-01-13T15:08:27Z</time>
      </trkpt>
      <trkpt lat="44.73539" lon="-0.31929">
        <ele>65</ele>
        <time>2013-01-13T15:08:35Z</time>
      </trkpt>
      <trkpt lat="44.73545" lon="-0.31939">
        <ele>66</ele>
        <time>2013-01-13T15:08:41Z</time>
      </trkpt>
      <trkpt lat="44.73553" lon="-0.3195">
        <ele>67</ele>
        <time>2013-01-13T15:08:49Z</time>
      </trkpt>
      <trkpt lat="44.7356" lon="-0.31956">
        <ele>67</ele>
        <time>2013-01-13T15:08:54Z</time>
      </trkpt>
      <trkpt lat="44.73568" lon="-0.31961">
        <ele>68</ele>
        <time>2013-01-13T15:09:01Z</time>
      </trkpt>
      <trkpt lat="44.73576" lon="-0.31966">
        <ele>68</ele>
        <time>2013-01-13T15:09:08Z</time>
      </trkpt>
      <trkpt lat="44.73578" lon="-0.3197">
        <ele>69</ele>
        <time>2013-01-13T15:09:15Z</time>
      </trkpt>
      <trkpt lat="44.73581" lon="-0.31972">
        <ele>69</ele>
        <time>2013-01-13T15:09:21Z</time>
      </trkpt>
      <trkpt lat="44.73583" lon="-0.31979">
        <ele>70</ele>
        <time>2013-01-13T15:09:29Z</time>
      </trkpt>
      <trkpt lat="44.73585" lon="-0.31986">
        <ele>70</ele>
        <time>2013-01-13T15:09:37Z</time>
      </trkpt>
      <trkpt lat="44.73586" lon="-0.31992">
        <ele>71</ele>
        <time>2013-01-13T15:09:45Z</time>
      </trkpt>
      <trkpt lat="44.73588" lon="-0.31997">
        <ele>71</ele>
        <time>2013-01-13T15:09:50Z</time>
      </trkpt>
      <trkpt lat="44.73589" lon="-0.32005">
        <ele>72</ele>
        <time>2013-01-13T15:09:58Z</time>
      </trkpt>
      <trkpt lat="44.73589" lon="-0.32008">
        <ele>73</ele>
        <time>2013-01-13T15:10:07Z</time>
      </trkpt>
      <trkpt lat="44.7359" lon="-0.32016">
        <ele>73</ele>
        <time>2013-01-13T15:10:13Z</time>
      </trkpt>
      <trkpt lat="44.73593" lon="-0.32031">
        <ele>74</ele>
        <time>2013-01-13T15:10:22Z</time>
      </trkpt>
      <trkpt lat="44.73596" lon="-0.32041">
        <ele>74</ele>
        <time>2013-01-13T15:10:29Z</time>
      </trkpt>
      <trkpt lat="44.73597" lon="-0.32053">
        <ele>75</ele>
        <time>2013-01-13T15:10:37Z</time>
      </trkpt>
      <trkpt lat="44.73598" lon="-0.32069">
        <ele>75</ele>
        <time>2013-01-13T15:10:45Z</time>
      </trkpt>
      <trkpt lat="44.73598" lon="-0.32079">
        <ele>76</ele>
        <time>2013-01-13T15:10:51Z</time>
      </trkpt>
      <trkpt lat="44.73598" lon="-0.3208">
        <ele>76</ele>
        <time>2013-01-13T15:10:52Z</time>
      </trkpt>
      <trkpt lat="44.73598" lon="-0.32094">
        <ele>76</ele>
        <time>2013-01-13T15:10:59Z</time>
      </trkpt>
      <trkpt lat="44.73596" lon="-0.3211">
        <ele>77</ele>
        <time>2013-01-13T15:11:06Z</time>
      </trkpt>
      <trkpt lat="44.73593" lon="-0.32118">
        <ele>77</ele>
        <time>2013-01-13T15:11:10Z</time>
      </trkpt>
      <trkpt lat="44.73588" lon="-0.32133">
        <ele>77</ele>
        <time>2013-01-13T15:11:17Z</time>
      </trkpt>
      <trkpt lat="44.73582" lon="-0.32151">
        <ele>77</ele>
        <time>2013-01-13T15:11:26Z</time>
      </trkpt>
      <trkpt lat="44.73572" lon="-0.32172">
        <ele>77</ele>
        <time>2013-01-13T15:11:36Z</time>
      </trkpt>
      <trkpt lat="44.73564" lon="-0.32186">
        <ele>77</ele>
        <time>2013-01-13T15:11:44Z</time>
      </trkpt>
      <trkpt lat="44.73554" lon="-0.322">
        <ele>78</ele>
        <time>2013-01-13T15:11:51Z</time>
      </trkpt>
      <trkpt lat="44.73544" lon="-0.32213">
        <ele>79</ele>
        <time>2013-01-13T15:11:59Z</time>
      </trkpt>
      <trkpt lat="44.73536" lon="-0.32222">
        <ele>80</ele>
        <time>2013-01-13T15:12:05Z</time>
      </trkpt>
      <trkpt lat="44.73528" lon="-0.32228">
        <ele>80</ele>
        <time>2013-01-13T15:12:09Z</time>
      </trkpt>
      <trkpt lat="44.73518" lon="-0.32238">
        <ele>81</ele>
        <time>2013-01-13T15:12:16Z</time>
      </trkpt>
      <trkpt lat="44.73517" lon="-0.32239">
        <ele>81</ele>
        <time>2013-01-13T15:12:17Z</time>
      </trkpt>
      <trkpt lat="44.73509" lon="-0.32249">
        <ele>82</ele>
        <time>2013-01-13T15:12:25Z</time>
      </trkpt>
      <trkpt lat="44.73504" lon="-0.32257">
        <ele>83</ele>
        <time>2013-01-13T15:12:32Z</time>
      </trkpt>
      <trkpt lat="44.73503" lon="-0.32258">
        <ele>83</ele>
        <time>2013-01-13T15:12:33Z</time>
      </trkpt>
      <trkpt lat="44.73496" lon="-0.32266">
        <ele>84</ele>
        <time>2013-01-13T15:12:40Z</time>
      </trkpt>
      <trkpt lat="44.73493" lon="-0.32273">
        <ele>85</ele>
        <time>2013-01-13T15:12:48Z</time>
      </trkpt>
      <trkpt lat="44.73487" lon="-0.3228">
        <ele>85</ele>
        <time>2013-01-13T15:12:55Z</time>
      </trkpt>
      <trkpt lat="44.73484" lon="-0.32282">
        <ele>85</ele>
        <time>2013-01-13T15:13:01Z</time>
      </trkpt>
      <trkpt lat="44.7348" lon="-0.32286">
        <ele>85</ele>
        <time>2013-01-13T15:13:09Z</time>
      </trkpt>
      <trkpt lat="44.73478" lon="-0.32288">
        <ele>85</ele>
        <time>2013-01-13T15:13:16Z</time>
      </trkpt>
      <trkpt lat="44.73477" lon="-0.3229">
        <ele>85</ele>
        <time>2013-01-13T15:13:32Z</time>
      </trkpt>
      <trkpt lat="44.73477" lon="-0.32291">
        <ele>86</ele>
        <time>2013-01-13T15:13:50Z</time>
      </trkpt>
      <trkpt lat="44.73474" lon="-0.32295">
        <ele>86</ele>
        <time>2013-01-13T15:13:55Z</time>
      </trkpt>
      <trkpt lat="44.73468" lon="-0.32304">
        <ele>86</ele>
        <time>2013-01-13T15:14:01Z</time>
      </trkpt>
      <trkpt lat="44.73459" lon="-0.32316">
        <ele>86</ele>
        <time>2013-01-13T15:14:07Z</time>
      </trkpt>
      <trkpt lat="44.7345" lon="-0.32326">
        <ele>85</ele>
        <time>2013-01-13T15:14:13Z</time>
      </trkpt>
      <trkpt lat="44.73442" lon="-0.32335">
        <ele>84</ele>
        <time>2013-01-13T15:14:18Z</time>
      </trkpt>
      <trkpt lat="44.7343" lon="-0.32343">
        <ele>83</ele>
        <time>2013-01-13T15:14:24Z</time>
      </trkpt>
      <trkpt lat="44.73419" lon="-0.32354">
        <ele>82</ele>
        <time>2013-01-13T15:14:29Z</time>
      </trkpt>
      <trkpt lat="44.73408" lon="-0.32369">
        <ele>81</ele>
        <time>2013-01-13T15:14:35Z</time>
      </trkpt>
      <trkpt lat="44.73401" lon="-0.3238">
        <ele>80</ele>
        <time>2013-01-13T15:14:41Z</time>
      </trkpt>
      <trkpt lat="44.7339" lon="-0.32397">
        <ele>80</ele>
        <time>2013-01-13T15:14:47Z</time>
      </trkpt>
      <trkpt lat="44.73377" lon="-0.3242">
        <ele>80</ele>
        <time>2013-01-13T15:14:54Z</time>
      </trkpt>
      <trkpt lat="44.73368" lon="-0.32435">
        <ele>81</ele>
        <time>2013-01-13T15:15:00Z</time>
      </trkpt>
      <trkpt lat="44.73362" lon="-0.32441">
        <ele>81</ele>
        <time>2013-01-13T15:15:03Z</time>
      </trkpt>
      <trkpt lat="44.73359" lon="-0.32446">
        <ele>80</ele>
        <time>2013-01-13T15:15:10Z</time>
      </trkpt>
      <trkpt lat="44.73354" lon="-0.32451">
        <ele>80</ele>
        <time>2013-01-13T15:15:18Z</time>
      </trkpt>
      <trkpt lat="44.73353" lon="-0.32453">
        <ele>80</ele>
        <time>2013-01-13T15:15:25Z</time>
      </trkpt>
      <trkpt lat="44.73354" lon="-0.32461">
        <ele>80</ele>
        <time>2013-01-13T15:15:33Z</time>
      </trkpt>
      <trkpt lat="44.73356" lon="-0.32471">
        <ele>81</ele>
        <time>2013-01-13T15:15:42Z</time>
      </trkpt>
      <trkpt lat="44.73357" lon="-0.32474">
        <ele>82</ele>
        <time>2013-01-13T15:15:51Z</time>
      </trkpt>
      <trkpt lat="44.73359" lon="-0.3248">
        <ele>82</ele>
        <time>2013-01-13T15:15:58Z</time>
      </trkpt>
      <trkpt lat="44.7336" lon="-0.32485">
        <ele>83</ele>
        <time>2013-01-13T15:16:03Z</time>
      </trkpt>
      <trkpt lat="44.73363" lon="-0.32493">
        <ele>84</ele>
        <time>2013-01-13T15:16:08Z</time>
      </trkpt>
      <trkpt lat="44.73363" lon="-0.32496">
        <ele>84</ele>
        <time>2013-01-13T15:16:09Z</time>
      </trkpt>
      <trkpt lat="44.73367" lon="-0.32505">
        <ele>85</ele>
        <time>2013-01-13T15:16:15Z</time>
      </trkpt>
      <trkpt lat="44.73372" lon="-0.32513">
        <ele>86</ele>
        <time>2013-01-13T15:16:22Z</time>
      </trkpt>
      <trkpt lat="44.73375" lon="-0.32519">
        <ele>86</ele>
        <time>2013-01-13T15:16:26Z</time>
      </trkpt>
      <trkpt lat="44.73377" lon="-0.32521">
        <ele>86</ele>
        <time>2013-01-13T15:16:28Z</time>
      </trkpt>
      <trkpt lat="44.73385" lon="-0.32536">
        <ele>86</ele>
        <time>2013-01-13T15:16:36Z</time>
      </trkpt>
      <trkpt lat="44.73389" lon="-0.32544">
        <ele>86</ele>
        <time>2013-01-13T15:16:40Z</time>
      </trkpt>
      <trkpt lat="44.73396" lon="-0.3256">
        <ele>86</ele>
        <time>2013-01-13T15:16:46Z</time>
      </trkpt>
      <trkpt lat="44.73402" lon="-0.32576">
        <ele>85</ele>
        <time>2013-01-13T15:16:53Z</time>
      </trkpt>
      <trkpt lat="44.73408" lon="-0.32587">
        <ele>84</ele>
        <time>2013-01-13T15:16:57Z</time>
      </trkpt>
      <trkpt lat="44.73414" lon="-0.32598">
        <ele>83</ele>
        <time>2013-01-13T15:17:02Z</time>
      </trkpt>
      <trkpt lat="44.73414" lon="-0.32619">
        <ele>81</ele>
        <time>2013-01-13T15:17:08Z</time>
      </trkpt>
      <trkpt lat="44.73411" lon="-0.32633">
        <ele>79</ele>
        <time>2013-01-13T15:17:14Z</time>
      </trkpt>
      <trkpt lat="44.73411" lon="-0.32634">
        <ele>79</ele>
        <time>2013-01-13T15:17:17Z</time>
      </trkpt>
      <trkpt lat="44.73407" lon="-0.32653">
        <ele>76</ele>
        <time>2013-01-13T15:17:24Z</time>
      </trkpt>
      <trkpt lat="44.73403" lon="-0.32664">
        <ele>75</ele>
        <time>2013-01-13T15:17:29Z</time>
      </trkpt>
      <trkpt lat="44.73401" lon="-0.3267">
        <ele>74</ele>
        <time>2013-01-13T15:17:32Z</time>
      </trkpt>
      <trkpt lat="44.73398" lon="-0.3269">
        <ele>72</ele>
        <time>2013-01-13T15:17:39Z</time>
      </trkpt>
      <trkpt lat="44.73397" lon="-0.32699">
        <ele>71</ele>
        <time>2013-01-13T15:17:42Z</time>
      </trkpt>
      <trkpt lat="44.73387" lon="-0.32727">
        <ele>67</ele>
        <time>2013-01-13T15:17:49Z</time>
      </trkpt>
      <trkpt lat="44.73385" lon="-0.32731">
        <ele>67</ele>
        <time>2013-01-13T15:17:51Z</time>
      </trkpt>
      <trkpt lat="44.73383" lon="-0.32753">
        <ele>64</ele>
        <time>2013-01-13T15:17:58Z</time>
      </trkpt>
      <trkpt lat="44.73386" lon="-0.32772">
        <ele>62</ele>
        <time>2013-01-13T15:18:03Z</time>
      </trkpt>
      <trkpt lat="44.73389" lon="-0.32794">
        <ele>59</ele>
        <time>2013-01-13T15:18:09Z</time>
      </trkpt>
      <trkpt lat="44.73389" lon="-0.32803">
        <ele>58</ele>
        <time>2013-01-13T15:18:13Z</time>
      </trkpt>
      <trkpt lat="44.73383" lon="-0.32822">
        <ele>55</ele>
        <time>2013-01-13T15:18:20Z</time>
      </trkpt>
      <trkpt lat="44.73382" lon="-0.32837">
        <ele>53</ele>
        <time>2013-01-13T15:18:26Z</time>
      </trkpt>
      <trkpt lat="44.73383" lon="-0.3284">
        <ele>52</ele>
        <time>2013-01-13T15:18:32Z</time>
      </trkpt>
      <trkpt lat="44.73384" lon="-0.32841">
        <ele>52</ele>
        <time>2013-01-13T15:18:33Z</time>
      </trkpt>
      <trkpt lat="44.73393" lon="-0.32846">
        <ele>52</ele>
        <time>2013-01-13T15:18:40Z</time>
      </trkpt>
      <trkpt lat="44.73397" lon="-0.32847">
        <ele>52</ele>
        <time>2013-01-13T15:18:44Z</time>
      </trkpt>
      <trkpt lat="44.73405" lon="-0.32849">
        <ele>52</ele>
        <time>2013-01-13T15:18:49Z</time>
      </trkpt>
      <trkpt lat="44.73406" lon="-0.32847">
        <ele>52</ele>
        <time>2013-01-13T15:18:54Z</time>
      </trkpt>
      <trkpt lat="44.73407" lon="-0.32846">
        <ele>52</ele>
        <time>2013-01-13T15:18:55Z</time>
      </trkpt>
      <trkpt lat="44.7342" lon="-0.32847">
        <ele>52</ele>
        <time>2013-01-13T15:18:59Z</time>
      </trkpt>
      <trkpt lat="44.73434" lon="-0.32852">
        <ele>51</ele>
        <time>2013-01-13T15:19:01Z</time>
      </trkpt>
      <trkpt lat="44.73442" lon="-0.32863">
        <ele>50</ele>
        <time>2013-01-13T15:19:07Z</time>
      </trkpt>
      <trkpt lat="44.73442" lon="-0.32869">
        <ele>49</ele>
        <time>2013-01-13T15:19:09Z</time>
      </trkpt>
      <trkpt lat="44.73443" lon="-0.32887">
        <ele>47</ele>
        <time>2013-01-13T15:19:14Z</time>
      </trkpt>
      <trkpt lat="44.7344" lon="-0.329">
        <ele>48</ele>
        <time>2013-01-13T15:19:19Z</time>
      </trkpt>
      <trkpt lat="44.73431" lon="-0.32904">
        <ele>48</ele>
        <time>2013-01-13T15:19:23Z</time>
      </trkpt>
      <trkpt lat="44.7342" lon="-0.32901">
        <ele>48</ele>
        <time>2013-01-13T15:19:28Z</time>
      </trkpt>
      <trkpt lat="44.73407" lon="-0.3292">
        <ele>49</ele>
        <time>2013-01-13T15:19:36Z</time>
      </trkpt>
      <trkpt lat="44.73405" lon="-0.32922">
        <ele>49</ele>
        <time>2013-01-13T15:19:44Z</time>
      </trkpt>
      <trkpt lat="44.73405" lon="-0.32923">
        <ele>49</ele>
        <time>2013-01-13T15:19:56Z</time>
      </trkpt>
      <trkpt lat="44.73404" lon="-0.32924">
        <ele>49</ele>
        <time>2013-01-13T15:20:03Z</time>
      </trkpt>
      <trkpt lat="44.73402" lon="-0.32929">
        <ele>49</ele>
        <time>2013-01-13T15:20:12Z</time>
      </trkpt>
      <trkpt lat="44.73402" lon="-0.3293">
        <ele>49</ele>
        <time>2013-01-13T15:20:13Z</time>
      </trkpt>
      <trkpt lat="44.73403" lon="-0.32933">
        <ele>49</ele>
        <time>2013-01-13T15:20:15Z</time>
      </trkpt>
      <trkpt lat="44.73403" lon="-0.32944">
        <ele>50</ele>
        <time>2013-01-13T15:20:22Z</time>
      </trkpt>
      <trkpt lat="44.73405" lon="-0.32952">
        <ele>50</ele>
        <time>2013-01-13T15:20:27Z</time>
      </trkpt>
      <trkpt lat="44.73408" lon="-0.32959">
        <ele>51</ele>
        <time>2013-01-13T15:20:31Z</time>
      </trkpt>
      <trkpt lat="44.73413" lon="-0.32972">
        <ele>52</ele>
        <time>2013-01-13T15:20:38Z</time>
      </trkpt>
      <trkpt lat="44.73414" lon="-0.32983">
        <ele>53</ele>
        <time>2013-01-13T15:20:45Z</time>
      </trkpt>
      <trkpt lat="44.73413" lon="-0.32992">
        <ele>54</ele>
        <time>2013-01-13T15:20:53Z</time>
      </trkpt>
      <trkpt lat="44.73412" lon="-0.32993">
        <ele>54</ele>
        <time>2013-01-13T15:20:54Z</time>
      </trkpt>
      <trkpt lat="44.73407" lon="-0.33003">
        <ele>55</ele>
        <time>2013-01-13T15:21:01Z</time>
      </trkpt>
      <trkpt lat="44.73402" lon="-0.33011">
        <ele>56</ele>
        <time>2013-01-13T15:21:08Z</time>
      </trkpt>
      <trkpt lat="44.73398" lon="-0.33018">
        <ele>57</ele>
        <time>2013-01-13T15:21:14Z</time>
      </trkpt>
      <trkpt lat="44.73393" lon="-0.33025">
        <ele>57</ele>
        <time>2013-01-13T15:21:20Z</time>
      </trkpt>
      <trkpt lat="44.73383" lon="-0.33031">
        <ele>58</ele>
        <time>2013-01-13T15:21:28Z</time>
      </trkpt>
      <trkpt lat="44.73373" lon="-0.33032">
        <ele>58</ele>
        <time>2013-01-13T15:21:36Z</time>
      </trkpt>
      <trkpt lat="44.73369" lon="-0.33034">
        <ele>58</ele>
        <time>2013-01-13T15:21:39Z</time>
      </trkpt>
      <trkpt lat="44.73362" lon="-0.33036">
        <ele>59</ele>
        <time>2013-01-13T15:21:45Z</time>
      </trkpt>
      <trkpt lat="44.73351" lon="-0.33042">
        <ele>59</ele>
        <time>2013-01-13T15:21:54Z</time>
      </trkpt>
      <trkpt lat="44.7335" lon="-0.33044">
        <ele>59</ele>
        <time>2013-01-13T15:21:56Z</time>
      </trkpt>
      <trkpt lat="44.73349" lon="-0.33053">
        <ele>59</ele>
        <time>2013-01-13T15:22:01Z</time>
      </trkpt>
      <trkpt lat="44.7335" lon="-0.33066">
        <ele>60</ele>
        <time>2013-01-13T15:22:08Z</time>
      </trkpt>
      <trkpt lat="44.73349" lon="-0.33081">
        <ele>61</ele>
        <time>2013-01-13T15:22:16Z</time>
      </trkpt>
      <trkpt lat="44.73343" lon="-0.33099">
        <ele>62</ele>
        <time>2013-01-13T15:22:25Z</time>
      </trkpt>
      <trkpt lat="44.7334" lon="-0.33113">
        <ele>63</ele>
        <time>2013-01-13T15:22:32Z</time>
      </trkpt>
      <trkpt lat="44.7334" lon="-0.33123">
        <ele>63</ele>
        <time>2013-01-13T15:22:36Z</time>
      </trkpt>
      <trkpt lat="44.73351" lon="-0.3313">
        <ele>64</ele>
        <time>2013-01-13T15:22:44Z</time>
      </trkpt>
      <trkpt lat="44.73366" lon="-0.33135">
        <ele>64</ele>
        <time>2013-01-13T15:22:52Z</time>
      </trkpt>
      <trkpt lat="44.73391" lon="-0.33145">
        <ele>64</ele>
        <time>2013-01-13T15:23:03Z</time>
      </trkpt>
      <trkpt lat="44.7341" lon="-0.33155">
        <ele>65</ele>
        <time>2013-01-13T15:23:12Z</time>
      </trkpt>
      <trkpt lat="44.73425" lon="-0.33164">
        <ele>68</ele>
        <time>2013-01-13T15:23:21Z</time>
      </trkpt>
      <trkpt lat="44.73437" lon="-0.3317">
        <ele>70</ele>
        <time>2013-01-13T15:23:29Z</time>
      </trkpt>
      <trkpt lat="44.73448" lon="-0.33177">
        <ele>72</ele>
        <time>2013-01-13T15:23:36Z</time>
      </trkpt>
      <trkpt lat="44.73461" lon="-0.33189">
        <ele>72</ele>
        <time>2013-01-13T15:23:44Z</time>
      </trkpt>
      <trkpt lat="44.73467" lon="-0.33207">
        <ele>74</ele>
        <time>2013-01-13T15:23:53Z</time>
      </trkpt>
      <trkpt lat="44.73467" lon="-0.33212">
        <ele>74</ele>
        <time>2013-01-13T15:23:54Z</time>
      </trkpt>
      <trkpt lat="44.73468" lon="-0.33224">
        <ele>75</ele>
        <time>2013-01-13T15:24:00Z</time>
      </trkpt>
      <trkpt lat="44.73469" lon="-0.33241">
        <ele>76</ele>
        <time>2013-01-13T15:24:08Z</time>
      </trkpt>
      <trkpt lat="44.73469" lon="-0.33256">
        <ele>77</ele>
        <time>2013-01-13T15:24:15Z</time>
      </trkpt>
      <trkpt lat="44.73471" lon="-0.33269">
        <ele>78</ele>
        <time>2013-01-13T15:24:21Z</time>
      </trkpt>
      <trkpt lat="44.73472" lon="-0.33284">
        <ele>79</ele>
        <time>2013-01-13T15:24:28Z</time>
      </trkpt>
      <trkpt lat="44.73472" lon="-0.33288">
        <ele>80</ele>
        <time>2013-01-13T15:24:30Z</time>
      </trkpt>
      <trkpt lat="44.73474" lon="-0.33311">
        <ele>82</ele>
        <time>2013-01-13T15:24:40Z</time>
      </trkpt>
      <trkpt lat="44.73474" lon="-0.33325">
        <ele>83</ele>
        <time>2013-01-13T15:24:47Z</time>
      </trkpt>
      <trkpt lat="44.73476" lon="-0.33344">
        <ele>84</ele>
        <time>2013-01-13T15:24:56Z</time>
      </trkpt>
      <trkpt lat="44.73476" lon="-0.33351">
        <ele>85</ele>
        <time>2013-01-13T15:25:00Z</time>
      </trkpt>
      <trkpt lat="44.73477" lon="-0.33364">
        <ele>86</ele>
        <time>2013-01-13T15:25:07Z</time>
      </trkpt>
      <trkpt lat="44.73475" lon="-0.33372">
        <ele>86</ele>
        <time>2013-01-13T15:25:12Z</time>
      </trkpt>
      <trkpt lat="44.73473" lon="-0.33383">
        <ele>87</ele>
        <time>2013-01-13T15:25:19Z</time>
      </trkpt>
      <trkpt lat="44.73473" lon="-0.33385">
        <ele>87</ele>
        <time>2013-01-13T15:25:20Z</time>
      </trkpt>
      <trkpt lat="44.73471" lon="-0.33392">
        <ele>88</ele>
        <time>2013-01-13T15:25:25Z</time>
      </trkpt>
      <trkpt lat="44.73469" lon="-0.33399">
        <ele>88</ele>
        <time>2013-01-13T15:25:29Z</time>
      </trkpt>
      <trkpt lat="44.73463" lon="-0.33409">
        <ele>89</ele>
        <time>2013-01-13T15:25:36Z</time>
      </trkpt>
      <trkpt lat="44.73461" lon="-0.33412">
        <ele>89</ele>
        <time>2013-01-13T15:25:38Z</time>
      </trkpt>
      <trkpt lat="44.73458" lon="-0.33418">
        <ele>89</ele>
        <time>2013-01-13T15:25:42Z</time>
      </trkpt>
      <trkpt lat="44.7345" lon="-0.33429">
        <ele>90</ele>
        <time>2013-01-13T15:25:49Z</time>
      </trkpt>
      <trkpt lat="44.73441" lon="-0.33441">
        <ele>91</ele>
        <time>2013-01-13T15:25:57Z</time>
      </trkpt>
      <trkpt lat="44.73436" lon="-0.33455">
        <ele>92</ele>
        <time>2013-01-13T15:26:04Z</time>
      </trkpt>
      <trkpt lat="44.73427" lon="-0.3347">
        <ele>91</ele>
        <time>2013-01-13T15:26:13Z</time>
      </trkpt>
      <trkpt lat="44.73419" lon="-0.33482">
        <ele>92</ele>
        <time>2013-01-13T15:26:21Z</time>
      </trkpt>
      <trkpt lat="44.73416" lon="-0.33486">
        <ele>92</ele>
        <time>2013-01-13T15:26:27Z</time>
      </trkpt>
      <trkpt lat="44.73415" lon="-0.33487">
        <ele>92</ele>
        <time>2013-01-13T15:26:34Z</time>
      </trkpt>
      <trkpt lat="44.73414" lon="-0.33487">
        <ele>92</ele>
        <time>2013-01-13T15:26:43Z</time>
      </trkpt>
      <trkpt lat="44.73414" lon="-0.33487">
        <ele>92</ele>
        <time>2013-01-13T15:26:52Z</time>
      </trkpt>
      <trkpt lat="44.73414" lon="-0.33487">
        <ele>92</ele>
        <time>2013-01-13T15:27:03Z</time>
      </trkpt>
      <trkpt lat="44.73413" lon="-0.33487">
        <ele>92</ele>
        <time>2013-01-13T15:27:20Z</time>
      </trkpt>
      <trkpt lat="44.73414" lon="-0.33487">
        <ele>92</ele>
        <time>2013-01-13T15:27:29Z</time>
      </trkpt>
      <trkpt lat="44.73414" lon="-0.33487">
        <ele>92</ele>
        <time>2013-01-13T15:27:44Z</time>
      </trkpt>
      <trkpt lat="44.73414" lon="-0.33488">
        <ele>92</ele>
        <time>2013-01-13T15:27:57Z</time>
      </trkpt>
      <trkpt lat="44.73414" lon="-0.33489">
        <ele>92</ele>
        <time>2013-01-13T15:28:10Z</time>
      </trkpt>
      <trkpt lat="44.73415" lon="-0.33488">
        <ele>92</ele>
        <time>2013-01-13T15:28:18Z</time>
      </trkpt>
      <trkpt lat="44.73415" lon="-0.3349">
        <ele>92</ele>
        <time>2013-01-13T15:28:24Z</time>
      </trkpt>
      <trkpt lat="44.73414" lon="-0.3349">
        <ele>92</ele>
        <time>2013-01-13T15:28:36Z</time>
      </trkpt>
      <trkpt lat="44.73414" lon="-0.3349">
        <ele>92</ele>
        <time>2013-01-13T15:28:45Z</time>
      </trkpt>
      <trkpt lat="44.73415" lon="-0.33489">
        <ele>92</ele>
        <time>2013-01-13T15:28:55Z</time>
      </trkpt>
      <trkpt lat="44.73415" lon="-0.33489">
        <ele>92</ele>
        <time>2013-01-13T15:29:05Z</time>
      </trkpt>
      <trkpt lat="44.73415" lon="-0.3349">
        <ele>92</ele>
        <time>2013-01-13T15:29:12Z</time>
      </trkpt>
      <trkpt lat="44.73415" lon="-0.33489">
        <ele>92</ele>
        <time>2013-01-13T15:29:23Z</time>
      </trkpt>
      <trkpt lat="44.73414" lon="-0.33489">
        <ele>92</ele>
        <time>2013-01-13T15:29:30Z</time>
      </trkpt>
      <trkpt lat="44.73414" lon="-0.3349">
        <ele>92</ele>
        <time>2013-01-13T15:29:45Z</time>
      </trkpt>
      <trkpt lat="44.73414" lon="-0.33489">
        <ele>92</ele>
        <time>2013-01-13T15:29:56Z</time>
      </trkpt>
      <trkpt lat="44.73414" lon="-0.33489">
        <ele>92</ele>
        <time>2013-01-13T15:30:08Z</time>
      </trkpt>
      <trkpt lat="44.73414" lon="-0.3349">
        <ele>92</ele>
        <time>2013-01-13T15:30:19Z</time>
      </trkpt>
      <trkpt lat="44.73414" lon="-0.33491">
        <ele>92</ele>
        <time>2013-01-13T15:30:37Z</time>
      </trkpt>
      <trkpt lat="44.73414" lon="-0.33491">
        <ele>92</ele>
        <time>2013-01-13T15:30:48Z</time>
      </trkpt>
      <trkpt lat="44.73414" lon="-0.3349">
        <ele>92</ele>
        <time>2013-01-13T15:31:06Z</time>
      </trkpt>
      <trkpt lat="44.73413" lon="-0.3349">
        <ele>92</ele>
        <time>2013-01-13T15:31:26Z</time>
      </trkpt>
      <trkpt lat="44.73413" lon="-0.33491">
        <ele>92</ele>
        <time>2013-01-13T15:31:37Z</time>
      </trkpt>
      <trkpt lat="44.73412" lon="-0.33489">
        <ele>92</ele>
        <time>2013-01-13T15:31:57Z</time>
      </trkpt>
      <trkpt lat="44.73412" lon="-0.33489">
        <ele>92</ele>
        <time>2013-01-13T15:32:15Z</time>
      </trkpt>
      <trkpt lat="44.73412" lon="-0.33489">
        <ele>92</ele>
        <time>2013-01-13T15:32:30Z</time>
      </trkpt>
      <trkpt lat="44.73412" lon="-0.33489">
        <ele>92</ele>
        <time>2013-01-13T15:32:46Z</time>
      </trkpt>
      <trkpt lat="44.73413" lon="-0.3349">
        <ele>92</ele>
        <time>2013-01-13T15:33:00Z</time>
      </trkpt>
      <trkpt lat="44.73413" lon="-0.33489">
        <ele>92</ele>
        <time>2013-01-13T15:33:18Z</time>
      </trkpt>
      <trkpt lat="44.73413" lon="-0.33489">
        <ele>92</ele>
        <time>2013-01-13T15:33:31Z</time>
      </trkpt>
      <trkpt lat="44.73412" lon="-0.33489">
        <ele>92</ele>
        <time>2013-01-13T15:33:44Z</time>
      </trkpt>
      <trkpt lat="44.73412" lon="-0.33488">
        <ele>92</ele>
        <time>2013-01-13T15:34:04Z</time>
      </trkpt>
      <trkpt lat="44.73413" lon="-0.33488">
        <ele>92</ele>
        <time>2013-01-13T15:34:22Z</time>
      </trkpt>
      <trkpt lat="44.73413" lon="-0.33489">
        <ele>92</ele>
        <time>2013-01-13T15:34:33Z</time>
      </trkpt>
      <trkpt lat="44.73413" lon="-0.33489">
        <ele>92</ele>
        <time>2013-01-13T15:34:41Z</time>
      </trkpt>
      <trkpt lat="44.73412" lon="-0.3349">
        <ele>92</ele>
        <time>2013-01-13T15:34:49Z</time>
      </trkpt>
      <trkpt lat="44.73412" lon="-0.3349">
        <ele>92</ele>
        <time>2013-01-13T15:34:50Z</time>
      </trkpt>
      <trkpt lat="44.7341" lon="-0.33494">
        <ele>92</ele>
        <time>2013-01-13T15:34:55Z</time>
      </trkpt>
      <trkpt lat="44.73402" lon="-0.33504">
        <ele>93</ele>
        <time>2013-01-13T15:35:04Z</time>
      </trkpt>
      <trkpt lat="44.73393" lon="-0.3352">
        <ele>93</ele>
        <time>2013-01-13T15:35:13Z</time>
      </trkpt>
      <trkpt lat="44.73385" lon="-0.33533">
        <ele>94</ele>
        <time>2013-01-13T15:35:21Z</time>
      </trkpt>
      <trkpt lat="44.7338" lon="-0.33547">
        <ele>95</ele>
        <time>2013-01-13T15:35:29Z</time>
      </trkpt>
      <trkpt lat="44.73379" lon="-0.3355">
        <ele>95</ele>
        <time>2013-01-13T15:35:31Z</time>
      </trkpt>
      <trkpt lat="44.73383" lon="-0.33559">
        <ele>95</ele>
        <time>2013-01-13T15:35:37Z</time>
      </trkpt>
      <trkpt lat="44.73397" lon="-0.33573">
        <ele>94</ele>
        <time>2013-01-13T15:35:45Z</time>
      </trkpt>
      <trkpt lat="44.73399" lon="-0.33575">
        <ele>94</ele>
        <time>2013-01-13T15:35:46Z</time>
      </trkpt>
      <trkpt lat="44.73399" lon="-0.33593">
        <ele>94</ele>
        <time>2013-01-13T15:35:51Z</time>
      </trkpt>
      <trkpt lat="44.73396" lon="-0.33596">
        <ele>95</ele>
        <time>2013-01-13T15:35:52Z</time>
      </trkpt>
      <trkpt lat="44.73377" lon="-0.33622">
        <ele>97</ele>
        <time>2013-01-13T15:36:00Z</time>
      </trkpt>
      <trkpt lat="44.73369" lon="-0.33643">
        <ele>98</ele>
        <time>2013-01-13T15:36:06Z</time>
      </trkpt>
      <trkpt lat="44.73368" lon="-0.33647">
        <ele>98</ele>
        <time>2013-01-13T15:36:07Z</time>
      </trkpt>
      <trkpt lat="44.7337" lon="-0.3368">
        <ele>97</ele>
        <time>2013-01-13T15:36:15Z</time>
      </trkpt>
      <trkpt lat="44.73375" lon="-0.33721">
        <ele>96</ele>
        <time>2013-01-13T15:36:22Z</time>
      </trkpt>
      <trkpt lat="44.73377" lon="-0.33749">
        <ele>94</ele>
        <time>2013-01-13T15:36:27Z</time>
      </trkpt>
      <trkpt lat="44.73377" lon="-0.33753">
        <ele>94</ele>
        <time>2013-01-13T15:36:28Z</time>
      </trkpt>
      <trkpt lat="44.73375" lon="-0.33756">
        <ele>94</ele>
        <time>2013-01-13T15:36:29Z</time>
      </trkpt>
      <trkpt lat="44.73373" lon="-0.33758">
        <ele>94</ele>
        <time>2013-01-13T15:36:30Z</time>
      </trkpt>
      <trkpt lat="44.7337" lon="-0.33759">
        <ele>94</ele>
        <time>2013-01-13T15:36:31Z</time>
      </trkpt>
      <trkpt lat="44.73368" lon="-0.33759">
        <ele>94</ele>
        <time>2013-01-13T15:36:32Z</time>
      </trkpt>
      <trkpt lat="44.73365" lon="-0.33759">
        <ele>93</ele>
        <time>2013-01-13T15:36:33Z</time>
      </trkpt>
      <trkpt lat="44.73345" lon="-0.33756">
        <ele>93</ele>
        <time>2013-01-13T15:36:39Z</time>
      </trkpt>
      <trkpt lat="44.73325" lon="-0.33752">
        <ele>93</ele>
        <time>2013-01-13T15:36:45Z</time>
      </trkpt>
      <trkpt lat="44.73306" lon="-0.33755">
        <ele>94</ele>
        <time>2013-01-13T15:36:51Z</time>
      </trkpt>
      <trkpt lat="44.73284" lon="-0.33771">
        <ele>93</ele>
        <time>2013-01-13T15:36:57Z</time>
      </trkpt>
      <trkpt lat="44.73262" lon="-0.33785">
        <ele>92</ele>
        <time>2013-01-13T15:37:03Z</time>
      </trkpt>
      <trkpt lat="44.73241" lon="-0.338">
        <ele>91</ele>
        <time>2013-01-13T15:37:09Z</time>
      </trkpt>
      <trkpt lat="44.73221" lon="-0.33817">
        <ele>91</ele>
        <time>2013-01-13T15:37:16Z</time>
      </trkpt>
      <trkpt lat="44.73188" lon="-0.3384">
        <ele>91</ele>
        <time>2013-01-13T15:37:24Z</time>
      </trkpt>
      <trkpt lat="44.73149" lon="-0.3387">
        <ele>90</ele>
        <time>2013-01-13T15:37:33Z</time>
      </trkpt>
      <trkpt lat="44.73117" lon="-0.33896">
        <ele>90</ele>
        <time>2013-01-13T15:37:41Z</time>
      </trkpt>
      <trkpt lat="44.73092" lon="-0.33914">
        <ele>89</ele>
        <time>2013-01-13T15:37:48Z</time>
      </trkpt>
      <trkpt lat="44.73089" lon="-0.33917">
        <ele>89</ele>
        <time>2013-01-13T15:37:49Z</time>
      </trkpt>
      <trkpt lat="44.73085" lon="-0.3392">
        <ele>89</ele>
        <time>2013-01-13T15:37:50Z</time>
      </trkpt>
      <trkpt lat="44.73058" lon="-0.33941">
        <ele>89</ele>
        <time>2013-01-13T15:37:58Z</time>
      </trkpt>
      <trkpt lat="44.7304" lon="-0.33956">
        <ele>88</ele>
        <time>2013-01-13T15:38:04Z</time>
      </trkpt>
      <trkpt lat="44.73025" lon="-0.33965">
        <ele>88</ele>
        <time>2013-01-13T15:38:10Z</time>
      </trkpt>
      <trkpt lat="44.73007" lon="-0.33978">
        <ele>87</ele>
        <time>2013-01-13T15:38:17Z</time>
      </trkpt>
      <trkpt lat="44.72995" lon="-0.33985">
        <ele>86</ele>
        <time>2013-01-13T15:38:23Z</time>
      </trkpt>
      <trkpt lat="44.72986" lon="-0.33988">
        <ele>86</ele>
        <time>2013-01-13T15:38:28Z</time>
      </trkpt>
      <trkpt lat="44.72969" lon="-0.3399">
        <ele>85</ele>
        <time>2013-01-13T15:38:35Z</time>
      </trkpt>
      <trkpt lat="44.72947" lon="-0.3399">
        <ele>83</ele>
        <time>2013-01-13T15:38:41Z</time>
      </trkpt>
      <trkpt lat="44.72932" lon="-0.33992">
        <ele>81</ele>
        <time>2013-01-13T15:38:46Z</time>
      </trkpt>
      <trkpt lat="44.7291" lon="-0.33995">
        <ele>79</ele>
        <time>2013-01-13T15:38:52Z</time>
      </trkpt>
      <trkpt lat="44.72892" lon="-0.33995">
        <ele>78</ele>
        <time>2013-01-13T15:38:58Z</time>
      </trkpt>
      <trkpt lat="44.72872" lon="-0.33998">
        <ele>77</ele>
        <time>2013-01-13T15:39:05Z</time>
      </trkpt>
      <trkpt lat="44.72847" lon="-0.34004">
        <ele>76</ele>
        <time>2013-01-13T15:39:14Z</time>
      </trkpt>
      <trkpt lat="44.72831" lon="-0.34005">
        <ele>76</ele>
        <time>2013-01-13T15:39:21Z</time>
      </trkpt>
      <trkpt lat="44.7282" lon="-0.34007">
        <ele>76</ele>
        <time>2013-01-13T15:39:26Z</time>
      </trkpt>
      <trkpt lat="44.72806" lon="-0.34009">
        <ele>75</ele>
        <time>2013-01-13T15:39:33Z</time>
      </trkpt>
      <trkpt lat="44.72805" lon="-0.3401">
        <ele>75</ele>
        <time>2013-01-13T15:39:34Z</time>
      </trkpt>
      <trkpt lat="44.72803" lon="-0.3401">
        <ele>75</ele>
        <time>2013-01-13T15:39:35Z</time>
      </trkpt>
      <trkpt lat="44.72798" lon="-0.34013">
        <ele>75</ele>
        <time>2013-01-13T15:39:39Z</time>
      </trkpt>
      <trkpt lat="44.72796" lon="-0.34013">
        <ele>75</ele>
        <time>2013-01-13T15:39:40Z</time>
      </trkpt>
      <trkpt lat="44.72794" lon="-0.34014">
        <ele>75</ele>
        <time>2013-01-13T15:39:41Z</time>
      </trkpt>
      <trkpt lat="44.72791" lon="-0.34015">
        <ele>74</ele>
        <time>2013-01-13T15:39:42Z</time>
      </trkpt>
      <trkpt lat="44.72788" lon="-0.34016">
        <ele>74</ele>
        <time>2013-01-13T15:39:43Z</time>
      </trkpt>
      <trkpt lat="44.72786" lon="-0.34016">
        <ele>74</ele>
        <time>2013-01-13T15:39:44Z</time>
      </trkpt>
      <trkpt lat="44.72783" lon="-0.34017">
        <ele>74</ele>
        <time>2013-01-13T15:39:45Z</time>
      </trkpt>
      <trkpt lat="44.72781" lon="-0.34018">
        <ele>74</ele>
        <time>2013-01-13T15:39:46Z</time>
      </trkpt>
      <trkpt lat="44.7278" lon="-0.34019">
        <ele>74</ele>
        <time>2013-01-13T15:39:47Z</time>
      </trkpt>
      <trkpt lat="44.72778" lon="-0.3402">
        <ele>73</ele>
        <time>2013-01-13T15:39:48Z</time>
      </trkpt>
      <trkpt lat="44.72776" lon="-0.3402">
        <ele>73</ele>
        <time>2013-01-13T15:39:49Z</time>
      </trkpt>
      <trkpt lat="44.72774" lon="-0.34021">
        <ele>73</ele>
        <time>2013-01-13T15:39:50Z</time>
      </trkpt>
      <trkpt lat="44.72771" lon="-0.34021">
        <ele>73</ele>
        <time>2013-01-13T15:39:51Z</time>
      </trkpt>
      <trkpt lat="44.72769" lon="-0.34022">
        <ele>73</ele>
        <time>2013-01-13T15:39:52Z</time>
      </trkpt>
      <trkpt lat="44.72766" lon="-0.34022">
        <ele>72</ele>
        <time>2013-01-13T15:39:53Z</time>
      </trkpt>
      <trkpt lat="44.7275" lon="-0.3403">
        <ele>71</ele>
        <time>2013-01-13T15:39:59Z</time>
      </trkpt>
      <trkpt lat="44.72733" lon="-0.34034">
        <ele>69</ele>
        <time>2013-01-13T15:40:05Z</time>
      </trkpt>
      <trkpt lat="44.72716" lon="-0.34033">
        <ele>67</ele>
        <time>2013-01-13T15:40:11Z</time>
      </trkpt>
      <trkpt lat="44.7271" lon="-0.34032">
        <ele>66</ele>
        <time>2013-01-13T15:40:13Z</time>
      </trkpt>
      <trkpt lat="44.72693" lon="-0.34035">
        <ele>64</ele>
        <time>2013-01-13T15:40:19Z</time>
      </trkpt>
      <trkpt lat="44.72688" lon="-0.34036">
        <ele>64</ele>
        <time>2013-01-13T15:40:21Z</time>
      </trkpt>
      <trkpt lat="44.72687" lon="-0.34036">
        <ele>64</ele>
        <time>2013-01-13T15:40:22Z</time>
      </trkpt>
      <trkpt lat="44.72685" lon="-0.34036">
        <ele>64</ele>
        <time>2013-01-13T15:40:23Z</time>
      </trkpt>
      <trkpt lat="44.72683" lon="-0.34037">
        <ele>63</ele>
        <time>2013-01-13T15:40:24Z</time>
      </trkpt>
      <trkpt lat="44.72681" lon="-0.34037">
        <ele>63</ele>
        <time>2013-01-13T15:40:25Z</time>
      </trkpt>
      <trkpt lat="44.72671" lon="-0.34042">
        <ele>62</ele>
        <time>2013-01-13T15:40:31Z</time>
      </trkpt>
      <trkpt lat="44.72661" lon="-0.34044">
        <ele>61</ele>
        <time>2013-01-13T15:40:36Z</time>
      </trkpt>
      <trkpt lat="44.72649" lon="-0.34053">
        <ele>60</ele>
        <time>2013-01-13T15:40:42Z</time>
      </trkpt>
      <trkpt lat="44.72632" lon="-0.34062">
        <ele>59</ele>
        <time>2013-01-13T15:40:48Z</time>
      </trkpt>
      <trkpt lat="44.72619" lon="-0.3407">
        <ele>58</ele>
        <time>2013-01-13T15:40:53Z</time>
      </trkpt>
      <trkpt lat="44.72606" lon="-0.34078">
        <ele>58</ele>
        <time>2013-01-13T15:40:58Z</time>
      </trkpt>
      <trkpt lat="44.72599" lon="-0.34084">
        <ele>58</ele>
        <time>2013-01-13T15:41:02Z</time>
      </trkpt>
      <trkpt lat="44.72597" lon="-0.34086">
        <ele>57</ele>
        <time>2013-01-13T15:41:03Z</time>
      </trkpt>
      <trkpt lat="44.72595" lon="-0.34087">
        <ele>57</ele>
        <time>2013-01-13T15:41:04Z</time>
      </trkpt>
      <trkpt lat="44.72592" lon="-0.34089">
        <ele>57</ele>
        <time>2013-01-13T15:41:05Z</time>
      </trkpt>
      <trkpt lat="44.7259" lon="-0.34091">
        <ele>57</ele>
        <time>2013-01-13T15:41:06Z</time>
      </trkpt>
      <trkpt lat="44.72587" lon="-0.34094">
        <ele>57</ele>
        <time>2013-01-13T15:41:07Z</time>
      </trkpt>
      <trkpt lat="44.72584" lon="-0.34096">
        <ele>57</ele>
        <time>2013-01-13T15:41:08Z</time>
      </trkpt>
      <trkpt lat="44.72581" lon="-0.34098">
        <ele>57</ele>
        <time>2013-01-13T15:41:09Z</time>
      </trkpt>
      <trkpt lat="44.72564" lon="-0.34108">
        <ele>56</ele>
        <time>2013-01-13T15:41:15Z</time>
      </trkpt>
      <trkpt lat="44.72547" lon="-0.34117">
        <ele>56</ele>
        <time>2013-01-13T15:41:21Z</time>
      </trkpt>
      <trkpt lat="44.7253" lon="-0.34126">
        <ele>56</ele>
        <time>2013-01-13T15:41:27Z</time>
      </trkpt>
      <trkpt lat="44.72514" lon="-0.34136">
        <ele>55</ele>
        <time>2013-01-13T15:41:33Z</time>
      </trkpt>
      <trkpt lat="44.72497" lon="-0.34146">
        <ele>54</ele>
        <time>2013-01-13T15:41:39Z</time>
      </trkpt>
      <trkpt lat="44.72495" lon="-0.34148">
        <ele>54</ele>
        <time>2013-01-13T15:41:40Z</time>
      </trkpt>
      <trkpt lat="44.72492" lon="-0.3415">
        <ele>54</ele>
        <time>2013-01-13T15:41:41Z</time>
      </trkpt>
      <trkpt lat="44.72489" lon="-0.34151">
        <ele>54</ele>
        <time>2013-01-13T15:41:42Z</time>
      </trkpt>
      <trkpt lat="44.72486" lon="-0.34152">
        <ele>53</ele>
        <time>2013-01-13T15:41:43Z</time>
      </trkpt>
      <trkpt lat="44.72483" lon="-0.34154">
        <ele>53</ele>
        <time>2013-01-13T15:41:44Z</time>
      </trkpt>
      <trkpt lat="44.72476" lon="-0.34157">
        <ele>53</ele>
        <time>2013-01-13T15:41:47Z</time>
      </trkpt>
      <trkpt lat="44.72473" lon="-0.34158">
        <ele>52</ele>
        <time>2013-01-13T15:41:49Z</time>
      </trkpt>
      <trkpt lat="44.72472" lon="-0.3416">
        <ele>52</ele>
        <time>2013-01-13T15:41:50Z</time>
      </trkpt>
      <trkpt lat="44.72471" lon="-0.34161">
        <ele>52</ele>
        <time>2013-01-13T15:41:51Z</time>
      </trkpt>
      <trkpt lat="44.72469" lon="-0.34162">
        <ele>52</ele>
        <time>2013-01-13T15:41:52Z</time>
      </trkpt>
      <trkpt lat="44.72468" lon="-0.34163">
        <ele>52</ele>
        <time>2013-01-13T15:41:53Z</time>
      </trkpt>
      <trkpt lat="44.72466" lon="-0.34164">
        <ele>52</ele>
        <time>2013-01-13T15:41:54Z</time>
      </trkpt>
      <trkpt lat="44.72464" lon="-0.34166">
        <ele>52</ele>
        <time>2013-01-13T15:41:55Z</time>
      </trkpt>
      <trkpt lat="44.72461" lon="-0.34168">
        <ele>51</ele>
        <time>2013-01-13T15:41:57Z</time>
      </trkpt>
      <trkpt lat="44.72451" lon="-0.34171">
        <ele>51</ele>
        <time>2013-01-13T15:42:03Z</time>
      </trkpt>
      <trkpt lat="44.72446" lon="-0.34173">
        <ele>50</ele>
        <time>2013-01-13T15:42:08Z</time>
      </trkpt>
      <trkpt lat="44.72444" lon="-0.34174">
        <ele>50</ele>
        <time>2013-01-13T15:42:15Z</time>
      </trkpt>
      <trkpt lat="44.72443" lon="-0.34176">
        <ele>50</ele>
        <time>2013-01-13T15:42:24Z</time>
      </trkpt>
      <trkpt lat="44.72443" lon="-0.34176">
        <ele>50</ele>
        <time>2013-01-13T15:42:39Z</time>
      </trkpt>
      <trkpt lat="44.72443" lon="-0.34175">
        <ele>50</ele>
        <time>2013-01-13T15:42:50Z</time>
      </trkpt>
      <trkpt lat="44.72442" lon="-0.34175">
        <ele>50</ele>
        <time>2013-01-13T15:42:54Z</time>
      </trkpt>
      <trkpt lat="44.72441" lon="-0.34174">
        <ele>50</ele>
        <time>2013-01-13T15:42:55Z</time>
      </trkpt>
      <trkpt lat="44.7244" lon="-0.34172">
        <ele>50</ele>
        <time>2013-01-13T15:42:56Z</time>
      </trkpt>
      <trkpt lat="44.7243" lon="-0.34155">
        <ele>49</ele>
        <time>2013-01-13T15:43:01Z</time>
      </trkpt>
      <trkpt lat="44.72403" lon="-0.34124">
        <ele>48</ele>
        <time>2013-01-13T15:43:08Z</time>
      </trkpt>
      <trkpt lat="44.72398" lon="-0.3412">
        <ele>48</ele>
        <time>2013-01-13T15:43:09Z</time>
      </trkpt>
      <trkpt lat="44.72394" lon="-0.34118">
        <ele>47</ele>
        <time>2013-01-13T15:43:10Z</time>
      </trkpt>
      <trkpt lat="44.72389" lon="-0.34116">
        <ele>47</ele>
        <time>2013-01-13T15:43:11Z</time>
      </trkpt>
      <trkpt lat="44.72384" lon="-0.34115">
        <ele>47</ele>
        <time>2013-01-13T15:43:12Z</time>
      </trkpt>
      <trkpt lat="44.7238" lon="-0.34115">
        <ele>47</ele>
        <time>2013-01-13T15:43:13Z</time>
      </trkpt>
      <trkpt lat="44.72376" lon="-0.34114">
        <ele>47</ele>
        <time>2013-01-13T15:43:14Z</time>
      </trkpt>
      <trkpt lat="44.72364" lon="-0.34113">
        <ele>46</ele>
        <time>2013-01-13T15:43:17Z</time>
      </trkpt>
      <trkpt lat="44.72347" lon="-0.34109">
        <ele>45</ele>
        <time>2013-01-13T15:43:21Z</time>
      </trkpt>
      <trkpt lat="44.72342" lon="-0.34106">
        <ele>45</ele>
        <time>2013-01-13T15:43:22Z</time>
      </trkpt>
      <trkpt lat="44.72337" lon="-0.34103">
        <ele>44</ele>
        <time>2013-01-13T15:43:23Z</time>
      </trkpt>
      <trkpt lat="44.72332" lon="-0.34098">
        <ele>44</ele>
        <time>2013-01-13T15:43:24Z</time>
      </trkpt>
      <trkpt lat="44.72328" lon="-0.34093">
        <ele>44</ele>
        <time>2013-01-13T15:43:25Z</time>
      </trkpt>
      <trkpt lat="44.72309" lon="-0.34064">
        <ele>43</ele>
        <time>2013-01-13T15:43:29Z</time>
      </trkpt>
      <trkpt lat="44.72275" lon="-0.34015">
        <ele>37</ele>
        <time>2013-01-13T15:43:35Z</time>
      </trkpt>
      <trkpt lat="44.72241" lon="-0.33961">
        <ele>33</ele>
        <time>2013-01-13T15:43:42Z</time>
      </trkpt>
      <trkpt lat="44.72229" lon="-0.33944">
        <ele>32</ele>
        <time>2013-01-13T15:43:45Z</time>
      </trkpt>
      <trkpt lat="44.72224" lon="-0.3394">
        <ele>31</ele>
        <time>2013-01-13T15:43:46Z</time>
      </trkpt>
      <trkpt lat="44.72219" lon="-0.33938">
        <ele>31</ele>
        <time>2013-01-13T15:43:47Z</time>
      </trkpt>
      <trkpt lat="44.72214" lon="-0.33937">
        <ele>31</ele>
        <time>2013-01-13T15:43:48Z</time>
      </trkpt>
      <trkpt lat="44.7221" lon="-0.33938">
        <ele>31</ele>
        <time>2013-01-13T15:43:49Z</time>
      </trkpt>
      <trkpt lat="44.72207" lon="-0.3394">
        <ele>32</ele>
        <time>2013-01-13T15:43:50Z</time>
      </trkpt>
      <trkpt lat="44.72198" lon="-0.33946">
        <ele>33</ele>
        <time>2013-01-13T15:43:56Z</time>
      </trkpt>
      <trkpt lat="44.7219" lon="-0.33953">
        <ele>34</ele>
        <time>2013-01-13T15:44:04Z</time>
      </trkpt>
      <trkpt lat="44.72189" lon="-0.33958">
        <ele>34</ele>
        <time>2013-01-13T15:44:10Z</time>
      </trkpt>
      <trkpt lat="44.72187" lon="-0.3396">
        <ele>35</ele>
        <time>2013-01-13T15:44:16Z</time>
      </trkpt>
      <trkpt lat="44.72186" lon="-0.33963">
        <ele>35</ele>
        <time>2013-01-13T15:44:23Z</time>
      </trkpt>
      <trkpt lat="44.72185" lon="-0.33972">
        <ele>35</ele>
        <time>2013-01-13T15:44:30Z</time>
      </trkpt>
      <trkpt lat="44.72184" lon="-0.33976">
        <ele>36</ele>
        <time>2013-01-13T15:44:37Z</time>
      </trkpt>
      <trkpt lat="44.72182" lon="-0.33983">
        <ele>36</ele>
        <time>2013-01-13T15:44:44Z</time>
      </trkpt>
      <trkpt lat="44.72178" lon="-0.34">
        <ele>38</ele>
        <time>2013-01-13T15:44:52Z</time>
      </trkpt>
      <trkpt lat="44.72176" lon="-0.34006">
        <ele>39</ele>
        <time>2013-01-13T15:44:55Z</time>
      </trkpt>
      <trkpt lat="44.72174" lon="-0.34014">
        <ele>39</ele>
        <time>2013-01-13T15:45:00Z</time>
      </trkpt>
      <trkpt lat="44.7217" lon="-0.34019">
        <ele>40</ele>
        <time>2013-01-13T15:45:03Z</time>
      </trkpt>
      <trkpt lat="44.72164" lon="-0.34022">
        <ele>42</ele>
        <time>2013-01-13T15:45:10Z</time>
      </trkpt>
      <trkpt lat="44.7216" lon="-0.34025">
        <ele>42</ele>
        <time>2013-01-13T15:45:17Z</time>
      </trkpt>
      <trkpt lat="44.72154" lon="-0.34029">
        <ele>43</ele>
        <time>2013-01-13T15:45:25Z</time>
      </trkpt>
      <trkpt lat="44.72148" lon="-0.34032">
        <ele>44</ele>
        <time>2013-01-13T15:45:33Z</time>
      </trkpt>
      <trkpt lat="44.72143" lon="-0.34033">
        <ele>45</ele>
        <time>2013-01-13T15:45:42Z</time>
      </trkpt>
      <trkpt lat="44.72142" lon="-0.34033">
        <ele>45</ele>
        <time>2013-01-13T15:45:48Z</time>
      </trkpt>
      <trkpt lat="44.72139" lon="-0.34034">
        <ele>46</ele>
        <time>2013-01-13T15:45:55Z</time>
      </trkpt>
      <trkpt lat="44.72138" lon="-0.34034">
        <ele>46</ele>
        <time>2013-01-13T15:46:03Z</time>
      </trkpt>
      <trkpt lat="44.72136" lon="-0.34036">
        <ele>46</ele>
        <time>2013-01-13T15:46:09Z</time>
      </trkpt>
      <trkpt lat="44.72133" lon="-0.34038">
        <ele>47</ele>
        <time>2013-01-13T15:46:16Z</time>
      </trkpt>
      <trkpt lat="44.72128" lon="-0.34039">
        <ele>48</ele>
        <time>2013-01-13T15:46:24Z</time>
      </trkpt>
      <trkpt lat="44.72124" lon="-0.3404">
        <ele>48</ele>
        <time>2013-01-13T15:46:30Z</time>
      </trkpt>
      <trkpt lat="44.72119" lon="-0.3404">
        <ele>49</ele>
        <time>2013-01-13T15:46:36Z</time>
      </trkpt>
      <trkpt lat="44.72116" lon="-0.3404">
        <ele>49</ele>
        <time>2013-01-13T15:46:41Z</time>
      </trkpt>
      <trkpt lat="44.72111" lon="-0.34038">
        <ele>50</ele>
        <time>2013-01-13T15:46:49Z</time>
      </trkpt>
      <trkpt lat="44.72104" lon="-0.34038">
        <ele>51</ele>
        <time>2013-01-13T15:46:57Z</time>
      </trkpt>
      <trkpt lat="44.721" lon="-0.34039">
        <ele>51</ele>
        <time>2013-01-13T15:47:05Z</time>
      </trkpt>
      <trkpt lat="44.72093" lon="-0.34041">
        <ele>52</ele>
        <time>2013-01-13T15:47:12Z</time>
      </trkpt>
      <trkpt lat="44.72087" lon="-0.34042">
        <ele>53</ele>
        <time>2013-01-13T15:47:18Z</time>
      </trkpt>
      <trkpt lat="44.72084" lon="-0.34043">
        <ele>54</ele>
        <time>2013-01-13T15:47:25Z</time>
      </trkpt>
      <trkpt lat="44.72082" lon="-0.34043">
        <ele>54</ele>
        <time>2013-01-13T15:47:31Z</time>
      </trkpt>
      <trkpt lat="44.7208" lon="-0.34043">
        <ele>54</ele>
        <time>2013-01-13T15:47:37Z</time>
      </trkpt>
      <trkpt lat="44.7208" lon="-0.34043">
        <ele>54</ele>
        <time>2013-01-13T15:47:38Z</time>
      </trkpt>
      <trkpt lat="44.72074" lon="-0.3404">
        <ele>55</ele>
        <time>2013-01-13T15:47:43Z</time>
      </trkpt>
      <trkpt lat="44.72066" lon="-0.34041">
        <ele>56</ele>
        <time>2013-01-13T15:47:48Z</time>
      </trkpt>
      <trkpt lat="44.72059" lon="-0.34035">
        <ele>56</ele>
        <time>2013-01-13T15:47:56Z</time>
      </trkpt>
      <trkpt lat="44.72055" lon="-0.34035">
        <ele>57</ele>
        <time>2013-01-13T15:48:03Z</time>
      </trkpt>
      <trkpt lat="44.72052" lon="-0.34034">
        <ele>57</ele>
        <time>2013-01-13T15:48:11Z</time>
      </trkpt>
      <trkpt lat="44.72046" lon="-0.34029">
        <ele>58</ele>
        <time>2013-01-13T15:48:17Z</time>
      </trkpt>
      <trkpt lat="44.72039" lon="-0.3402">
        <ele>59</ele>
        <time>2013-01-13T15:48:24Z</time>
      </trkpt>
      <trkpt lat="44.72034" lon="-0.34012">
        <ele>60</ele>
        <time>2013-01-13T15:48:30Z</time>
      </trkpt>
      <trkpt lat="44.72026" lon="-0.34001">
        <ele>60</ele>
        <time>2013-01-13T15:48:37Z</time>
      </trkpt>
      <trkpt lat="44.72023" lon="-0.33997">
        <ele>60</ele>
        <time>2013-01-13T15:48:41Z</time>
      </trkpt>
      <trkpt lat="44.72018" lon="-0.33993">
        <ele>61</ele>
        <time>2013-01-13T15:48:44Z</time>
      </trkpt>
      <trkpt lat="44.72011" lon="-0.3399">
        <ele>61</ele>
        <time>2013-01-13T15:48:49Z</time>
      </trkpt>
      <trkpt lat="44.72001" lon="-0.33978">
        <ele>62</ele>
        <time>2013-01-13T15:48:58Z</time>
      </trkpt>
      <trkpt lat="44.71999" lon="-0.33976">
        <ele>62</ele>
        <time>2013-01-13T15:49:00Z</time>
      </trkpt>
      <trkpt lat="44.71988" lon="-0.33971">
        <ele>63</ele>
        <time>2013-01-13T15:49:08Z</time>
      </trkpt>
      <trkpt lat="44.71979" lon="-0.33965">
        <ele>65</ele>
        <time>2013-01-13T15:49:16Z</time>
      </trkpt>
      <trkpt lat="44.7197" lon="-0.3396">
        <ele>66</ele>
        <time>2013-01-13T15:49:23Z</time>
      </trkpt>
      <trkpt lat="44.71962" lon="-0.33957">
        <ele>67</ele>
        <time>2013-01-13T15:49:30Z</time>
      </trkpt>
      <trkpt lat="44.71953" lon="-0.33953">
        <ele>69</ele>
        <time>2013-01-13T15:49:37Z</time>
      </trkpt>
      <trkpt lat="44.71944" lon="-0.3395">
        <ele>70</ele>
        <time>2013-01-13T15:49:44Z</time>
      </trkpt>
      <trkpt lat="44.71935" lon="-0.33948">
        <ele>72</ele>
        <time>2013-01-13T15:49:54Z</time>
      </trkpt>
      <trkpt lat="44.71933" lon="-0.33947">
        <ele>72</ele>
        <time>2013-01-13T15:50:00Z</time>
      </trkpt>
      <trkpt lat="44.71925" lon="-0.33943">
        <ele>73</ele>
        <time>2013-01-13T15:50:07Z</time>
      </trkpt>
      <trkpt lat="44.71914" lon="-0.33944">
        <ele>75</ele>
        <time>2013-01-13T15:50:16Z</time>
      </trkpt>
      <trkpt lat="44.71911" lon="-0.33949">
        <ele>76</ele>
        <time>2013-01-13T15:50:23Z</time>
      </trkpt>
      <trkpt lat="44.71906" lon="-0.33954">
        <ele>77</ele>
        <time>2013-01-13T15:50:32Z</time>
      </trkpt>
      <trkpt lat="44.71898" lon="-0.33959">
        <ele>78</ele>
        <time>2013-01-13T15:50:40Z</time>
      </trkpt>
      <trkpt lat="44.71891" lon="-0.33962">
        <ele>78</ele>
        <time>2013-01-13T15:50:47Z</time>
      </trkpt>
      <trkpt lat="44.71884" lon="-0.33964">
        <ele>79</ele>
        <time>2013-01-13T15:50:54Z</time>
      </trkpt>
      <trkpt lat="44.71876" lon="-0.33966">
        <ele>80</ele>
        <time>2013-01-13T15:51:02Z</time>
      </trkpt>
      <trkpt lat="44.7187" lon="-0.33966">
        <ele>80</ele>
        <time>2013-01-13T15:51:07Z</time>
      </trkpt>
      <trkpt lat="44.7186" lon="-0.33968">
        <ele>81</ele>
        <time>2013-01-13T15:51:13Z</time>
      </trkpt>
      <trkpt lat="44.71849" lon="-0.33966">
        <ele>82</ele>
        <time>2013-01-13T15:51:21Z</time>
      </trkpt>
      <trkpt lat="44.71842" lon="-0.33961">
        <ele>83</ele>
        <time>2013-01-13T15:51:27Z</time>
      </trkpt>
      <trkpt lat="44.71834" lon="-0.33954">
        <ele>84</ele>
        <time>2013-01-13T15:51:35Z</time>
      </trkpt>
      <trkpt lat="44.71832" lon="-0.33952">
        <ele>84</ele>
        <time>2013-01-13T15:51:38Z</time>
      </trkpt>
      <trkpt lat="44.71824" lon="-0.33944">
        <ele>85</ele>
        <time>2013-01-13T15:51:45Z</time>
      </trkpt>
      <trkpt lat="44.71821" lon="-0.33942">
        <ele>85</ele>
        <time>2013-01-13T15:51:49Z</time>
      </trkpt>
      <trkpt lat="44.71817" lon="-0.33937">
        <ele>86</ele>
        <time>2013-01-13T15:51:54Z</time>
      </trkpt>
      <trkpt lat="44.71806" lon="-0.33925">
        <ele>87</ele>
        <time>2013-01-13T15:52:03Z</time>
      </trkpt>
      <trkpt lat="44.71799" lon="-0.33917">
        <ele>87</ele>
        <time>2013-01-13T15:52:10Z</time>
      </trkpt>
      <trkpt lat="44.7179" lon="-0.33907">
        <ele>88</ele>
        <time>2013-01-13T15:52:18Z</time>
      </trkpt>
      <trkpt lat="44.71782" lon="-0.33898">
        <ele>89</ele>
        <time>2013-01-13T15:52:25Z</time>
      </trkpt>
      <trkpt lat="44.71781" lon="-0.33896">
        <ele>89</ele>
        <time>2013-01-13T15:52:27Z</time>
      </trkpt>
      <trkpt lat="44.71774" lon="-0.33887">
        <ele>91</ele>
        <time>2013-01-13T15:52:34Z</time>
      </trkpt>
      <trkpt lat="44.71768" lon="-0.3388">
        <ele>92</ele>
        <time>2013-01-13T15:52:41Z</time>
      </trkpt>
      <trkpt lat="44.71757" lon="-0.33871">
        <ele>93</ele>
        <time>2013-01-13T15:52:49Z</time>
      </trkpt>
      <trkpt lat="44.71749" lon="-0.33865">
        <ele>93</ele>
        <time>2013-01-13T15:52:55Z</time>
      </trkpt>
      <trkpt lat="44.71737" lon="-0.33861">
        <ele>94</ele>
        <time>2013-01-13T15:53:02Z</time>
      </trkpt>
      <trkpt lat="44.71724" lon="-0.33857">
        <ele>96</ele>
        <time>2013-01-13T15:53:09Z</time>
      </trkpt>
      <trkpt lat="44.71713" lon="-0.33854">
        <ele>96</ele>
        <time>2013-01-13T15:53:14Z</time>
      </trkpt>
      <trkpt lat="44.71693" lon="-0.33848">
        <ele>96</ele>
        <time>2013-01-13T15:53:23Z</time>
      </trkpt>
      <trkpt lat="44.71678" lon="-0.3384">
        <ele>97</ele>
        <time>2013-01-13T15:53:31Z</time>
      </trkpt>
      <trkpt lat="44.71662" lon="-0.33828">
        <ele>98</ele>
        <time>2013-01-13T15:53:41Z</time>
      </trkpt>
      <trkpt lat="44.7166" lon="-0.33824">
        <ele>98</ele>
        <time>2013-01-13T15:53:44Z</time>
      </trkpt>
      <trkpt lat="44.71656" lon="-0.33806">
        <ele>100</ele>
        <time>2013-01-13T15:53:52Z</time>
      </trkpt>
      <trkpt lat="44.71655" lon="-0.338">
        <ele>100</ele>
        <time>2013-01-13T15:53:55Z</time>
      </trkpt>
      <trkpt lat="44.71657" lon="-0.33781">
        <ele>101</ele>
        <time>2013-01-13T15:54:04Z</time>
      </trkpt>
      <trkpt lat="44.71656" lon="-0.33768">
        <ele>101</ele>
        <time>2013-01-13T15:54:09Z</time>
      </trkpt>
      <trkpt lat="44.71653" lon="-0.33752">
        <ele>102</ele>
        <time>2013-01-13T15:54:17Z</time>
      </trkpt>
      <trkpt lat="44.71649" lon="-0.33743">
        <ele>102</ele>
        <time>2013-01-13T15:54:25Z</time>
      </trkpt>
      <trkpt lat="44.71649" lon="-0.33743">
        <ele>102</ele>
        <time>2013-01-13T15:54:33Z</time>
      </trkpt>
      <trkpt lat="44.71649" lon="-0.33743">
        <ele>102</ele>
        <time>2013-01-13T15:54:46Z</time>
      </trkpt>
      <trkpt lat="44.71648" lon="-0.33738">
        <ele>102</ele>
        <time>2013-01-13T15:54:56Z</time>
      </trkpt>
      <trkpt lat="44.71645" lon="-0.33725">
        <ele>102</ele>
        <time>2013-01-13T15:55:03Z</time>
      </trkpt>
      <trkpt lat="44.7164" lon="-0.33709">
        <ele>103</ele>
        <time>2013-01-13T15:55:09Z</time>
      </trkpt>
      <trkpt lat="44.71636" lon="-0.33691">
        <ele>103</ele>
        <time>2013-01-13T15:55:15Z</time>
      </trkpt>
      <trkpt lat="44.71626" lon="-0.3366">
        <ele>102</ele>
        <time>2013-01-13T15:55:24Z</time>
      </trkpt>
      <trkpt lat="44.71619" lon="-0.33629">
        <ele>101</ele>
        <time>2013-01-13T15:55:30Z</time>
      </trkpt>
      <trkpt lat="44.71608" lon="-0.33591">
        <ele>101</ele>
        <time>2013-01-13T15:55:38Z</time>
      </trkpt>
      <trkpt lat="44.71599" lon="-0.33563">
        <ele>102</ele>
        <time>2013-01-13T15:55:44Z</time>
      </trkpt>
      <trkpt lat="44.71592" lon="-0.33533">
        <ele>102</ele>
        <time>2013-01-13T15:55:50Z</time>
      </trkpt>
      <trkpt lat="44.71582" lon="-0.33501">
        <ele>103</ele>
        <time>2013-01-13T15:55:57Z</time>
      </trkpt>
      <trkpt lat="44.71575" lon="-0.33471">
        <ele>102</ele>
        <time>2013-01-13T15:56:04Z</time>
      </trkpt>
      <trkpt lat="44.71567" lon="-0.33446">
        <ele>102</ele>
        <time>2013-01-13T15:56:11Z</time>
      </trkpt>
      <trkpt lat="44.71561" lon="-0.33415">
        <ele>102</ele>
        <time>2013-01-13T15:56:19Z</time>
      </trkpt>
      <trkpt lat="44.71554" lon="-0.33385">
        <ele>101</ele>
        <time>2013-01-13T15:56:27Z</time>
      </trkpt>
      <trkpt lat="44.71546" lon="-0.33353">
        <ele>99</ele>
        <time>2013-01-13T15:56:35Z</time>
      </trkpt>
      <trkpt lat="44.71541" lon="-0.33321">
        <ele>97</ele>
        <time>2013-01-13T15:56:43Z</time>
      </trkpt>
      <trkpt lat="44.71538" lon="-0.33293">
        <ele>95</ele>
        <time>2013-01-13T15:56:50Z</time>
      </trkpt>
      <trkpt lat="44.71526" lon="-0.33273">
        <ele>94</ele>
        <time>2013-01-13T15:56:55Z</time>
      </trkpt>
      <trkpt lat="44.71523" lon="-0.33269">
        <ele>93</ele>
        <time>2013-01-13T15:56:56Z</time>
      </trkpt>
      <trkpt lat="44.71517" lon="-0.3326">
        <ele>93</ele>
        <time>2013-01-13T15:56:58Z</time>
      </trkpt>
      <trkpt lat="44.71513" lon="-0.33257">
        <ele>93</ele>
        <time>2013-01-13T15:56:59Z</time>
      </trkpt>
      <trkpt lat="44.71498" lon="-0.33235">
        <ele>93</ele>
        <time>2013-01-13T15:57:06Z</time>
      </trkpt>
      <trkpt lat="44.71489" lon="-0.33219">
        <ele>94</ele>
        <time>2013-01-13T15:57:12Z</time>
      </trkpt>
      <trkpt lat="44.71489" lon="-0.33198">
        <ele>93</ele>
        <time>2013-01-13T15:57:18Z</time>
      </trkpt>
      <trkpt lat="44.71487" lon="-0.33195">
        <ele>94</ele>
        <time>2013-01-13T15:57:19Z</time>
      </trkpt>
      <trkpt lat="44.71484" lon="-0.33192">
        <ele>94</ele>
        <time>2013-01-13T15:57:20Z</time>
      </trkpt>
      <trkpt lat="44.71481" lon="-0.3319">
        <ele>94</ele>
        <time>2013-01-13T15:57:21Z</time>
      </trkpt>
      <trkpt lat="44.71478" lon="-0.33188">
        <ele>95</ele>
        <time>2013-01-13T15:57:22Z</time>
      </trkpt>
      <trkpt lat="44.71475" lon="-0.33186">
        <ele>95</ele>
        <time>2013-01-13T15:57:23Z</time>
      </trkpt>
      <trkpt lat="44.71472" lon="-0.33183">
        <ele>96</ele>
        <time>2013-01-13T15:57:24Z</time>
      </trkpt>
      <trkpt lat="44.71468" lon="-0.3318">
        <ele>96</ele>
        <time>2013-01-13T15:57:25Z</time>
      </trkpt>
      <trkpt lat="44.7146" lon="-0.33174">
        <ele>96</ele>
        <time>2013-01-13T15:57:27Z</time>
      </trkpt>
      <trkpt lat="44.71451" lon="-0.33168">
        <ele>97</ele>
        <time>2013-01-13T15:57:29Z</time>
      </trkpt>
      <trkpt lat="44.71425" lon="-0.3316">
        <ele>98</ele>
        <time>2013-01-13T15:57:34Z</time>
      </trkpt>
      <trkpt lat="44.7142" lon="-0.33158">
        <ele>98</ele>
        <time>2013-01-13T15:57:35Z</time>
      </trkpt>
      <trkpt lat="44.71414" lon="-0.33157">
        <ele>98</ele>
        <time>2013-01-13T15:57:36Z</time>
      </trkpt>
      <trkpt lat="44.71409" lon="-0.33155">
        <ele>98</ele>
        <time>2013-01-13T15:57:37Z</time>
      </trkpt>
      <trkpt lat="44.71403" lon="-0.33154">
        <ele>98</ele>
        <time>2013-01-13T15:57:38Z</time>
      </trkpt>
      <trkpt lat="44.71397" lon="-0.33153">
        <ele>97</ele>
        <time>2013-01-13T15:57:39Z</time>
      </trkpt>
      <trkpt lat="44.71384" lon="-0.33151">
        <ele>97</ele>
        <time>2013-01-13T15:57:41Z</time>
      </trkpt>
      <trkpt lat="44.71335" lon="-0.3316">
        <ele>94</ele>
        <time>2013-01-13T15:57:48Z</time>
      </trkpt>
      <trkpt lat="44.7127" lon="-0.33167">
        <ele>91</ele>
        <time>2013-01-13T15:57:56Z</time>
      </trkpt>
      <trkpt lat="44.71262" lon="-0.33165">
        <ele>91</ele>
        <time>2013-01-13T15:57:57Z</time>
      </trkpt>
      <trkpt lat="44.71255" lon="-0.33162">
        <ele>91</ele>
        <time>2013-01-13T15:57:58Z</time>
      </trkpt>
      <trkpt lat="44.71247" lon="-0.33159">
        <ele>91</ele>
        <time>2013-01-13T15:57:59Z</time>
      </trkpt>
      <trkpt lat="44.71209" lon="-0.33132">
        <ele>92</ele>
        <time>2013-01-13T15:58:05Z</time>
      </trkpt>
      <trkpt lat="44.71204" lon="-0.33128">
        <ele>92</ele>
        <time>2013-01-13T15:58:06Z</time>
      </trkpt>
      <trkpt lat="44.71199" lon="-0.33122">
        <ele>92</ele>
        <time>2013-01-13T15:58:07Z</time>
      </trkpt>
      <trkpt lat="44.71196" lon="-0.33115">
        <ele>92</ele>
        <time>2013-01-13T15:58:08Z</time>
      </trkpt>
      <trkpt lat="44.71194" lon="-0.33108">
        <ele>93</ele>
        <time>2013-01-13T15:58:09Z</time>
      </trkpt>
      <trkpt lat="44.71193" lon="-0.33101">
        <ele>93</ele>
        <time>2013-01-13T15:58:10Z</time>
      </trkpt>
      <trkpt lat="44.71191" lon="-0.33096">
        <ele>93</ele>
        <time>2013-01-13T15:58:11Z</time>
      </trkpt>
      <trkpt lat="44.71189" lon="-0.33087">
        <ele>93</ele>
        <time>2013-01-13T15:58:13Z</time>
      </trkpt>
      <trkpt lat="44.7119" lon="-0.33081">
        <ele>93</ele>
        <time>2013-01-13T15:58:14Z</time>
      </trkpt>
      <trkpt lat="44.71191" lon="-0.33078">
        <ele>94</ele>
        <time>2013-01-13T15:58:15Z</time>
      </trkpt>
      <trkpt lat="44.71193" lon="-0.33077">
        <ele>94</ele>
        <time>2013-01-13T15:58:16Z</time>
      </trkpt>
      <trkpt lat="44.71195" lon="-0.33078">
        <ele>94</ele>
        <time>2013-01-13T15:58:20Z</time>
      </trkpt>
      <trkpt lat="44.71195" lon="-0.33077">
        <ele>94</ele>
        <time>2013-01-13T15:58:27Z</time>
      </trkpt>
      <trkpt lat="44.71196" lon="-0.33077">
        <ele>94</ele>
        <time>2013-01-13T15:58:37Z</time>
      </trkpt>
      <trkpt lat="44.71196" lon="-0.33078">
        <ele>94</ele>
        <time>2013-01-13T15:58:48Z</time>
      </trkpt>
      <trkpt lat="44.71197" lon="-0.33077">
        <ele>94</ele>
        <time>2013-01-13T15:58:55Z</time>
      </trkpt>
      <trkpt lat="44.71196" lon="-0.33076">
        <ele>94</ele>
        <time>2013-01-13T15:59:07Z</time>
      </trkpt>
      <trkpt lat="44.71197" lon="-0.33076">
        <ele>94</ele>
        <time>2013-01-13T15:59:18Z</time>
      </trkpt>
    </trkseg>
  </trk>
</gpx>